GFSSE_sfc_dewp_000.txt.gz
Dewpoint
61 62 71 70 71 71 70 69 67 65 63 61 60 62 62 65 65 62 63 59 58 58 59 60 61 63 66 66 65 65 63 64 63 63 63 65 64 64 62 60 61 58 62
60 61 71 72 71 70 70 69 67 65 64 62 59 58 59 59 60 59 60 62 59 57 59 61 61 60 62 63 62 62 61 61 60 61 63 64 63 63 59 59 61 62 64
59 60 69 73 72 71 70 68 67 66 64 62 61 59 59 59 59 60 62 62 60 58 59 61 62 62 63 64 62 61 60 62 60 61 63 56 56 61 60 61 61 64 65
59 60 64 72 72 71 70 69 67 66 64 62 61 60 59 62 59 60 60 60 61 61 60 60 61 60 62 62 63 62 60 59 60 62 56 53 54 59 61 60 61 62 63
60 61 65 73 72 71 70 69 68 66 65 63 61 63 63 65 62 61 59 60 60 59 60 60 59 61 62 62 62 61 60 61 59 60 54 55 58 56 60 61 60 61 63
60 62 69 73 72 72 70 70 68 67 65 64 64 62 63 65 65 63 63 61 59 60 60 60 60 60 61 61 62 62 60 62 60 57 53 55 58 59 60 60 61 61 62
60 62 64 72 71 71 70 69 68 67 65 65 63 63 64 65 67 64 65 62 60 60 60 60 61 61 61 60 60 61 61 62 58 58 55 53 56 59 63 62 61 61 61
61 64 63 70 72 72 70 70 68 68 67 65 63 63 64 66 67 66 65 63 61 61 61 59 62 63 63 62 62 61 61 63 57 58 56 55 57 60 63 63 61 61 61
62 64 63 64 69 72 71 70 70 69 67 66 64 63 65 65 66 66 64 63 63 63 62 62 62 63 63 63 63 62 63 63 58 54 55 56 59 58 61 62 62 62 63
64 64 64 64 65 65 66 70 69 69 68 67 67 67 66 66 65 64 65 64 64 64 64 62 62 61 62 63 62 63 63 63 55 55 54 54 59 61 60 60 62 63 63
62 64 65 64 65 65 65 65 68 68 68 67 66 66 64 58 60 60 63 64 64 64 63 63 63 62 64 64 64 64 63 55 52 51 51 58 59 62 62 61 61 62 62
57 61 63 64 64 65 65 65 64 63 63 61 61 60 58 57 59 61 62 64 64 65 65 64 64 63 63 57 56 61 57 55 54 53 51 59 58 61 61 61 61 61 62
53 57 62 64 65 65 65 64 63 63 62 62 62 61 59 58 58 59 59 59 59 62 59 59 59 57 57 57 57 56 56 56 55 55 55 60 59 61 61 59 61 61 60
52 54 57 61 64 65 65 64 63 63 62 61 61 61 60 59 59 59 58 59 59 59 59 59 58 58 58 58 57 56 56 56 56 56 56 60 59 61 62 61 59 59 61
52 54 55 58 61 64 65 64 64 62 62 61 62 61 61 61 60 60 60 60 60 60 59 59 59 58 58 58 58 57 57 57 57 57 57 59 61 60 62 62 62 60 59
49 49 51 54 57 60 63 64 63 62 62 62 62 62 61 61 61 61 61 60 60 60 60 59 59 59 59 59 58 58 58 58 58 58 57 58 61 60 60 62 63 62 62
46 48 48 50 53 58 61 62 62 62 62 62 62 61 61 61 61 61 61 61 60 60 60 60 59 59 59 58 58 58 58 57 57 57 58 58 58 60 60 61 63 63 63
46 48 51 51 52 56 59 61 60 61 61 61 60 60 60 60 60 61 60 60 60 60 59 58 58 57 57 57 57 57 57 57 57 56 57 56 57 56 59 60 60 62 63
46 50 51 52 54 56 58 58 58 58 58 59 59 60 60 60 60 60 58 56 55 55 55 55 55 55 55 55 55 55 55 56 56 56 56 56 56 56 56 57 60 60 60
48 51 53 55 56 57 58 58 59 59 58 55 52 50 50 46 48 49 46 45 45 46 45 45 45 46 47 48 47 48 52 51 52 53 54 54 56 57 57 57 57 56 59
46 49 53 56 57 57 58 56 53 50 47 46 45 43 42 41 40 42 41 40 41 41 41 41 42 42 41 42 42 43 43 45 46 46 55 50 50 52 56 56 57 57 56
44 45 48 52 55 57 57 53 49 47 46 45 44 42 41 39 38 38 39 39 40 40 40 40 41 41 39 40 39 41 38 40 39 42 43 41 43 45 50 56 57 57 58
44 45 45 48 48 48 47 47 47 47 46 44 42 40 38 36 34 35 35 34 35 36 36 37 36 37 36 36 38 36 38 36 40 40 40 39 41 42 43 47 48 48 50
46 47 46 46 46 46 46 45 44 42 40 40 38 37 35 33 29 27 28 29 30 30 32 32 30 33 35 34 34 33 36 36 37 37 36 38 37 39 41 42 43 43 45
46 47 45 44 43 43 43 42 40 39 38 37 34 32 30 29 26 23 23 26 25 26 27 29 29 31 32 30 31 34 34 35 35 36 35 32 34 32 34 36 38 41 43
46 46 45 42 41 41 40 39 39 37 33 31 29 24 22 20 21 21 21 23 23 24 24 25 27 32 31 27 28 31 33 32 31 28 27 30 30 30 29 34 37 40 42

GFSSE_sfc_dewp_003.txt.gz
Dewpoint
59 65 72 71 71 70 70 69 68 65 63 61 59 62 63 66 63 61 63 63 60 59 61 62 62 65 66 66 65 65 63 63 62 61 62 63 64 63 64 61 61 59 62
58 62 71 71 71 70 70 69 67 65 64 62 59 59 59 59 59 59 61 62 59 59 61 62 62 63 64 64 61 60 60 61 60 61 62 64 65 61 61 59 59 62 64
56 61 68 72 71 70 70 68 66 65 63 61 59 58 57 59 59 61 61 61 60 59 60 61 61 61 62 63 62 61 59 59 60 61 63 57 54 62 60 60 61 62 66
56 61 65 73 71 71 69 68 66 65 63 61 59 59 60 60 60 61 58 59 60 60 60 60 60 60 60 62 62 61 61 59 59 60 56 52 53 61 60 61 60 61 63
56 59 67 73 71 71 69 68 66 65 64 62 60 60 63 63 63 61 60 60 60 59 59 59 59 59 61 61 62 62 62 62 61 60 55 54 56 57 59 60 61 60 61
56 59 71 73 71 70 69 69 67 65 64 63 62 62 62 64 65 64 64 62 60 60 60 60 60 60 60 60 60 61 62 61 62 57 57 54 54 58 60 60 60 61 61
56 60 65 72 70 70 69 69 67 66 64 63 62 62 63 65 66 66 65 64 62 60 60 60 61 62 62 61 61 61 61 64 57 55 56 56 54 57 60 61 61 61 62
57 61 64 71 72 71 70 69 68 67 66 64 62 62 62 66 67 66 66 64 62 62 62 61 61 61 63 63 63 62 62 64 57 54 56 57 60 57 59 61 62 62 61
59 61 61 63 66 72 71 71 70 69 68 66 64 62 63 65 65 65 64 63 63 63 64 62 61 62 61 62 64 63 65 64 59 55 54 55 61 59 59 59 62 63 62
60 61 61 62 63 64 64 70 69 69 68 66 66 66 66 65 65 63 65 64 64 64 63 63 63 62 62 63 63 65 65 64 58 56 55 55 62 59 61 61 61 62 62
60 61 61 61 62 62 62 65 68 68 68 68 66 66 65 58 59 59 63 64 64 64 64 64 64 63 64 64 64 64 65 58 55 54 52 59 60 59 60 62 62 61 62
56 59 61 61 62 62 61 62 63 62 62 61 60 59 58 55 56 59 61 64 65 65 65 64 64 64 64 59 57 63 59 57 56 56 55 61 59 59 60 61 61 62 62
52 56 59 62 62 62 62 62 61 60 60 59 59 59 58 58 58 58 59 59 60 62 61 61 60 60 58 58 57 56 56 56 56 57 58 63 62 60 61 62 62 61 61
50 53 56 60 62 63 62 62 61 60 60 59 59 59 59 58 59 59 59 60 60 60 60 61 60 60 59 59 58 57 57 57 57 58 58 62 64 62 62 62 63 63 62
50 52 54 57 60 62 63 62 61 60 60 59 60 60 60 60 60 61 60 60 61 61 61 60 60 59 59 58 58 58 58 57 58 58 59 61 63 64 62 63 63 64 64
50 51 53 54 57 60 61 62 61 61 60 60 61 61 61 61 61 61 61 61 61 61 61 59 60 58 58 58 57 57 57 57 57 58 58 59 62 64 64 63 64 64 65
46 47 48 50 52 57 60 62 61 61 60 61 61 60 60 61 61 61 61 61 61 60 58 58 56 56 55 55 54 55 56 56 56 56 56 58 59 61 64 64 64 64 64
45 48 51 50 51 55 59 61 60 60 60 60 59 59 60 60 61 61 59 57 54 54 53 52 50 50 50 51 51 53 53 53 53 53 55 55 57 57 60 64 64 64 63
47 49 52 54 54 56 59 59 58 58 58 59 59 58 54 52 53 51 47 45 43 46 45 44 43 44 44 45 45 46 46 49 51 49 50 53 55 57 57 60 62 63 63
50 52 54 55 56 57 57 58 58 55 49 47 45 44 43 41 42 43 41 41 41 43 43 43 42 43 43 43 40 41 45 44 45 46 50 46 45 45 47 51 57 59 61
50 52 54 55 56 57 58 55 51 48 47 45 43 41 39 38 37 39 40 39 40 40 39 38 38 39 39 40 39 41 41 41 40 43 41 40 43 46 44 46 49 55 59
46 50 51 54 56 54 51 51 49 47 45 43 43 39 37 34 34 34 35 34 34 36 35 35 35 35 35 36 35 36 35 36 37 37 38 39 38 42 41 44 46 47 49
44 47 48 48 49 49 49 49 47 46 45 40 39 38 36 31 27 27 29 28 29 33 33 33 32 35 34 35 34 31 32 32 34 37 35 35 34 34 39 38 39 40 41
46 48 46 46 46 45 46 44 42 40 38 38 37 36 33 30 25 22 24 26 26 28 30 32 27 33 34 32 32 26 31 31 31 30 32 33 31 29 31 35 32 32 32
46 47 45 43 42 42 41 40 39 38 37 36 33 31 27 25 23 22 22 25 24 26 27 28 30 31 33 29 28 30 29 32 29 27 25 27 27 28 30 29 31 31 34
47 46 45 41 40 41 40 39 38 37 34 32 29 26 23 21 21 21 21 22 23 24 25 27 28 31 32 29 27 27 24 26 26 24 23 25 27 30 33 31 34 35 36

GFSSE_sfc_dewp_006.txt.gz
Dewpoint
63 69 72 72 71 70 71 69 67 65 64 61 61 64 66 65 62 62 63 63 61 59 62 64 65 65 66 66 65 64 64 64 62 61 62 62 63 63 63 62 60 60 61
64 68 73 72 71 70 70 69 66 65 64 62 60 62 60 60 61 60 61 61 61 58 61 62 64 63 65 64 62 60 60 60 61 61 63 64 64 62 61 59 60 60 65
61 66 69 73 72 71 70 68 66 65 63 62 59 59 58 59 58 61 62 61 59 59 61 61 60 61 62 64 63 63 61 59 59 60 62 61 58 62 61 61 60 61 63
61 65 67 73 72 71 70 68 66 65 63 61 59 62 60 60 60 60 60 59 61 60 60 60 60 60 61 62 63 62 62 60 59 62 60 55 54 63 61 60 60 60 62
57 63 69 73 72 71 69 68 66 65 64 62 60 60 62 63 64 61 60 59 61 60 59 59 59 59 59 60 61 61 61 61 62 61 59 55 55 57 60 60 60 61 60
56 68 71 72 72 71 70 69 67 66 65 63 61 62 62 64 65 65 63 64 62 61 60 60 60 61 61 60 60 59 60 61 64 58 55 57 53 57 59 60 61 61 61
58 68 70 72 72 71 71 69 68 67 64 63 62 62 62 66 66 66 65 64 62 61 60 60 59 60 62 63 62 62 61 63 60 56 55 55 55 56 57 60 61 62 61
59 64 69 71 71 71 70 70 69 68 66 65 63 61 61 64 66 66 66 64 63 62 62 61 61 61 62 63 64 63 64 64 60 56 54 55 59 60 59 59 61 62 62
59 61 64 68 69 71 71 71 70 69 68 67 65 63 64 64 64 65 65 64 63 63 63 64 63 62 61 62 62 64 65 65 62 58 55 54 61 61 61 61 60 61 63
60 60 61 64 65 67 67 69 69 69 68 67 67 66 66 65 65 65 66 66 64 64 63 62 63 63 63 63 63 65 65 65 62 59 57 55 61 60 60 61 61 61 61
59 60 60 61 63 64 64 67 68 68 68 67 66 65 65 62 60 62 63 64 64 63 64 64 64 64 65 65 65 64 64 62 59 56 55 60 63 59 60 60 61 62 62
58 59 60 61 62 62 61 66 65 64 65 64 63 63 62 58 59 59 60 62 64 65 66 65 65 66 65 62 61 62 62 60 58 57 56 62 63 61 61 61 61 62 63
55 58 60 61 62 62 61 63 62 62 62 60 59 58 58 57 58 59 60 61 62 63 62 63 64 64 62 60 58 58 58 58 57 57 58 63 64 62 62 63 64 63 63
51 56 59 60 62 62 63 62 61 60 60 59 59 58 58 59 59 59 59 60 60 61 60 61 61 60 60 60 59 58 58 58 58 58 58 62 65 65 64 64 65 65 64
50 52 55 58 61 62 62 62 61 60 60 60 60 60 60 61 61 61 61 61 61 61 61 60 59 59 58 58 58 57 57 57 57 58 58 61 63 66 66 65 64 64 65
50 53 54 55 59 61 62 62 61 60 60 60 61 61 61 61 61 61 61 61 61 60 60 59 58 56 55 55 54 54 55 55 55 55 56 57 62 64 66 66 65 65 65
47 47 48 50 55 59 61 62 61 60 61 61 61 60 60 61 61 61 60 59 58 56 54 52 50 51 51 51 52 53 53 54 54 54 53 53 56 59 64 66 66 66 66
46 49 51 49 50 57 60 61 60 60 60 59 60 60 58 58 58 52 50 46 46 46 45 44 44 44 44 44 44 44 45 42 43 49 48 49 51 51 58 64 63 64 64
48 51 52 52 52 57 60 59 58 58 55 50 47 45 44 44 44 45 44 42 42 45 44 43 42 43 41 41 40 37 39 43 39 41 42 38 38 41 43 52 58 61 62
51 53 54 56 57 58 58 58 50 47 46 46 44 41 40 40 40 42 42 40 40 41 41 37 36 36 38 39 33 37 36 36 38 39 36 34 38 38 40 41 42 49 56
53 54 55 56 57 58 58 51 49 48 45 44 41 37 36 35 37 36 38 36 36 37 35 32 33 33 35 35 35 31 35 36 35 32 33 37 32 35 33 35 38 36 38
51 53 55 55 52 52 51 50 48 46 44 43 41 37 33 30 30 28 31 31 30 34 32 32 31 34 34 35 32 32 31 27 30 33 34 30 32 30 31 31 26 25 32
48 48 49 49 50 50 48 47 46 47 43 41 40 38 33 27 26 27 28 28 29 31 32 31 31 32 34 33 31 29 28 29 27 32 29 31 25 30 25 27 26 26 27
47 48 47 47 47 47 46 45 42 40 39 39 37 35 31 26 24 25 26 27 27 30 28 29 28 30 32 32 32 27 28 27 26 25 29 26 25 23 25 28 27 29 27
47 45 44 43 42 42 41 40 40 39 38 36 34 29 25 25 24 24 24 25 25 28 27 26 26 27 32 30 29 29 26 27 24 23 24 23 23 24 28 27 29 28 24
46 45 42 41 41 41 39 38 38 36 34 32 28 26 24 25 26 23 23 23 23 24 24 26 24 26 27 28 28 26 25 22 21 22 22 21 22 23 26 26 27 22 22

GFSSE_sfc_dewp_009.txt.gz
Dewpoint
66 71 74 72 72 72 71 69 66 65 63 61 63 67 67 64 63 62 63 62 61 60 62 65 66 66 66 65 65 64 64 63 62 61 61 62 61 61 62 62 59 60 62
68 71 73 72 71 71 71 69 67 65 63 61 61 62 61 62 60 61 61 61 60 60 60 62 63 63 64 64 62 61 60 61 60 60 63 65 63 62 61 60 60 60 62
69 70 71 73 72 71 70 68 66 65 63 61 60 60 60 59 59 62 61 59 59 60 60 60 59 60 61 62 63 63 62 60 59 60 62 61 60 61 62 61 61 60 62
68 69 70 73 73 71 70 68 66 65 63 62 60 62 58 59 59 58 59 61 61 60 59 59 59 58 59 61 62 62 62 60 60 62 60 59 56 60 63 61 61 60 61
66 67 69 73 73 72 70 68 67 66 64 62 61 60 63 63 64 61 60 62 61 61 59 59 59 59 58 58 58 60 61 61 62 62 59 58 55 54 62 61 61 61 61
65 67 72 73 73 72 70 68 67 66 65 63 62 62 62 65 65 66 64 64 63 62 61 60 60 60 61 61 61 60 59 60 64 60 56 55 56 56 57 61 61 62 62
67 69 71 73 73 71 69 68 67 66 65 63 63 62 63 66 66 66 64 64 63 62 62 61 59 60 61 62 64 63 63 64 61 58 55 55 55 60 59 59 61 62 62
68 69 70 72 72 72 71 69 68 67 65 65 62 63 62 64 66 67 66 64 63 62 62 63 62 62 61 62 63 64 65 65 62 59 57 55 58 60 62 61 60 61 62
66 69 69 69 70 71 71 71 70 69 68 66 65 63 65 64 64 65 67 65 64 63 63 64 64 63 63 62 63 64 65 66 63 61 59 57 59 61 62 62 62 62 61
64 65 68 68 69 70 69 70 69 69 69 68 67 66 65 65 65 66 66 66 64 64 64 63 63 63 64 64 64 65 65 65 63 62 60 58 62 62 62 61 62 62 62
60 62 65 67 66 68 67 68 69 68 68 67 66 65 64 62 61 62 64 64 65 63 64 64 64 65 66 66 66 66 65 62 61 60 59 60 62 63 62 63 63 61 62
58 59 61 64 65 65 64 66 66 66 66 65 64 63 63 61 59 60 61 63 64 65 66 65 65 67 66 64 62 63 61 61 60 59 58 61 63 63 63 65 65 64 62
58 59 60 61 62 62 65 65 64 64 64 64 63 62 62 58 57 58 59 60 59 61 62 62 62 64 63 62 61 60 58 60 60 59 59 63 64 64 64 66 66 66 66
56 58 60 61 61 62 62 63 62 63 62 60 60 59 58 59 59 59 59 60 60 61 61 61 61 60 60 59 59 58 58 58 58 58 59 62 65 65 64 66 66 66 66
52 57 59 60 62 62 62 62 61 60 60 59 60 59 60 61 61 61 61 62 61 60 60 59 57 56 55 54 53 53 53 55 55 55 56 60 62 63 63 63 65 65 65
51 54 58 58 62 62 62 62 61 60 59 60 61 61 61 61 61 61 60 58 57 53 50 49 46 47 47 48 45 45 50 51 51 51 50 54 60 61 62 60 62 64 62
47 48 52 56 60 61 62 61 61 60 61 61 60 60 60 61 60 56 45 43 47 46 44 43 42 44 43 42 42 44 41 40 42 43 45 46 50 53 54 54 57 57 62
47 49 49 49 56 61 62 61 60 60 59 55 46 43 43 45 46 44 42 42 43 44 42 41 41 39 40 41 41 36 37 40 37 38 41 34 35 40 46 52 51 54 50
49 50 51 49 54 60 60 56 50 45 44 44 42 41 40 40 41 41 41 39 40 41 38 36 35 35 36 36 32 34 33 34 37 35 35 32 37 33 36 43 50 48 47
51 53 53 53 58 57 48 46 44 43 42 40 38 37 37 36 36 38 37 34 36 36 34 32 30 32 34 34 33 30 31 35 34 30 27 32 30 33 31 31 31 29 42
53 55 56 57 57 52 48 46 44 44 40 38 35 32 31 31 32 31 33 31 33 32 31 30 31 32 33 34 33 26 34 34 29 23 27 33 28 25 29 24 25 25 29
54 55 55 54 53 51 49 48 45 41 41 39 37 29 26 26 27 27 29 29 30 31 29 29 30 32 34 33 31 30 27 27 27 24 29 24 27 25 24 23 24 26 26
49 49 49 49 48 47 45 44 43 43 41 39 36 31 26 24 26 27 27 27 29 30 29 28 29 29 32 32 31 27 26 26 23 28 18 26 18 26 23 27 26 24 30
47 48 49 49 47 46 44 44 40 39 38 38 36 32 26 23 23 25 26 26 26 28 26 26 25 28 29 29 31 28 27 27 26 21 25 20 26 22 24 26 25 29 24
44 43 42 42 42 42 42 40 39 38 37 36 31 27 24 23 23 24 24 24 24 26 24 23 23 24 27 26 28 28 25 26 23 22 20 21 22 23 24 24 29 24 23
43 41 41 40 39 39 39 38 36 34 30 28 25 24 25 25 24 22 21 21 21 22 22 23 22 21 22 24 24 25 24 20 19 21 17 18 21 20 24 24 23 24 22

GFSSE_sfc_dewp_012.txt.gz
Dewpoint
66 71 74 72 72 71 71 68 67 65 63 64 64 67 66 65 64 63 63 61 61 61 61 65 65 67 66 66 65 64 63 62 61 60 61 62 62 61 61 62 61 60 64
68 71 73 73 73 71 71 68 67 64 63 62 63 67 64 63 60 60 61 61 59 60 59 61 62 63 64 64 62 61 60 61 60 60 62 64 63 62 62 62 61 59 62
70 71 71 73 73 71 70 68 66 65 62 62 62 62 61 59 61 61 61 60 60 59 59 59 59 60 60 62 62 62 61 60 59 60 62 61 59 62 62 63 62 61 61
70 71 70 73 72 71 69 68 66 65 63 61 61 60 60 59 62 60 59 60 61 59 58 59 58 57 59 60 61 62 62 61 60 62 60 59 58 61 61 63 63 61 60
69 70 70 73 73 71 70 68 66 65 64 62 62 62 63 62 62 61 58 62 61 61 59 59 59 59 59 59 59 59 60 61 62 62 59 58 57 56 61 63 62 62 61
67 68 71 73 73 72 70 68 67 66 64 62 62 62 63 65 65 65 64 64 63 62 60 60 59 60 61 62 62 62 62 61 64 60 58 55 56 60 60 60 62 62 62
65 68 71 73 73 71 69 68 67 66 65 62 62 63 64 65 66 66 66 64 63 62 61 61 61 60 61 62 63 64 64 65 62 59 58 56 55 61 61 61 60 61 62
66 69 70 72 72 71 70 69 68 66 65 64 63 63 64 64 66 66 65 64 63 62 62 63 62 63 63 62 62 63 65 66 63 60 59 58 59 61 61 62 62 61 61
68 69 70 70 70 71 70 70 69 68 67 66 64 64 65 65 64 66 67 65 64 63 63 63 64 63 63 64 64 64 66 66 63 62 61 59 61 62 61 61 62 62 62
68 68 69 69 70 69 70 70 70 69 69 68 67 66 66 65 64 66 68 67 64 64 64 64 63 63 64 64 65 66 66 65 62 62 62 61 63 64 64 63 62 62 62
66 67 68 68 68 68 68 68 69 69 68 68 66 65 64 62 61 62 64 65 66 65 64 64 64 65 67 66 66 66 65 63 61 61 60 62 64 65 64 64 65 63 62
61 64 66 67 66 67 67 67 67 66 66 65 64 62 63 61 60 59 61 64 66 65 66 65 66 67 66 64 63 64 61 61 61 60 59 62 64 65 65 66 66 66 66
59 62 64 65 64 65 64 66 65 65 64 64 63 62 62 61 58 60 59 59 59 60 61 61 61 61 62 62 62 61 59 59 59 59 60 63 62 63 63 63 65 66 66
57 59 62 63 63 64 64 65 64 63 63 62 63 62 61 58 58 58 59 60 60 61 61 60 56 51 50 51 52 50 51 53 55 57 58 59 59 59 59 60 61 64 66
55 58 60 61 62 62 64 64 63 63 62 61 60 59 59 60 60 61 61 60 56 52 48 46 46 45 44 45 43 44 46 45 46 46 50 55 58 53 53 55 57 59 61
53 58 59 61 62 62 62 62 61 61 60 60 61 61 61 61 61 55 47 48 46 45 43 42 42 41 41 41 40 41 39 39 41 40 43 44 51 49 51 52 53 56 54
52 56 58 60 62 62 62 61 60 60 61 60 53 51 54 54 45 43 43 44 44 41 39 38 36 37 38 37 36 35 35 36 37 37 39 35 39 46 46 46 50 47 47
48 51 53 57 61 62 61 61 60 58 50 45 43 43 42 43 43 41 40 40 40 37 36 34 35 34 34 35 34 33 32 34 36 32 33 32 37 34 38 42 41 41 42
48 50 49 53 60 61 57 50 46 44 42 41 40 39 39 39 39 37 36 37 36 34 33 32 31 33 32 33 32 32 28 32 35 25 23 30 34 33 30 34 37 36 40
50 51 50 52 59 49 46 44 42 39 38 37 36 36 34 33 34 34 32 34 33 32 31 30 28 31 32 33 33 28 28 34 30 19 26 28 27 26 30 21 28 26 39
53 54 53 57 49 47 45 43 41 38 35 34 31 30 30 29 29 30 31 31 32 30 29 28 30 31 32 33 30 28 32 30 24 18 26 20 29 19 26 23 27 25 28
54 55 57 54 49 48 46 44 41 38 37 34 30 26 26 27 27 27 28 29 29 29 27 27 28 29 32 32 28 29 26 27 24 19 23 22 18 22 25 22 26 26 24
52 52 52 50 49 47 44 41 39 38 38 34 30 27 25 25 27 27 26 27 28 28 27 26 26 26 28 30 28 25 23 23 21 25 20 22 18 25 21 27 25 25 28
49 50 49 48 46 44 42 39 36 35 35 36 32 27 24 23 25 25 25 25 25 26 23 24 23 25 25 24 29 26 26 25 22 20 24 19 23 17 23 25 25 27 24
47 47 47 46 45 44 43 40 39 37 37 35 29 24 21 22 23 23 23 22 22 25 22 21 21 20 24 22 25 26 23 24 24 23 17 19 17 19 22 21 26 24 23
43 43 43 43 42 42 40 39 37 34 31 28 26 25 25 23 23 20 20 19 19 20 21 22 20 19 19 20 21 21 22 20 17 17 17 16 15 18 20 21 23 21 24

GFSSE_sfc_dewp_015.txt.gz
Dewpoint
65 68 74 72 72 71 70 68 67 65 64 64 64 66 68 66 65 64 63 62 61 60 61 65 66 67 67 66 66 65 63 61 60 61 61 61 62 61 60 62 62 60 64
66 70 74 73 72 71 70 68 66 64 64 63 64 66 66 64 63 61 62 60 60 58 58 62 63 63 65 65 62 61 61 60 60 61 62 63 62 61 61 62 61 59 62
68 72 72 73 73 71 70 68 66 64 63 62 63 66 61 60 58 60 61 59 59 59 58 59 60 61 61 62 63 62 62 60 60 60 62 59 59 62 62 62 62 61 62
70 71 71 74 73 71 69 68 66 64 62 62 62 62 60 59 60 60 59 59 60 59 58 58 58 58 58 59 60 61 61 62 61 62 59 58 57 60 62 62 63 63 62
69 71 70 73 72 71 69 68 66 65 63 61 62 61 60 60 60 60 60 61 61 60 59 59 59 60 60 60 60 59 59 59 63 62 60 58 56 59 61 63 62 62 63
68 69 71 73 73 72 69 68 67 65 63 62 63 63 63 64 64 63 64 64 62 62 60 60 59 59 60 62 63 63 62 63 64 59 58 57 57 59 61 61 61 62 62
67 68 71 73 73 71 70 68 67 66 64 62 62 63 64 64 65 66 66 64 63 62 61 60 61 61 61 61 62 62 62 63 63 60 59 58 56 61 61 62 62 61 60
66 68 71 72 73 72 70 69 68 66 65 63 62 63 64 64 66 66 66 64 64 62 62 62 63 63 63 63 62 62 64 65 63 61 60 59 61 63 61 61 62 63 62
66 68 70 71 71 71 70 69 69 67 66 65 64 64 65 65 65 66 66 65 64 64 63 63 64 63 63 63 64 65 66 66 63 62 61 61 62 64 64 63 63 63 63
67 68 69 69 70 69 69 70 69 68 68 68 66 66 66 65 65 66 68 67 65 64 64 64 64 63 64 65 65 66 66 66 63 61 61 61 64 65 65 65 65 64 64
67 67 68 69 69 69 69 68 69 69 68 67 66 65 64 61 61 62 64 65 66 65 65 64 65 65 67 66 66 66 65 63 62 61 60 62 64 65 66 66 66 65 65
65 65 67 67 67 67 68 67 67 67 66 65 64 62 62 61 59 58 61 64 65 66 66 65 65 65 64 63 63 62 60 59 59 60 60 62 60 62 62 62 63 63 64
64 64 67 66 66 66 66 66 65 65 65 64 63 62 61 61 59 60 59 59 60 60 60 61 60 56 51 52 51 50 51 52 54 55 56 56 57 58 58 58 59 61 62
58 62 64 65 64 65 64 65 65 64 63 63 63 62 61 60 57 58 59 60 61 61 53 48 47 45 43 42 43 43 43 44 45 47 49 54 53 53 55 57 57 60 61
54 59 62 64 64 64 64 64 63 63 63 62 62 62 61 58 59 60 54 48 47 46 44 43 41 39 38 38 38 37 37 37 39 41 42 51 49 51 51 53 55 54 54
41 56 60 62 63 63 64 63 63 63 62 61 60 60 61 61 53 46 46 45 43 42 40 37 36 36 35 35 33 34 32 33 37 34 37 37 45 45 48 50 48 48 49
47 52 59 61 62 62 63 62 62 61 60 57 54 56 55 45 43 44 43 42 39 37 33 32 33 33 32 32 31 32 29 33 36 27 31 34 37 40 44 43 43 44 46
50 56 59 61 62 62 62 61 61 55 47 45 44 44 42 42 41 40 39 38 34 33 32 30 33 32 30 31 30 32 28 32 29 22 26 31 32 30 36 38 39 39 43
49 53 57 61 62 61 57 52 48 44 42 41 40 40 39 37 36 36 36 34 32 31 31 29 29 32 30 29 29 31 27 31 27 18 25 23 29 26 30 31 36 36 38
49 50 51 60 59 50 45 43 41 39 38 37 36 35 33 33 31 33 33 31 30 30 29 27 27 29 32 30 30 28 27 33 25 21 25 20 26 21 28 23 28 28 36
50 50 50 56 50 47 45 42 41 37 34 32 30 29 29 29 29 29 31 30 30 29 27 26 28 28 30 31 29 28 29 28 25 20 25 21 20 21 26 21 26 26 29
52 52 55 50 48 47 45 42 39 35 33 29 29 27 27 27 27 27 29 29 27 26 25 25 26 26 28 31 27 28 23 23 24 16 22 23 19 23 25 18 25 25 26
53 54 52 49 47 45 41 38 35 32 31 29 26 26 25 26 27 27 26 27 26 26 25 24 25 23 24 25 27 20 16 20 23 23 16 22 16 23 19 24 25 23 26
52 53 50 48 45 42 40 37 33 31 30 31 28 24 24 24 24 25 25 24 24 24 22 22 22 23 23 21 26 24 24 23 21 19 22 16 21 17 19 24 24 24 26
50 50 48 46 44 42 39 37 36 34 34 31 25 22 20 22 22 22 22 21 21 23 21 19 19 18 22 20 23 23 22 23 23 23 14 17 17 16 16 19 23 23 23
47 47 46 44 43 41 39 38 35 34 30 26 24 23 22 22 22 19 19 19 18 19 19 20 18 17 17 18 19 19 20 18 18 17 16 15 14 13 17 18 19 23 22

GFSSE_sfc_dewp_018.txt.gz
Dewpoint
64 67 75 73 72 71 70 68 66 65 64 63 64 66 68 66 65 64 63 62 60 60 62 66 67 68 67 67 67 65 63 62 61 61 62 62 61 61 61 61 61 61 61
64 68 73 73 72 71 69 68 66 65 65 64 64 66 67 65 64 63 62 60 60 58 60 63 63 64 66 65 63 62 61 61 61 61 63 62 61 62 61 62 62 60 61
65 69 72 73 73 71 69 68 66 64 64 63 65 67 63 61 58 59 61 59 58 59 58 60 60 61 62 62 63 63 62 61 61 61 62 59 59 60 62 63 63 62 61
68 71 71 73 73 71 69 68 66 64 62 62 65 64 59 60 59 58 59 59 59 60 59 59 58 58 58 58 59 60 60 60 61 62 60 58 57 60 61 62 63 63 62
70 71 71 74 73 71 70 68 66 64 62 62 61 62 61 60 62 61 60 61 61 60 59 59 59 60 60 61 61 60 60 60 62 61 59 58 57 58 60 61 63 62 62
68 69 72 73 73 72 70 68 67 65 63 62 63 63 62 62 62 61 63 64 63 61 60 59 59 59 59 61 62 60 61 62 65 59 58 58 58 59 59 61 61 60 61
67 68 71 73 72 71 70 68 67 65 64 62 63 63 64 63 64 65 65 64 63 62 61 60 61 61 62 61 61 62 63 66 62 60 60 59 58 63 61 61 62 62 61
67 68 71 72 72 72 70 69 67 66 65 63 62 63 63 64 66 66 66 65 63 62 62 62 63 63 63 63 63 64 64 65 63 61 60 60 62 64 64 63 61 62 63
67 68 70 71 72 71 71 70 69 67 67 64 64 64 65 65 65 66 66 64 64 63 63 63 64 64 63 64 65 65 66 66 63 62 61 61 63 65 66 65 65 64 64
66 67 68 70 70 69 69 69 69 68 68 67 66 66 66 66 65 65 68 67 65 64 64 65 64 64 65 66 66 67 66 65 63 62 61 60 64 66 66 66 66 66 66
66 66 68 68 68 68 68 68 69 68 68 67 66 65 64 61 60 61 64 65 65 65 65 65 66 66 65 64 64 61 60 59 59 60 60 62 60 62 63 63 63 64 65
65 66 67 67 67 67 68 67 67 67 66 65 64 62 61 59 59 58 60 63 64 64 63 64 64 60 56 55 52 53 49 51 52 54 55 57 57 58 59 59 60 61 62
63 65 67 66 66 66 67 66 65 65 65 64 62 61 61 60 59 59 59 59 59 60 60 54 48 46 44 44 44 43 43 44 44 48 50 54 54 55 57 57 60 59 61
61 64 66 66 66 65 65 65 65 64 64 63 62 61 60 60 57 58 59 60 55 48 45 44 41 39 38 37 38 36 35 37 40 42 43 52 53 53 54 57 55 54 55
55 60 64 65 65 65 64 64 64 63 63 62 62 62 61 59 59 58 47 46 44 42 40 37 36 33 33 32 33 32 27 35 33 34 37 49 47 50 52 50 50 51 51
46 53 61 64 65 64 64 63 63 63 63 62 62 62 60 61 52 47 44 42 40 37 34 34 32 30 30 30 29 31 27 35 29 27 33 36 43 46 46 46 47 47 49
40 40 59 62 64 64 63 63 63 63 62 61 60 61 55 47 45 44 41 38 36 33 29 31 31 29 27 27 26 31 27 33 22 25 28 32 33 39 41 43 43 43 45
43 50 58 61 63 63 63 63 61 61 54 51 48 46 43 42 42 39 36 34 31 30 29 29 32 29 26 27 25 29 27 32 19 22 23 30 29 26 34 37 38 39 41
46 51 58 60 62 62 61 57 50 50 46 45 43 41 38 37 37 35 33 31 30 29 28 27 28 31 27 26 24 28 26 31 22 19 22 25 22 24 28 30 34 35 36
48 52 58 61 61 54 48 48 43 41 40 40 37 35 32 32 33 32 30 29 28 28 26 25 25 27 31 29 27 24 27 32 24 21 24 20 20 21 27 22 26 28 33
49 50 58 58 51 48 46 46 43 39 35 32 31 30 29 28 30 30 30 28 28 26 24 24 25 25 27 29 25 25 27 27 27 24 23 20 21 21 25 20 23 26 27
49 50 56 53 50 49 47 44 42 35 31 30 30 28 28 27 28 28 27 26 24 24 23 23 23 23 24 28 23 26 20 19 22 18 21 21 18 20 23 18 21 24 25
50 51 53 50 47 45 40 39 33 29 28 28 26 27 27 26 27 26 25 25 24 25 24 23 23 21 22 22 27 16 13 14 23 22 20 23 16 20 21 21 22 22 23
51 53 50 48 45 41 40 40 34 31 27 28 26 25 24 24 25 25 24 23 23 24 21 21 20 22 21 20 23 22 21 22 19 18 20 17 19 16 19 20 18 22 23
52 51 49 46 44 41 40 40 36 32 29 26 24 22 21 21 22 22 21 21 21 23 20 18 18 17 21 19 21 21 20 21 22 22 14 17 16 16 16 16 20 21 19
50 49 47 45 41 40 39 37 35 29 24 23 22 21 22 22 22 19 19 19 18 19 18 19 17 16 17 17 18 18 18 16 16 17 16 14 15 15 16 17 17 20 23

GFSSE_sfc_dewp_021.txt.gz
Dewpoint
64 67 74 74 72 71 69 68 66 65 64 64 65 67 68 67 65 64 63 62 61 61 64 66 68 67 66 68 67 65 64 62 62 62 62 62 60 60 60 61 61 60 61
64 68 74 74 72 71 69 68 66 66 65 64 64 66 67 66 65 64 61 60 59 59 62 63 64 65 67 66 64 64 63 61 61 62 63 61 61 61 60 61 62 60 60
65 69 70 73 73 71 69 68 66 65 65 64 66 67 64 61 58 59 61 59 59 59 59 61 61 62 63 63 63 63 62 62 61 62 62 59 58 60 61 63 63 63 61
67 69 69 73 73 71 69 68 66 64 64 63 67 66 62 60 58 59 60 60 60 60 59 59 59 59 59 59 58 59 59 59 61 63 58 57 57 58 60 61 62 63 63
67 70 70 74 73 71 69 68 66 64 63 63 65 64 60 61 60 59 60 61 61 60 59 59 60 60 61 61 61 61 61 61 62 61 60 59 59 56 59 61 62 64 64
69 71 72 73 73 72 70 68 67 64 63 63 62 62 62 62 62 62 63 64 62 61 60 60 60 60 60 61 61 62 61 63 64 62 62 61 61 60 61 60 62 61 61
70 70 70 73 73 72 70 69 67 65 63 63 63 63 62 63 63 65 66 65 63 61 61 61 62 62 63 63 62 62 63 65 61 61 61 61 61 64 64 63 61 62 62
69 70 71 72 72 72 70 69 67 66 64 63 64 63 63 64 67 65 66 65 64 62 62 62 63 63 63 63 64 64 65 66 62 62 62 62 63 65 65 65 65 63 63
69 69 70 70 71 71 70 70 69 67 66 65 65 64 65 65 66 67 66 65 64 63 63 64 64 64 64 65 65 66 66 66 63 62 62 62 62 65 66 66 66 66 65
67 68 69 71 70 70 68 69 69 69 68 66 66 66 66 65 64 66 67 67 65 64 64 65 65 66 66 66 64 62 62 62 60 61 61 60 63 63 64 64 63 65 66
65 67 69 70 70 70 69 67 68 68 67 66 65 64 64 63 61 61 63 65 64 64 65 65 65 63 60 57 56 54 55 51 54 54 54 58 58 59 61 60 61 62 63
64 65 68 69 70 70 68 68 67 67 66 65 64 63 62 61 59 59 60 62 62 63 63 62 55 52 50 46 45 47 43 43 46 47 52 57 57 57 58 59 61 61 63
64 65 67 69 69 69 68 68 67 67 66 65 65 63 62 61 60 60 60 60 61 60 50 46 43 42 42 41 40 38 37 42 43 41 51 54 56 57 56 58 57 56 57
62 65 67 67 68 68 68 67 67 66 66 65 64 63 62 61 59 59 60 56 49 47 42 42 38 35 34 34 35 28 31 38 34 39 46 51 52 54 55 54 53 53 56
57 62 65 67 67 67 67 67 66 65 65 65 64 63 62 60 59 54 48 45 43 40 38 36 32 29 28 28 31 27 35 32 27 35 38 49 50 50 50 51 50 51 53
52 56 62 66 67 67 67 66 65 65 65 64 63 63 62 61 53 48 44 42 37 35 34 31 27 27 25 24 29 28 31 30 27 33 31 38 45 45 46 47 47 47 49
43 44 53 62 66 66 66 65 64 64 64 63 63 62 61 52 47 44 40 37 34 31 29 31 29 26 24 22 23 29 27 23 26 23 31 30 30 40 41 42 42 42 43
42 42 44 56 64 65 65 64 63 64 63 61 59 53 48 46 44 39 36 34 31 30 29 28 30 28 24 24 22 27 26 30 21 24 27 24 29 27 32 37 36 38 40
42 43 50 58 63 64 64 63 63 59 55 53 48 44 43 41 38 35 33 31 28 28 28 25 26 29 24 24 22 25 25 31 24 23 21 25 26 27 27 28 32 32 34
44 48 52 59 62 63 59 56 54 47 45 44 43 38 37 35 33 32 30 28 27 27 25 25 23 27 26 25 21 19 30 34 27 25 25 19 24 25 24 25 23 22 30
47 50 56 60 62 56 53 52 49 47 40 37 35 33 32 31 30 30 29 27 27 25 24 21 25 23 24 25 21 22 25 27 28 28 23 20 24 21 24 23 19 19 19
47 51 59 60 56 55 54 52 49 45 36 33 33 30 30 30 29 28 27 26 25 24 24 23 23 23 23 26 19 23 18 16 21 17 22 22 20 20 19 18 18 18 20
48 51 58 55 53 52 48 42 39 36 31 30 29 29 28 28 27 26 26 24 25 26 24 24 24 23 20 23 25 13 15 13 17 20 18 20 18 17 18 18 17 17 17
48 52 56 52 49 46 46 44 43 40 34 30 29 28 27 26 25 24 25 24 24 24 23 22 21 23 22 20 22 18 20 18 15 12 18 17 17 14 17 17 16 16 18
50 53 53 49 47 45 46 46 48 39 30 27 26 24 23 24 24 23 23 23 22 23 21 21 21 20 22 18 20 20 19 19 19 19 12 14 15 16 17 17 17 17 17
52 52 51 48 45 44 45 45 41 32 26 25 24 23 22 22 22 21 21 21 21 21 21 21 21 21 20 19 19 18 17 14 12 14 13 14 15 15 17 17 17 16 18

GFSSE_sfc_dewp_024.txt.gz
Dewpoint
62 68 74 72 72 71 69 68 66 66 65 65 67 69 68 67 65 64 63 63 61 62 65 67 68 64 65 68 66 65 63 62 62 63 62 61 60 59 60 61 61 58 61
63 68 75 74 72 71 69 68 66 66 65 64 65 68 68 67 65 64 61 61 59 59 62 64 65 67 67 66 65 63 63 62 62 63 61 60 59 61 60 61 62 59 60
63 67 70 73 73 71 69 68 67 66 64 64 65 67 65 61 59 63 61 59 60 59 60 62 62 62 63 63 63 63 62 62 61 62 61 55 55 59 62 62 63 63 62
63 67 67 73 73 71 69 68 66 66 64 66 67 65 62 59 58 60 60 61 61 60 59 59 60 60 59 59 59 58 59 59 61 62 55 51 51 55 60 61 62 63 63
64 66 67 73 72 70 69 68 66 65 63 66 67 64 62 60 59 60 61 61 61 60 60 60 61 61 61 62 62 62 61 61 62 61 59 59 59 55 59 60 62 63 64
63 66 72 73 73 72 70 68 66 64 64 65 64 63 62 61 61 61 61 63 62 61 61 61 61 61 61 61 61 63 63 64 64 59 60 60 60 62 64 62 61 62 62
64 65 68 73 73 72 70 68 66 64 63 63 63 63 63 63 63 63 65 64 63 61 61 61 62 62 63 63 63 63 63 64 61 60 60 61 61 63 65 65 64 62 63
64 66 66 72 72 72 70 69 67 65 64 64 64 63 64 64 67 66 65 65 64 62 62 62 63 64 63 63 64 65 65 66 61 60 61 61 63 65 66 65 66 66 65
63 65 65 69 70 71 71 70 69 67 66 66 65 64 65 64 67 67 66 65 64 63 63 64 65 65 65 66 66 66 65 65 60 59 59 59 64 65 65 65 65 65 66
64 64 64 67 67 67 68 69 69 68 67 67 66 66 66 64 64 67 67 66 65 64 65 65 66 66 65 61 59 58 58 61 57 58 58 58 60 61 62 62 62 63 64
63 64 65 64 65 67 65 66 68 68 67 66 64 65 64 60 59 60 64 65 64 65 64 65 62 60 57 56 53 51 54 50 51 52 53 58 58 59 59 61 62 63 64
61 62 64 65 65 66 65 65 64 63 63 60 59 59 58 57 57 57 61 62 63 63 62 57 53 49 54 49 48 51 45 45 46 46 50 56 57 57 59 60 58 58 60
59 61 64 65 66 66 65 65 63 63 62 61 61 60 58 56 57 58 59 59 61 60 53 46 47 45 44 43 42 37 37 40 39 42 49 53 54 55 58 56 56 55 59
58 62 63 66 67 67 65 65 63 62 62 61 61 59 57 57 58 58 59 58 54 48 44 44 43 39 36 33 32 28 31 34 32 38 46 52 54 54 54 54 53 55 55
55 59 63 65 67 67 66 65 63 62 63 62 61 59 59 58 58 59 54 50 44 42 42 42 38 32 28 26 28 26 29 30 28 34 39 51 50 50 50 50 50 51 52
50 54 59 64 66 66 66 65 64 62 62 63 61 60 60 60 58 51 47 41 38 37 35 33 29 27 25 23 25 26 25 29 29 33 33 40 45 46 45 46 45 45 46
43 45 52 59 63 65 65 65 64 62 63 62 60 61 61 60 51 47 42 38 34 31 29 30 28 27 26 23 22 25 24 25 27 27 31 30 33 41 41 41 40 41 42
44 44 44 48 57 62 64 65 64 62 63 62 61 61 61 52 47 43 39 35 31 30 29 29 29 29 26 24 23 24 24 26 23 24 25 24 28 25 30 35 36 37 38
43 44 44 47 49 57 62 64 63 62 63 62 61 57 53 47 42 38 35 31 29 29 29 25 27 26 24 24 21 21 24 25 26 22 24 26 27 27 26 24 29 28 32
42 43 44 46 51 57 61 63 63 63 61 58 53 49 45 42 37 35 32 29 28 29 27 26 24 24 24 23 19 20 30 32 28 27 27 18 22 25 24 26 25 22 27
44 45 46 48 53 58 60 62 61 58 57 52 45 43 41 35 33 33 31 29 29 28 25 22 23 24 24 23 23 24 25 25 27 29 27 19 24 22 22 20 18 18 19
43 45 47 51 56 59 60 59 59 57 55 50 41 36 36 33 31 30 31 29 28 27 26 24 24 25 23 24 19 24 21 19 20 22 21 21 17 20 18 18 18 19 20
43 46 49 54 58 59 58 59 54 46 43 39 36 32 32 30 29 30 30 28 28 28 27 26 25 24 23 24 22 13 17 18 16 19 19 16 18 16 17 19 19 19 19
43 49 51 57 57 58 58 51 48 48 47 43 34 31 32 33 29 27 27 26 26 26 25 24 21 23 22 22 23 16 18 15 15 14 17 17 16 15 18 19 18 18 19
44 50 53 57 57 55 53 53 53 51 47 37 31 28 28 27 27 26 25 26 24 23 23 22 22 21 21 18 21 20 18 18 16 17 15 15 15 16 18 18 18 17 17
45 52 54 55 54 53 54 53 54 49 40 30 27 25 26 27 25 24 24 24 23 23 23 22 23 22 22 20 19 18 15 14 12 13 13 14 15 16 17 18 18 17 17

GFSSE_sfc_dewp_027.txt.gz
Dewpoint
61 69 74 72 71 70 69 68 67 66 66 68 69 69 68 67 65 64 63 62 61 64 66 67 69 65 67 68 66 65 64 63 63 63 61 59 60 60 60 62 62 59 62
63 68 74 73 71 70 69 67 66 66 65 65 67 69 68 66 65 63 63 60 60 61 64 65 66 68 68 67 65 65 64 63 63 63 63 61 59 61 61 62 63 60 62
63 68 70 73 73 71 69 67 67 66 65 64 66 68 65 63 63 63 61 61 60 60 62 63 63 63 63 63 63 63 62 62 62 63 63 56 54 59 60 62 63 63 63
64 66 68 73 73 71 69 68 67 65 65 65 67 65 62 60 61 61 62 62 60 60 60 61 61 61 61 61 61 60 60 60 61 62 58 53 52 58 57 60 62 64 63
63 65 68 73 72 71 69 67 66 65 65 67 66 64 62 60 61 62 62 63 61 60 61 61 61 62 62 62 63 62 62 62 64 64 58 60 59 61 61 60 60 63 64
62 64 71 72 72 71 69 67 66 64 64 68 66 65 62 61 60 60 62 64 61 61 62 62 62 62 62 62 62 62 62 63 65 59 59 60 60 63 64 63 63 62 62
61 66 69 73 72 71 69 68 66 64 65 65 64 62 62 62 62 63 64 64 62 61 62 62 63 63 63 63 63 64 64 64 61 60 59 60 63 64 65 66 65 65 64
61 64 68 72 72 71 70 68 66 65 64 64 64 63 65 64 65 65 66 65 63 62 62 63 64 64 64 64 65 65 65 66 61 60 61 60 64 64 65 66 66 66 66
61 62 66 68 70 71 70 70 68 67 66 66 65 64 66 65 68 67 66 65 64 63 64 65 65 65 66 66 64 63 63 64 60 58 57 58 63 62 63 64 63 63 65
61 61 63 67 69 68 67 69 69 68 67 67 67 67 66 64 68 68 67 66 65 65 65 66 66 65 63 59 57 55 58 61 55 56 55 56 60 60 61 62 63 64 65
60 61 61 64 66 66 66 66 68 68 67 66 65 66 64 60 61 64 65 65 65 65 64 63 60 59 58 57 53 53 56 50 49 49 52 58 58 58 61 62 61 60 62
59 60 61 61 63 65 65 66 64 63 62 58 57 61 59 58 58 58 61 63 64 64 60 56 52 52 55 50 50 52 45 43 43 44 52 57 58 58 61 59 58 58 60
58 59 61 62 62 65 64 65 62 62 61 58 56 56 55 55 57 57 60 59 61 61 55 51 50 47 46 45 44 38 35 38 37 40 50 54 56 59 57 56 56 57 57
55 58 61 62 63 64 65 64 61 60 60 59 59 57 55 54 55 55 56 61 57 53 49 48 47 43 40 36 32 30 30 35 31 37 49 55 54 54 54 54 53 55 54
52 57 60 62 64 64 64 63 62 59 59 60 60 57 53 55 56 56 58 54 51 47 46 46 43 39 32 28 27 28 25 30 28 33 44 52 50 50 50 50 49 49 49
50 53 57 60 64 64 64 63 61 60 60 62 60 58 56 56 57 57 54 49 43 42 39 38 34 30 28 27 26 26 25 27 27 31 34 43 46 45 45 45 44 44 44
43 48 52 58 61 63 63 63 62 61 60 63 60 58 58 59 58 54 48 42 38 36 35 34 30 30 30 27 26 25 26 25 27 25 32 35 41 41 39 40 40 40 41
44 43 44 52 58 62 62 63 62 61 60 63 60 59 59 59 54 50 46 40 35 38 34 32 31 31 29 29 26 27 27 26 24 24 28 28 32 27 37 34 33 34 36
42 44 45 46 50 56 60 61 61 61 61 62 61 59 60 56 51 47 42 37 33 34 33 29 30 28 28 30 27 26 28 30 30 23 25 27 29 31 31 30 27 31 29
38 42 44 46 46 49 56 60 61 61 62 63 61 61 58 50 44 41 37 36 34 34 32 30 28 28 28 26 22 24 32 33 33 31 26 25 24 28 29 31 31 28 31
39 41 42 44 47 48 54 58 60 61 64 64 61 56 51 46 40 38 37 35 34 34 31 28 28 29 29 27 30 32 31 26 27 30 32 27 26 27 25 26 25 24 24
40 42 43 44 47 50 56 60 62 63 61 61 56 51 44 41 37 35 36 34 33 33 30 29 29 30 28 27 23 30 28 24 23 26 25 22 22 24 23 22 22 24 26
40 43 44 45 49 54 57 61 61 54 50 48 48 45 41 37 34 35 36 33 33 35 33 32 32 29 29 29 24 17 25 25 21 26 25 23 21 23 22 24 22 23 23
39 47 47 47 51 56 59 59 58 51 48 47 45 41 36 32 33 33 34 33 32 32 31 30 26 27 27 27 27 18 20 18 19 18 24 23 22 17 21 23 21 22 22
37 47 50 50 53 57 58 59 58 51 53 46 41 36 31 31 32 33 32 31 30 31 28 26 27 25 24 20 23 23 19 22 19 20 19 21 20 21 21 21 21 21 20
39 46 52 51 55 57 58 57 54 54 49 40 37 34 31 33 32 31 31 30 29 28 28 28 27 26 23 22 20 19 17 16 15 16 16 18 18 20 21 21 21 21 22

GFSSE_sfc_dewp_030.txt.gz
Dewpoint
68 71 74 72 71 70 69 69 68 69 70 70 70 69 68 66 66 64 62 62 64 66 66 69 68 68 69 68 67 65 65 64 64 63 62 60 60 61 61 62 63 61 61
68 71 73 73 71 70 69 68 67 67 68 68 69 69 67 67 65 64 62 61 62 65 66 66 67 68 68 67 66 65 64 64 63 63 64 64 63 61 63 63 64 62 62
68 70 71 73 72 71 68 67 67 66 66 66 69 69 67 65 64 63 62 61 60 62 64 64 63 63 63 63 62 62 61 61 61 61 64 61 59 60 59 61 63 63 62
68 69 70 73 72 70 68 67 66 65 65 67 67 64 63 62 62 63 62 61 61 61 62 63 63 63 63 63 62 62 62 62 62 65 62 58 57 61 57 59 61 63 64
67 67 71 73 72 70 68 68 66 66 67 68 68 65 62 62 63 63 64 61 61 61 62 62 62 62 62 63 63 63 63 63 66 65 61 58 59 63 63 62 61 62 63
65 68 72 73 72 71 69 67 66 65 68 67 67 66 64 62 62 63 65 62 62 63 63 64 64 64 64 64 63 62 62 63 66 61 59 61 62 64 65 65 65 64 62
67 69 71 72 72 71 68 67 66 64 68 65 64 63 62 63 63 63 65 64 62 63 63 64 64 65 64 64 64 64 64 66 63 61 59 62 63 64 65 65 66 66 66
68 68 69 71 72 71 69 68 67 65 67 67 66 65 65 65 64 65 66 64 63 63 64 65 65 65 65 65 65 66 66 66 62 60 59 61 64 63 63 65 64 64 65
66 68 68 69 70 70 70 69 68 67 67 67 67 67 65 68 68 67 66 65 64 65 65 66 66 65 66 64 62 61 62 62 60 58 56 58 63 61 63 63 64 65 66
62 66 67 68 69 68 68 69 68 67 67 68 67 68 65 67 68 68 67 66 65 66 66 66 66 65 62 59 55 55 58 59 56 53 55 58 61 60 62 63 62 62 63
61 61 66 68 68 67 67 67 68 68 66 66 66 66 64 62 65 65 66 66 67 65 65 63 62 61 60 60 58 57 57 48 46 52 56 60 59 61 62 60 59 62 61
59 60 63 67 67 66 65 66 65 65 64 62 62 64 62 60 61 62 63 65 66 65 62 59 55 57 58 52 51 54 39 38 42 50 54 57 56 59 60 58 58 59 60
58 59 60 63 64 65 64 65 64 63 62 58 57 61 59 58 59 60 60 62 62 60 55 53 51 48 43 42 38 34 34 37 35 48 53 59 59 58 57 56 56 57 56
58 59 61 61 63 65 64 65 63 62 61 58 56 57 56 57 57 57 59 60 60 58 49 48 46 42 39 31 31 29 27 34 30 47 53 56 55 55 54 53 53 53 52
55 58 60 61 63 64 64 64 63 60 60 60 59 57 56 55 55 56 58 54 50 48 48 46 41 36 29 27 27 27 25 28 27 41 49 54 51 51 50 50 49 48 47
49 56 59 61 63 64 64 63 63 60 60 60 60 59 55 56 56 58 52 49 44 42 40 37 30 30 29 28 27 25 25 26 26 32 44 47 48 47 45 44 43 43 43
43 52 57 60 63 63 64 64 62 62 60 62 60 58 56 58 57 54 48 44 41 39 37 34 31 32 31 28 27 26 25 25 25 25 35 40 42 44 39 37 38 38 39
44 45 52 58 61 63 63 63 62 61 61 63 62 58 57 59 54 49 45 41 37 36 36 34 32 32 30 29 27 26 26 26 24 24 25 28 34 34 37 34 32 34 34
42 44 46 55 59 61 62 63 62 61 61 62 62 58 58 56 52 48 43 38 34 36 35 31 30 30 28 29 26 23 29 29 28 23 24 25 28 29 28 32 30 35 32
38 42 45 47 53 59 62 62 62 61 61 62 60 60 58 53 49 43 38 36 37 36 33 31 29 29 28 27 25 26 29 31 30 27 26 26 24 26 26 26 28 27 33
39 38 41 46 46 49 54 59 60 60 62 63 62 60 53 46 41 38 39 36 36 35 33 29 29 29 29 28 29 29 29 25 28 30 30 30 25 24 24 24 23 24 25
40 40 39 43 46 46 48 56 60 63 63 62 60 55 49 43 39 36 36 36 35 32 29 29 30 30 29 27 23 26 26 26 25 25 27 21 20 21 21 20 20 21 22
39 40 41 42 44 47 50 58 59 57 53 52 52 49 46 45 38 36 36 35 34 35 33 31 29 28 29 27 23 20 22 23 20 24 21 23 18 21 20 21 21 21 21
33 40 42 44 44 49 55 59 58 58 55 51 49 47 44 37 35 36 35 34 35 35 32 30 29 27 27 27 26 20 20 18 19 18 23 22 22 16 20 22 21 21 20
33 40 43 44 46 50 54 59 59 55 51 46 43 38 36 37 34 33 33 33 32 34 27 26 26 25 24 24 24 24 20 22 20 20 19 20 21 21 21 21 21 21 20
34 37 45 46 47 54 57 60 56 53 47 44 40 35 36 42 40 33 32 32 31 30 29 28 26 24 23 23 22 20 19 18 17 17 17 17 18 19 21 22 21 22 21

GFSSE_sfc_dewp_033.txt.gz
Dewpoint
69 71 74 72 71 70 70 71 71 71 71 71 70 68 68 66 65 63 62 65 66 66 68 68 69 69 68 68 67 66 65 64 63 62 61 60 61 62 62 64 63 61 60
71 71 73 72 71 70 69 69 69 70 71 70 70 68 67 66 65 63 61 63 66 66 67 69 69 69 68 67 66 65 64 62 61 61 63 63 64 61 62 63 64 62 62
71 71 71 72 72 70 69 68 67 67 68 69 69 68 67 65 64 62 61 61 64 65 65 65 65 65 64 63 62 61 60 60 60 62 65 60 59 58 58 59 62 64 62
70 70 70 72 72 70 68 68 67 66 66 69 69 66 65 64 63 62 61 61 62 64 64 63 63 64 64 63 63 63 62 62 63 66 62 58 57 62 59 58 60 63 64
70 70 71 72 71 69 68 67 66 66 69 69 67 65 64 63 64 63 62 61 62 62 62 62 63 63 63 63 64 63 63 63 65 64 61 58 61 63 64 63 62 61 62
68 70 72 72 71 70 70 68 68 68 69 68 67 66 65 65 65 65 63 63 63 63 64 64 64 64 64 64 63 62 62 64 66 61 60 63 62 64 65 65 65 65 64
68 70 71 72 72 71 70 69 68 69 69 67 66 64 64 63 64 66 64 63 63 64 65 65 65 65 65 65 65 64 65 66 63 61 61 63 63 63 65 65 65 65 65
69 70 70 71 71 71 69 68 68 69 68 67 67 65 65 65 65 66 65 63 64 65 65 66 66 65 66 66 66 65 65 65 62 59 59 60 65 62 64 64 65 66 66
68 69 69 70 70 70 69 68 68 69 68 67 68 67 66 67 68 67 66 64 65 65 66 66 66 66 66 64 61 59 61 61 57 56 57 59 64 62 63 64 64 63 65
68 68 69 69 69 68 67 68 68 68 68 68 68 67 66 68 68 68 67 66 66 66 67 67 66 65 62 59 56 57 58 57 53 55 57 60 61 62 64 61 61 63 62
68 68 68 69 68 68 67 66 67 68 67 67 67 65 65 66 66 66 65 67 67 66 66 65 65 63 60 60 57 58 52 41 51 54 56 62 62 63 61 59 62 61 61
65 66 67 68 68 67 67 66 66 65 65 65 65 64 61 63 64 64 65 66 67 67 64 62 59 60 58 52 48 46 36 37 48 51 55 60 57 61 59 58 60 59 58
60 65 67 68 67 66 66 66 65 64 63 62 62 63 62 60 63 62 62 64 63 61 58 56 51 47 41 39 34 30 34 35 47 52 59 60 59 59 56 57 57 56 55
59 59 67 67 67 65 65 64 64 63 62 59 59 61 59 58 60 59 60 61 61 58 52 49 47 41 32 28 29 26 26 32 46 51 56 58 56 55 54 53 52 51 51
58 59 60 65 65 64 65 64 63 63 62 59 57 59 57 57 57 58 59 60 55 51 48 46 39 31 27 26 26 26 24 28 43 48 51 56 53 52 50 49 47 46 45
56 59 60 62 64 64 64 63 63 62 62 60 58 57 56 56 55 57 53 50 47 44 40 34 30 29 29 27 26 24 23 25 34 45 47 49 51 48 46 43 42 42 43
44 58 60 61 64 64 64 63 62 62 61 60 59 57 55 55 57 52 49 46 42 40 35 31 32 30 30 28 26 26 24 24 25 39 42 42 43 47 40 38 37 38 39
43 52 59 61 63 64 64 64 63 63 61 63 59 58 55 58 53 49 46 43 39 38 35 33 33 31 30 28 26 25 26 26 23 27 35 38 37 36 38 34 33 35 35
39 43 56 59 62 63 64 64 63 62 60 63 60 57 58 54 50 47 44 40 36 36 34 31 30 29 27 27 26 23 28 28 27 25 24 27 28 31 31 34 32 35 33
35 41 45 58 61 62 63 63 64 63 61 61 60 57 58 53 49 45 41 36 36 35 33 31 28 29 27 27 25 28 29 31 29 25 25 26 28 26 26 25 28 25 31
35 37 42 50 59 62 62 62 63 61 61 61 61 58 56 52 46 42 39 36 37 33 30 28 30 28 27 27 26 27 30 26 29 29 30 29 26 25 25 25 23 23 24
39 39 39 43 52 60 61 62 63 62 62 62 61 56 51 47 43 41 38 36 35 32 29 28 29 30 28 26 22 28 24 24 24 24 28 23 20 23 21 20 19 20 22
37 39 40 40 46 50 56 60 60 58 57 56 55 51 47 46 44 39 36 36 33 32 31 30 30 30 29 26 21 21 22 22 20 24 21 22 19 21 20 22 22 21 21
33 39 40 41 43 46 48 59 60 60 59 56 54 51 47 43 39 37 36 33 33 34 32 30 29 29 29 26 26 22 20 18 18 14 21 22 21 19 20 21 22 21 21
31 32 39 41 43 46 47 57 60 60 56 52 49 47 47 45 40 39 37 35 33 33 30 28 26 25 26 26 27 24 20 22 20 20 18 20 20 20 21 22 22 21 21
33 33 38 42 42 45 49 58 58 57 50 48 47 44 43 44 42 39 38 35 33 30 28 28 26 23 23 23 23 21 20 18 17 17 17 17 17 19 21 22 22 22 22

GFSSE_sfc_dewp_036.txt.gz
Dewpoint
69 72 74 72 72 72 72 71 71 72 72 70 69 68 67 65 64 63 66 66 67 67 66 66 67 69 68 67 67 66 65 63 62 62 62 62 62 62 63 63 62 62 61
70 71 73 72 72 71 71 71 71 71 72 70 69 67 67 65 63 62 64 66 66 68 68 70 69 68 68 67 66 64 62 60 61 62 62 62 63 60 61 63 63 62 61
71 71 71 72 72 71 70 70 71 71 71 70 69 67 66 65 63 61 62 65 65 66 66 68 68 67 65 64 62 61 59 61 63 64 64 58 58 58 57 59 62 64 61
70 70 70 72 72 70 68 67 68 69 69 69 69 67 66 64 62 61 61 64 64 64 65 65 65 64 64 63 62 62 62 63 64 65 60 58 58 62 60 58 60 62 64
70 70 70 72 71 69 68 68 67 68 69 69 68 66 65 63 62 61 62 62 64 63 63 63 63 63 63 64 64 63 63 63 65 62 59 58 62 63 64 64 62 61 61
69 70 71 72 71 70 69 68 66 68 69 67 67 66 64 64 63 62 62 62 63 63 63 63 63 64 64 63 63 62 64 65 64 61 60 61 62 64 64 65 65 65 65
69 70 71 72 71 70 68 69 69 70 67 65 64 65 65 65 65 63 63 64 64 64 64 65 65 65 65 65 64 64 65 66 61 60 62 63 62 64 65 65 65 66 65
69 70 70 71 71 71 69 70 71 71 69 67 67 66 65 65 66 65 63 64 64 65 65 66 65 65 66 66 65 64 63 63 58 58 58 60 64 63 65 66 65 66 66
69 69 69 70 69 70 69 69 70 70 69 67 67 67 67 67 67 67 64 64 65 65 66 66 66 66 65 63 61 58 61 61 56 56 58 59 64 64 65 63 64 64 63
68 69 69 69 69 68 67 68 69 69 68 68 68 68 67 67 67 68 67 66 65 66 66 66 66 65 62 59 57 59 58 58 55 56 58 60 63 64 62 61 63 63 61
67 68 69 69 68 67 66 66 68 69 68 68 67 65 66 66 67 66 65 66 67 67 67 66 65 62 60 58 58 54 50 51 52 54 56 64 64 62 60 62 62 61 58
66 67 68 68 67 67 66 65 65 65 65 65 65 62 64 65 65 64 64 66 68 67 66 64 63 60 56 51 39 43 37 48 49 52 57 61 62 60 58 60 59 58 57
67 67 68 68 67 67 65 65 64 64 64 64 64 62 61 64 64 64 63 64 64 63 60 56 51 47 41 37 31 30 35 46 50 56 59 62 60 58 57 58 55 54 54
65 66 67 67 67 66 66 65 64 63 62 62 62 63 61 60 62 61 61 62 61 58 53 50 48 40 29 29 27 25 31 43 50 53 57 60 57 55 54 53 51 50 49
61 65 67 67 67 66 65 64 64 63 62 61 60 61 60 59 61 60 60 60 60 57 49 47 40 29 27 26 26 24 27 40 47 50 52 57 55 53 51 49 47 46 46
58 60 66 67 67 66 65 64 63 63 62 60 58 59 59 58 60 58 58 59 55 51 47 39 30 29 28 27 25 24 25 33 45 47 48 51 53 49 46 44 42 41 41
51 58 62 66 67 65 65 63 63 63 62 61 58 57 58 57 57 57 56 53 48 42 34 30 30 30 29 27 25 25 24 25 41 43 44 43 45 48 42 39 38 38 38
42 50 59 63 65 65 64 64 63 63 62 62 59 57 56 56 56 54 52 49 44 39 34 34 32 30 29 27 24 24 26 25 27 40 39 39 37 38 40 36 33 34 34
38 42 56 60 64 64 64 64 63 62 62 62 61 58 56 56 53 51 49 45 39 37 34 32 30 29 26 26 25 24 28 28 25 28 34 35 32 35 32 35 35 33 31
36 38 50 59 62 64 64 64 64 63 62 62 60 58 56 55 51 50 46 40 37 36 33 30 28 28 27 26 24 28 29 31 28 26 26 26 29 28 27 25 27 26 29
35 36 41 55 60 64 64 64 64 62 61 62 60 58 57 53 50 48 44 37 37 33 32 28 29 26 26 26 27 28 30 26 28 28 29 27 26 25 25 25 23 23 23
36 35 36 44 57 62 64 63 64 63 63 62 62 58 56 54 52 48 41 37 35 32 30 29 30 29 27 25 24 28 24 24 25 23 28 27 23 24 22 20 19 20 22
35 37 39 39 49 59 62 63 59 59 58 57 58 58 56 54 51 50 42 38 34 33 31 29 30 29 28 25 21 24 24 23 20 22 22 21 19 22 20 22 20 21 21
33 35 38 40 42 53 60 61 61 60 59 60 59 56 53 52 52 46 41 41 35 34 31 31 31 31 29 25 25 21 19 20 17 14 20 22 20 18 19 21 22 21 21
31 31 33 37 42 44 52 59 61 60 60 55 52 52 51 51 49 46 42 39 34 35 31 30 28 29 28 28 28 24 20 22 20 19 16 19 21 20 20 22 21 21 21
34 34 34 35 39 43 46 54 60 60 54 52 50 50 48 47 47 44 41 40 37 33 32 31 29 27 26 24 24 21 20 18 18 18 18 18 18 20 21 22 21 21 22

GFSSE_sfc_dewp_039.txt.gz
Dewpoint
68 71 74 73 73 73 73 72 73 72 71 70 69 68 67 65 65 66 66 67 66 66 65 66 69 68 68 67 66 65 62 62 62 62 63 64 63 62 63 64 64 61 62
70 71 74 73 72 72 70 71 73 73 72 70 69 67 66 64 63 64 65 66 68 66 66 68 69 68 67 67 65 62 61 62 62 62 61 63 63 61 62 64 62 61 60
71 71 71 73 72 72 72 72 72 72 71 69 69 67 65 64 61 62 65 66 67 69 69 69 69 67 66 64 62 60 62 64 65 64 62 58 58 59 58 61 63 64 60
70 70 70 72 72 72 71 71 71 71 71 69 68 67 66 64 61 62 64 63 65 66 66 66 65 64 63 62 62 63 64 65 64 63 59 57 59 63 61 59 60 62 64
70 70 70 72 71 70 70 70 70 70 70 69 68 67 65 62 61 62 63 65 64 64 64 64 64 64 63 64 63 63 64 65 65 62 58 57 62 63 65 65 64 62 61
69 69 71 72 71 70 69 68 68 69 69 69 68 66 64 62 62 62 62 63 63 63 63 63 62 63 64 63 63 64 65 65 63 60 58 60 62 65 66 66 66 66 66
69 69 70 72 70 69 68 68 69 69 69 67 66 65 64 64 62 63 63 63 63 63 63 64 64 65 65 65 65 65 64 62 59 61 62 63 62 65 65 66 67 67 67
69 70 70 70 70 70 68 68 70 70 68 66 67 65 65 65 64 63 63 64 64 64 65 65 65 65 65 65 65 61 60 61 58 58 59 60 65 65 66 65 65 64 64
69 69 69 69 69 70 69 70 70 70 68 67 67 68 67 67 67 64 64 64 64 65 65 66 66 66 65 62 58 58 61 61 56 57 58 59 66 65 63 64 64 63 62
69 69 69 68 69 68 68 69 70 69 68 67 67 67 67 67 68 67 66 66 65 66 66 66 66 64 61 57 57 61 60 59 56 57 58 59 65 63 62 64 63 61 60
68 68 69 68 68 67 66 66 69 69 68 68 68 66 66 65 66 66 65 66 67 67 67 67 65 62 59 59 55 56 55 52 53 54 57 66 63 61 63 62 61 59 57
66 67 67 68 67 66 66 65 65 66 66 66 65 63 64 64 65 65 64 66 68 68 67 66 64 59 54 41 38 43 47 49 50 54 56 64 61 60 61 60 58 57 57
65 67 66 68 67 66 65 64 64 64 64 64 63 62 63 64 64 63 63 64 64 64 62 58 53 47 40 34 30 34 45 47 53 55 60 63 59 58 59 57 55 54 54
66 66 66 68 67 66 65 64 64 64 63 62 63 61 61 62 62 62 62 62 62 60 57 50 46 36 30 28 25 30 40 48 51 53 57 60 57 55 55 53 51 49 49
66 66 67 68 67 66 65 64 63 63 63 63 62 62 61 61 62 61 61 61 60 57 52 49 40 29 26 26 26 26 34 46 48 51 53 57 56 53 51 49 48 47 46
64 66 67 67 67 66 65 64 63 63 62 62 62 62 61 60 61 61 59 59 59 56 49 45 33 28 27 26 25 24 29 44 46 48 49 52 55 50 47 45 43 42 42
57 62 66 67 67 66 66 65 63 63 62 61 60 60 61 59 59 60 59 58 57 52 45 32 30 29 28 27 25 24 25 38 44 45 46 45 47 50 44 41 40 39 38
43 56 62 66 66 66 65 65 64 63 62 61 59 58 59 59 58 58 58 56 51 41 35 32 31 30 29 27 24 24 26 26 40 42 41 40 37 39 40 37 35 35 37
39 42 56 63 66 66 65 65 64 63 62 63 60 58 57 57 57 56 55 54 45 38 34 34 31 29 27 26 24 24 27 26 30 38 37 35 34 36 32 34 36 34 31
36 38 44 59 63 66 65 65 64 63 63 63 62 59 57 56 56 54 52 48 42 37 34 32 29 28 27 26 25 28 30 31 27 29 33 31 30 31 27 27 28 26 32
36 36 39 54 60 64 64 64 63 62 63 62 62 61 58 56 55 53 50 45 40 36 33 29 28 26 26 26 28 29 29 27 27 26 27 27 28 27 26 25 23 23 23
36 35 35 43 59 61 64 63 64 63 63 62 62 61 58 56 56 53 48 44 39 35 31 29 30 29 27 26 25 28 25 24 25 23 29 29 25 26 23 20 20 20 22
35 36 37 37 48 60 63 64 60 60 58 58 60 60 58 57 55 53 50 44 38 36 32 30 31 30 28 25 23 27 25 24 23 22 23 21 20 23 21 21 21 21 21
33 35 36 38 40 50 62 63 62 61 60 61 61 60 56 56 54 54 50 45 41 37 34 35 31 32 28 25 24 21 20 23 20 16 20 22 20 18 19 21 21 21 21
32 32 33 35 39 42 55 62 62 61 61 60 60 57 54 54 54 54 50 47 43 43 43 39 33 31 30 27 28 25 21 22 19 18 15 18 21 21 20 21 21 21 21
33 32 32 32 34 39 43 55 61 61 57 55 53 56 52 51 51 50 48 47 46 44 43 40 33 32 30 29 27 22 22 20 19 18 17 18 17 19 21 22 21 21 21

GFSSE_sfc_dewp_042.txt.gz
Dewpoint
65 70 74 74 73 73 73 73 73 72 71 71 69 68 67 67 67 67 67 67 67 65 66 68 68 67 67 67 65 63 62 63 63 64 64 64 63 63 64 64 64 61 62
68 71 73 74 73 73 73 73 73 73 72 70 69 67 65 64 65 65 66 67 66 66 66 69 69 68 67 66 63 62 63 63 63 62 62 63 64 61 64 63 62 61 62
69 71 72 74 73 73 72 73 72 72 71 70 69 67 65 63 62 64 66 68 69 68 69 69 68 67 66 63 60 63 65 65 65 63 61 58 58 59 60 63 65 62 60
70 71 71 73 73 72 72 72 72 71 70 69 69 67 65 63 61 64 66 66 68 68 68 67 66 64 62 61 63 65 65 65 64 62 58 58 61 64 60 60 60 63 64
70 70 70 73 73 72 72 71 71 71 70 69 68 66 65 62 62 64 63 65 66 66 65 66 65 64 63 64 64 64 65 65 64 60 57 59 62 64 65 66 65 64 61
69 69 71 72 72 72 71 71 70 71 70 69 68 66 63 62 62 63 64 64 64 64 64 63 63 64 64 64 64 65 65 64 62 60 57 60 63 66 66 66 67 67 67
68 69 70 72 71 70 69 69 70 69 69 69 68 66 63 62 62 63 63 63 63 63 63 63 64 64 65 65 65 65 63 62 60 60 61 62 62 66 66 66 66 67 66
68 69 70 71 71 70 69 69 69 70 70 68 67 65 64 63 63 63 63 64 64 64 64 65 66 66 66 66 63 61 61 62 59 59 59 60 66 65 65 65 64 64 63
69 69 69 69 69 70 69 69 69 71 70 68 68 67 67 66 64 64 64 64 65 65 66 66 66 66 64 60 59 60 62 60 57 58 58 60 66 64 64 64 63 62 61
68 69 68 67 68 68 67 69 70 69 68 68 68 67 67 67 66 65 66 66 65 66 66 66 66 64 59 58 61 62 61 59 56 57 58 63 64 62 64 63 62 60 59
68 68 67 67 67 67 66 68 69 69 68 67 67 66 66 65 66 65 64 66 67 67 66 66 65 61 58 58 59 58 55 51 53 55 59 65 62 63 63 61 60 59 57
65 67 68 68 66 66 66 65 66 67 66 65 65 64 64 63 64 65 64 65 67 67 67 67 64 59 51 38 41 50 49 48 52 55 56 64 60 62 61 59 58 58 57
65 66 68 66 67 66 65 64 64 65 64 64 64 63 62 63 63 64 62 63 64 64 62 61 53 45 37 32 34 43 47 51 54 55 61 62 59 59 59 56 55 55 54
65 65 65 66 67 66 65 64 64 65 63 63 63 62 62 62 62 62 62 62 62 61 58 51 45 35 31 27 30 36 45 51 52 54 58 61 57 57 55 53 51 50 50
64 65 65 66 66 66 64 64 63 64 64 64 63 62 61 61 61 61 61 61 60 58 55 49 40 29 27 26 26 31 44 47 49 52 54 58 58 54 52 50 49 47 46
65 65 65 66 66 66 65 64 63 63 63 63 62 62 61 61 62 61 60 60 59 57 52 48 35 28 27 25 25 27 40 45 47 49 50 53 56 52 49 46 44 43 44
63 66 66 66 66 66 66 65 63 63 62 62 62 62 62 60 61 61 60 59 58 56 48 39 30 29 28 26 24 24 32 43 45 46 47 47 47 51 46 43 42 41 41
53 61 66 66 67 66 66 65 64 63 63 62 61 61 61 60 60 60 59 59 57 53 43 34 32 30 28 27 24 25 25 35 42 43 43 42 38 39 42 39 37 38 38
38 44 60 65 66 66 66 66 65 64 63 62 61 59 59 60 59 59 59 58 54 46 38 33 31 30 28 26 24 25 27 26 35 40 39 36 36 37 33 36 37 35 33
37 38 42 58 65 66 66 66 65 64 63 63 62 60 57 59 59 58 57 56 51 42 36 33 30 28 28 27 24 27 30 31 28 37 36 34 32 33 28 30 28 26 35
37 36 37 42 58 65 66 65 64 63 63 63 63 61 58 57 57 57 56 54 50 44 36 32 29 27 27 28 29 29 29 27 26 26 29 29 27 28 26 25 23 22 23
35 36 36 38 46 59 65 65 64 64 64 63 63 62 60 57 57 56 55 53 49 44 35 31 30 29 27 29 27 28 25 25 26 25 29 27 26 26 24 21 20 21 22
34 35 36 36 42 53 61 64 60 60 59 61 61 62 61 58 57 57 54 52 47 46 39 33 31 30 28 27 26 28 26 26 24 22 23 25 22 24 22 21 21 21 21
31 33 35 37 38 48 60 62 62 61 61 61 61 62 61 58 57 56 54 52 48 46 43 39 41 44 36 27 24 22 20 25 24 19 20 22 20 20 21 21 21 21 21
32 32 33 35 38 40 47 61 62 61 61 60 61 60 59 57 57 56 55 53 48 46 45 43 42 38 39 33 31 26 21 21 18 20 17 19 21 21 20 20 21 21 20
40 40 38 33 33 38 42 54 61 61 61 57 56 58 55 55 55 56 54 51 50 46 44 45 43 41 37 34 31 25 24 22 20 19 18 19 19 18 21 22 21 21 21

GFSSE_sfc_dewp_045.txt.gz
Dewpoint
65 68 74 74 73 73 74 74 73 73 72 71 70 69 68 69 69 68 68 68 66 66 67 68 68 67 66 66 64 63 64 64 65 65 65 65 64 64 64 64 63 60 64
66 71 74 74 74 74 74 74 74 73 72 70 68 67 66 66 67 66 66 66 67 66 66 69 69 68 66 64 63 64 63 63 62 62 63 64 64 63 64 64 62 59 64
67 69 70 74 74 74 74 73 73 73 72 70 68 66 65 64 64 65 67 68 66 66 69 69 68 67 65 62 63 65 65 65 63 62 62 61 58 60 63 64 64 62 60
69 69 69 74 74 73 74 73 73 71 70 70 69 66 65 62 63 66 67 69 70 70 69 68 66 64 62 63 65 65 65 65 63 62 61 63 63 63 60 60 62 64 63
69 69 71 74 73 72 72 73 72 72 70 69 68 66 64 62 63 66 66 68 67 67 67 66 65 64 64 65 65 66 66 65 63 60 61 64 64 64 66 66 64 63 62
69 69 72 73 72 72 73 73 72 71 70 69 67 66 64 62 64 63 65 66 65 65 65 65 64 64 65 65 66 66 65 64 63 59 61 63 64 66 67 67 67 67 68
69 69 69 72 72 72 72 72 72 71 70 69 68 66 63 62 63 65 64 64 64 64 64 63 64 65 65 66 66 64 63 63 61 61 63 64 64 66 66 66 66 66 66
68 69 68 71 72 71 71 71 71 71 70 69 68 66 63 63 63 64 64 64 64 64 64 65 66 66 66 65 63 62 64 63 62 62 62 64 66 65 65 65 64 63 63
69 69 68 68 69 70 70 70 70 71 71 70 69 67 66 66 65 64 64 64 64 65 66 66 66 66 63 60 60 62 62 61 59 60 60 63 65 63 64 63 62 61 61
69 68 68 68 68 67 67 69 69 70 70 69 68 67 67 66 65 66 66 66 66 66 67 67 66 62 60 61 63 63 61 59 57 59 63 62 63 64 64 62 60 60 59
68 68 69 68 68 67 66 66 69 69 68 67 67 66 65 64 63 63 64 66 67 67 67 67 64 60 59 63 60 59 56 54 57 60 62 64 63 64 62 61 60 59 58
66 67 68 68 67 67 65 67 68 67 65 63 64 64 65 65 65 64 63 65 67 67 67 67 62 57 49 44 51 52 49 50 55 60 61 64 61 62 60 58 58 58 57
64 65 66 67 67 67 65 66 67 68 66 63 64 64 64 64 65 65 64 64 65 65 65 63 56 50 41 39 42 47 48 53 56 58 61 62 59 60 57 56 56 55 53
64 65 65 67 66 67 66 65 65 67 66 64 64 64 64 64 64 65 64 64 65 65 62 59 51 43 37 33 37 44 48 52 55 59 59 60 58 58 55 54 52 51 51
63 64 65 66 65 66 67 66 64 64 66 65 64 64 63 63 63 64 64 63 64 64 60 55 45 37 33 30 33 39 45 48 52 56 56 58 59 56 53 51 50 48 48
64 64 65 65 66 66 66 65 64 63 64 65 64 64 63 62 63 64 64 63 63 62 59 53 43 35 32 30 29 34 43 47 50 53 54 53 57 55 51 49 46 45 46
63 65 65 66 66 66 66 66 65 65 63 64 64 64 63 62 63 64 63 63 62 61 57 50 37 32 32 29 28 30 41 45 47 49 51 50 50 53 50 45 44 42 43
48 62 66 66 66 66 66 66 66 65 65 63 64 64 63 62 63 63 63 62 61 60 54 47 38 34 32 31 29 28 33 43 44 46 48 46 44 42 46 42 40 41 39
39 44 60 66 66 66 66 66 66 65 65 64 63 62 63 63 61 62 62 62 61 59 52 44 37 34 33 32 29 29 29 33 42 42 43 42 41 41 38 40 43 39 34
39 39 42 58 65 67 67 67 66 65 65 65 63 61 61 62 61 61 61 61 60 58 53 42 38 33 33 32 22 27 32 31 32 41 40 37 37 39 35 38 36 34 36
39 39 39 41 55 65 65 65 65 64 64 64 64 63 60 61 61 61 60 60 59 57 53 45 37 34 32 31 31 32 32 32 30 33 38 36 34 35 31 32 29 26 26
36 37 38 39 41 53 63 64 64 64 64 64 64 63 61 60 60 61 60 59 58 56 51 44 37 34 33 32 32 33 31 29 29 29 31 32 32 31 29 28 25 25 27
32 36 37 39 40 44 56 64 65 64 63 64 63 63 63 61 59 60 60 59 57 55 50 45 39 38 34 32 32 32 31 32 28 28 28 30 29 29 29 26 24 25 25
37 38 37 37 39 41 49 60 63 60 60 61 62 63 63 62 60 59 59 57 56 55 53 47 42 41 41 34 31 26 27 31 31 26 24 27 26 25 27 25 23 24 24
43 43 41 37 36 40 42 54 62 62 61 62 63 63 62 62 60 59 58 57 56 55 55 51 44 41 42 40 36 27 24 25 22 29 27 24 24 24 24 22 23 22 24
43 44 44 43 42 39 40 43 57 62 61 62 62 62 62 61 60 59 58 57 56 54 53 50 49 46 44 43 38 31 26 25 24 21 23 23 23 23 23 23 23 23 23

GFSSE_sfc_dewp_048.txt.gz
Dewpoint
65 68 75 75 74 74 74 74 73 73 72 72 71 70 70 70 69 68 68 67 66 67 68 68 67 66 67 65 64 65 65 65 65 65 65 65 65 64 63 63 61 58 62
65 67 74 74 74 74 74 74 74 73 72 71 69 68 68 68 68 67 66 67 66 67 69 69 68 67 65 64 64 64 63 63 63 63 63 64 66 64 65 63 61 62 64
65 67 70 74 74 75 75 74 73 72 71 70 68 66 65 66 65 65 68 67 66 66 69 69 67 66 63 64 65 65 64 63 64 63 62 56 54 62 64 65 62 60 60
66 68 68 74 75 75 74 73 72 71 71 70 68 66 64 63 64 66 70 70 69 69 69 67 65 63 63 65 65 65 65 64 63 62 59 59 58 61 60 61 63 64 62
66 66 69 74 75 75 74 73 72 71 71 70 69 66 64 62 67 67 69 69 69 68 67 66 64 63 64 65 65 66 65 63 62 61 61 63 63 65 66 65 63 62 62
65 66 72 74 73 73 73 73 72 71 70 69 68 66 63 62 66 65 67 67 67 67 66 65 64 65 65 65 66 65 64 64 63 59 60 62 64 67 68 68 68 68 67
65 65 68 73 73 72 73 73 73 71 70 68 67 66 63 63 64 63 65 65 65 64 64 64 65 65 65 66 65 63 63 63 59 59 60 62 64 66 67 66 65 66 66
65 65 66 70 71 72 72 72 72 71 70 69 68 65 63 63 64 64 64 64 64 64 64 65 65 66 66 65 63 63 64 64 59 58 60 63 66 66 65 64 63 63 63
66 65 64 66 69 70 71 71 72 71 71 70 69 66 66 66 65 64 64 64 64 65 65 66 66 66 63 61 61 64 63 61 58 58 58 61 65 64 64 63 62 61 61
66 64 64 64 65 66 66 70 70 70 70 70 69 68 66 66 66 66 66 66 65 66 66 67 66 62 61 63 63 62 61 61 58 59 59 60 64 64 64 61 60 59 59
66 65 65 63 64 64 62 64 68 69 69 68 67 66 64 59 61 62 64 66 67 67 67 67 63 60 63 63 62 59 58 55 55 56 56 64 64 64 62 60 59 58 58
65 66 65 65 63 63 61 62 60 64 66 64 62 62 60 60 59 58 61 66 67 67 68 66 61 58 55 51 53 53 50 51 53 55 56 64 63 62 60 59 59 58 57
65 66 66 65 64 62 61 61 60 63 63 62 60 59 60 61 62 62 59 61 62 64 62 63 59 51 48 45 46 47 48 48 48 53 58 63 62 60 57 57 57 55 53
64 65 65 66 65 63 62 62 60 62 63 62 61 59 60 61 62 62 60 58 60 61 61 62 57 52 48 44 44 44 44 46 47 50 58 61 60 57 56 54 53 52 52
64 65 65 66 66 65 64 63 61 61 63 62 62 60 59 60 60 61 61 60 58 59 60 60 57 49 44 40 39 40 41 42 45 50 53 59 60 56 54 52 51 50 50
63 64 65 65 66 65 66 65 64 62 61 63 63 62 61 59 60 61 61 61 60 59 59 58 55 48 43 39 36 37 39 40 42 47 48 54 59 57 53 51 48 47 48
53 59 63 65 65 65 65 66 65 65 64 62 62 62 62 60 60 60 60 61 61 60 58 58 54 47 42 37 36 34 38 39 41 45 47 47 51 55 53 48 46 44 46
40 45 54 61 64 65 66 67 67 66 65 64 63 62 62 61 60 60 60 60 61 61 58 57 53 46 42 39 36 34 35 39 39 41 45 45 45 43 48 47 45 43 43
38 39 41 53 60 63 65 66 67 67 66 65 64 64 63 62 61 60 60 60 61 61 59 56 53 49 44 40 37 35 33 36 39 38 41 43 43 42 40 45 46 45 39
39 40 40 42 52 58 63 66 67 67 66 66 64 64 64 63 62 62 60 60 60 61 59 56 52 48 45 42 32 31 33 32 35 38 38 39 39 41 39 37 37 36 37
36 38 40 40 43 50 56 65 66 65 65 65 65 65 64 63 62 62 60 59 60 60 60 57 52 48 43 41 36 36 34 33 31 33 38 37 36 37 36 36 34 30 31
31 33 36 38 40 42 49 58 63 64 65 65 65 65 64 63 63 62 62 60 59 59 59 59 54 48 46 39 40 41 39 33 31 31 33 35 35 34 33 32 31 29 28
39 37 35 36 39 41 43 49 58 62 64 63 64 63 64 64 63 63 63 62 61 60 59 59 55 51 47 40 40 44 41 41 33 32 31 33 33 32 32 31 29 28 28
43 46 44 40 38 38 41 42 48 56 59 60 60 62 64 63 63 62 62 62 62 62 59 58 55 53 52 44 39 35 35 35 34 30 29 31 30 29 31 31 28 27 27
45 46 46 44 42 41 39 41 44 51 56 57 58 60 61 62 63 62 61 62 61 61 60 58 55 53 53 49 42 37 33 32 30 33 32 28 29 29 29 29 27 25 25
45 45 46 44 43 43 44 40 42 46 53 56 59 60 62 62 62 62 61 61 61 61 59 58 57 53 52 52 44 40 38 38 33 30 30 29 28 28 28 28 27 25 25

GFSSE_sfc_dewp_051.txt.gz
Dewpoint
65 68 75 74 74 74 74 73 74 74 73 72 71 71 71 70 69 68 68 67 67 68 68 68 67 67 66 66 66 66 66 65 65 65 66 66 64 63 62 63 63 59 63
65 67 75 75 74 74 75 74 74 73 72 71 70 69 69 68 67 66 67 66 65 67 68 68 67 66 65 65 64 64 63 63 62 62 65 66 67 66 65 63 64 63 63
64 67 70 74 75 75 75 74 73 72 71 70 69 67 66 66 65 66 68 66 66 68 69 68 67 65 65 65 65 64 63 64 63 62 64 54 57 63 65 64 63 61 61
64 67 67 74 75 75 74 73 72 71 70 69 67 65 64 63 66 70 69 68 67 69 69 67 64 64 65 65 65 65 63 63 62 63 58 57 57 62 61 62 64 63 62
64 65 70 75 75 75 74 73 72 71 70 69 67 65 63 65 67 70 70 70 69 68 66 65 63 64 65 65 66 65 63 61 62 62 60 63 65 66 66 65 65 65 62
63 65 72 74 75 74 74 73 72 71 70 68 67 66 63 65 67 68 68 68 68 68 66 65 64 65 65 66 66 65 64 62 64 58 59 65 65 67 68 68 67 68 67
62 67 69 74 73 74 73 72 72 71 70 69 67 65 63 65 65 68 66 66 66 65 65 64 65 65 66 66 64 63 63 63 60 58 60 63 65 67 67 66 66 66 66
62 64 67 71 72 72 72 72 72 71 70 69 68 65 63 64 64 65 65 65 65 64 64 64 65 66 66 65 63 63 63 64 58 57 62 63 66 65 65 64 63 63 63
63 62 64 65 67 70 70 71 72 72 71 70 68 65 65 66 66 65 65 64 64 64 65 66 66 66 63 61 63 64 62 63 59 57 59 62 66 65 63 63 62 61 61
64 62 62 63 66 67 67 70 71 71 71 70 68 67 66 65 66 65 66 65 65 66 66 67 66 62 61 62 63 62 62 62 57 57 59 61 65 65 63 61 59 60 60
63 62 61 61 63 63 63 66 69 70 70 68 67 66 64 59 61 62 64 66 67 67 67 67 63 61 64 64 62 61 61 55 54 54 58 65 64 63 62 60 58 59 59
63 62 62 61 61 61 59 63 61 61 67 66 64 62 58 57 57 57 62 66 66 67 68 65 62 61 63 55 56 57 52 51 52 54 59 65 63 61 60 60 59 58 56
64 64 63 63 62 61 59 59 58 59 65 65 61 59 57 58 59 57 59 60 62 64 62 64 60 52 50 48 51 49 49 49 48 52 60 64 62 60 58 58 57 55 53
63 64 65 64 63 61 59 59 57 60 61 60 60 57 57 59 60 58 57 57 59 60 60 62 60 54 50 48 47 47 47 46 46 49 59 61 62 59 57 56 54 53 52
62 64 65 65 65 63 61 59 59 59 61 60 60 58 57 59 59 60 59 57 57 58 58 60 59 54 51 47 45 45 43 43 44 49 57 59 61 58 56 54 53 52 51
60 62 64 65 65 65 63 62 61 61 61 62 61 61 58 58 59 60 59 59 58 57 57 57 57 55 49 45 43 42 42 42 41 46 52 56 60 59 54 53 51 49 50
57 59 62 64 65 65 64 65 63 63 62 62 62 61 60 59 59 59 59 59 60 59 57 57 56 54 50 45 42 40 42 41 41 43 47 53 55 57 56 53 49 48 48
43 45 53 60 63 64 64 65 66 64 63 63 62 62 61 60 60 59 59 59 59 60 59 57 57 54 49 45 42 41 40 42 40 40 45 46 51 49 53 52 48 47 47
40 41 42 45 53 60 62 64 67 67 67 65 63 63 62 61 60 60 59 59 58 60 60 58 57 53 50 48 45 43 40 42 41 38 41 45 47 47 47 52 51 50 46
36 38 39 40 41 48 56 60 67 67 67 66 65 64 63 63 62 61 60 59 58 60 60 59 57 55 52 49 42 40 41 39 41 41 40 40 43 45 45 43 43 43 45
36 37 38 40 41 41 49 54 65 66 66 65 66 65 64 64 63 63 62 60 60 59 60 59 57 55 52 50 46 42 41 40 36 38 41 40 41 42 42 40 38 37 38
32 32 34 37 40 41 43 48 56 63 63 65 66 66 65 64 64 63 63 62 60 59 59 59 58 55 52 49 44 45 44 40 37 36 36 38 39 39 39 37 37 36 36
41 42 38 36 38 40 43 44 48 57 63 63 65 65 64 64 65 64 63 63 62 60 60 60 59 56 52 49 46 47 47 45 39 37 35 35 37 37 37 36 34 34 33
44 47 45 43 40 39 41 41 43 47 54 59 60 61 62 63 63 64 63 63 62 62 60 60 60 59 54 49 46 44 48 42 43 36 37 35 35 34 35 36 32 32 32
46 47 47 45 43 43 41 40 42 43 46 51 56 58 58 60 63 63 62 63 63 62 62 61 60 59 54 52 47 48 44 41 37 40 35 33 33 33 34 34 33 31 30
46 47 47 44 43 43 44 44 42 44 43 46 52 56 57 59 61 63 62 61 62 62 61 61 61 60 56 56 51 49 45 42 39 37 38 35 32 32 32 34 32 30 30

GFSSE_sfc_dewp_054.txt.gz
Dewpoint
67 72 75 76 75 75 75 74 74 74 74 73 72 72 71 70 69 69 68 68 68 69 69 68 68 67 67 67 67 66 65 65 65 66 67 66 65 63 64 66 66 62 65
67 71 75 75 75 75 75 74 74 74 73 72 71 70 69 68 67 67 68 66 67 69 68 68 67 66 66 65 65 64 64 62 62 65 67 67 67 66 63 64 66 63 65
66 69 73 74 75 75 75 74 73 73 71 70 69 68 68 67 65 67 67 67 67 69 69 67 66 66 66 66 65 64 64 63 62 63 66 60 62 65 65 66 63 62 63
67 68 69 74 75 75 75 73 73 71 70 68 67 66 65 65 69 69 68 67 69 70 68 65 65 65 65 66 65 64 63 62 63 66 62 61 60 63 63 64 64 64 64
66 67 72 75 75 75 74 73 73 72 70 68 67 65 64 67 70 70 70 70 70 68 66 65 65 65 66 66 65 64 62 62 65 63 64 65 66 67 68 68 68 65 65
65 70 74 75 75 75 74 73 73 72 70 68 67 65 65 68 69 69 69 69 69 68 66 65 65 66 66 66 66 64 63 64 65 60 65 67 66 68 68 68 68 68 68
68 70 72 74 75 74 73 72 72 72 70 68 67 64 64 67 69 68 68 68 67 66 65 65 65 66 66 66 64 63 63 65 61 62 63 65 66 66 66 66 66 66 66
68 68 70 72 73 73 72 72 72 72 71 69 67 64 64 66 67 67 66 66 65 65 65 65 66 66 66 64 63 63 64 64 61 62 63 64 67 65 65 64 63 63 64
64 67 67 68 70 71 71 72 71 72 70 69 68 66 67 67 67 66 66 66 65 65 65 66 66 66 64 63 63 63 64 64 60 60 61 63 67 64 64 63 62 62 62
62 64 64 65 66 68 69 70 71 71 70 69 68 67 66 65 66 67 66 66 66 66 67 67 66 63 62 62 63 62 63 62 57 59 61 65 65 64 63 61 60 61 60
62 61 63 64 65 67 67 68 70 70 69 68 67 66 64 62 63 64 64 66 67 68 68 67 64 63 65 65 63 63 62 57 55 58 62 67 64 63 62 60 59 59 58
63 61 61 63 64 64 63 67 66 67 68 65 63 63 61 59 60 60 64 66 67 68 68 66 64 64 63 59 59 60 56 53 52 59 64 66 63 62 61 60 59 58 56
64 64 62 61 61 61 59 64 61 62 66 66 63 62 60 57 59 61 63 63 64 64 65 64 61 56 54 54 54 52 51 49 49 57 64 65 62 61 60 59 58 56 55
64 64 65 65 62 61 59 59 58 59 64 66 65 61 58 59 58 57 60 60 62 62 62 63 61 55 53 48 48 48 48 48 46 57 62 64 63 59 58 57 56 54 54
63 63 65 65 65 62 60 59 59 58 63 62 61 59 58 59 60 59 58 57 59 60 60 62 61 58 51 49 47 46 45 44 44 54 58 62 62 59 57 56 55 54 53
61 63 65 66 65 65 62 61 59 59 61 62 61 61 58 59 60 60 59 58 57 58 59 61 61 56 51 49 45 43 43 43 42 51 57 59 61 60 56 55 54 53 53
59 61 64 64 65 65 65 63 63 63 62 62 62 61 60 58 59 59 60 60 60 58 57 57 57 56 51 47 44 41 42 42 41 43 55 56 58 59 58 55 53 52 53
44 44 59 63 65 65 65 65 65 65 64 63 63 63 61 60 59 59 59 59 60 60 58 57 57 56 51 47 44 42 41 42 41 41 46 54 54 52 57 57 53 51 51
40 42 43 45 56 64 64 64 65 66 66 66 64 63 63 61 60 59 59 59 59 59 60 58 57 55 51 47 44 43 40 42 41 39 43 45 51 50 49 55 54 53 52
37 38 40 42 44 44 54 62 66 65 65 66 66 65 63 63 62 60 59 59 58 59 60 59 57 56 51 49 44 42 41 40 42 41 39 43 44 45 47 46 46 46 52
34 35 37 39 41 42 44 51 65 65 66 66 65 65 66 64 63 62 61 60 59 58 59 59 58 56 53 50 45 42 40 39 37 40 41 41 42 43 43 42 41 41 43
35 36 36 36 39 41 43 44 52 65 65 65 64 64 65 65 64 63 63 62 61 60 59 59 58 56 53 51 45 41 39 40 39 36 38 39 40 42 41 40 38 38 37
43 45 43 41 40 39 41 44 45 48 62 63 63 63 64 64 65 65 64 62 62 61 60 59 60 57 55 52 45 45 45 43 38 38 35 38 38 39 39 38 37 36 35
45 47 47 46 43 40 40 41 41 43 46 56 62 64 64 64 64 64 64 63 63 62 61 61 60 59 56 51 50 45 49 44 39 34 35 34 36 36 37 37 35 34 32
46 47 47 46 44 43 44 42 42 42 44 45 47 54 59 61 63 63 63 63 62 63 63 62 61 60 58 55 50 49 47 42 37 38 33 36 34 36 36 35 34 32 31
45 45 46 45 44 44 44 44 44 42 42 43 44 48 54 57 59 62 62 62 61 62 62 62 62 61 60 57 53 51 48 47 43 38 42 38 37 35 36 35 33 32 31

GFSSE_sfc_dewp_057.txt.gz
Dewpoint
69 73 76 76 75 75 75 74 74 74 74 73 72 72 71 70 69 68 68 69 70 70 69 68 68 68 68 67 66 65 65 64 65 66 67 67 64 65 66 65 65 63 65
72 74 76 76 75 75 75 74 75 74 73 73 72 71 69 68 67 68 67 68 69 68 68 67 67 67 66 65 64 64 63 63 65 66 68 67 68 65 64 65 65 64 65
71 73 74 75 75 75 75 74 74 73 72 71 70 69 68 66 67 67 67 68 69 69 67 66 66 66 66 65 64 64 64 63 63 65 66 61 63 66 66 64 64 64 64
71 72 72 75 75 75 74 73 73 72 69 68 68 67 65 68 69 68 68 69 70 68 66 66 65 65 66 65 64 63 64 63 64 66 63 59 61 65 65 65 64 66 64
68 69 73 74 75 75 74 74 73 71 69 67 66 65 67 70 69 69 69 70 69 67 66 65 65 65 66 65 63 62 63 64 66 65 65 66 66 68 69 69 66 66 67
68 71 74 75 75 74 74 74 72 70 69 67 66 65 69 70 70 70 70 70 69 68 65 65 66 66 66 66 64 63 63 65 64 65 66 67 66 68 67 68 68 68 68
70 72 73 75 75 74 73 72 72 72 69 68 65 65 69 69 69 69 69 68 67 66 66 66 66 67 66 65 64 63 64 65 61 64 65 65 64 66 66 65 64 65 66
70 71 72 74 74 73 72 71 72 71 71 68 66 64 67 69 68 68 67 67 66 66 65 65 66 67 66 64 63 63 64 64 60 63 64 64 66 65 64 64 64 64 64
69 70 71 72 72 71 71 71 71 71 70 69 68 67 68 68 68 67 67 66 66 65 65 66 66 66 64 64 63 62 64 63 59 62 63 64 66 63 63 63 62 62 62
68 68 67 68 69 69 69 70 70 70 69 69 68 67 66 66 67 67 67 67 66 66 67 67 66 64 63 63 62 63 63 62 58 61 64 65 65 64 62 62 61 61 60
65 66 65 66 67 67 68 68 70 69 68 67 66 65 64 63 64 65 65 66 68 68 68 67 65 64 65 64 63 63 62 57 56 62 64 67 65 63 62 61 60 59 58
62 63 64 64 66 67 66 68 68 68 67 65 64 63 62 61 62 62 63 65 67 68 68 67 65 65 63 60 59 61 56 54 58 62 64 66 64 63 61 61 60 57 57
62 64 63 64 65 65 66 67 66 67 67 64 63 62 61 60 60 62 63 64 64 64 66 65 63 60 59 57 56 54 53 50 57 62 64 65 63 62 61 60 58 56 55
63 63 65 65 62 62 65 64 63 64 66 66 63 62 60 58 59 61 62 62 62 63 63 62 60 57 52 52 54 51 50 48 52 60 63 64 63 61 60 60 57 56 55
63 64 64 65 65 61 60 61 59 61 64 66 65 62 60 59 58 59 60 60 61 61 62 62 61 58 54 50 48 47 47 47 47 59 61 62 63 61 59 58 57 56 55
63 63 64 65 65 65 61 59 58 59 62 64 64 62 59 58 59 58 58 58 59 60 60 61 62 60 56 50 47 45 45 44 43 57 58 61 63 61 59 57 56 56 55
62 63 64 64 65 65 65 62 60 60 61 62 61 60 58 58 60 60 59 58 57 58 60 59 61 59 53 50 47 44 43 43 41 56 56 58 60 60 60 57 56 55 55
51 61 64 64 65 64 65 65 63 64 64 62 62 62 60 59 59 59 59 59 60 58 57 57 57 56 52 49 45 43 41 42 41 46 55 56 56 55 59 59 57 55 55
39 42 57 64 64 64 65 65 65 65 65 66 66 63 61 60 60 59 59 59 59 60 58 57 57 56 52 49 45 43 41 42 42 40 48 54 54 53 53 58 58 56 56
35 36 38 41 51 64 65 64 65 65 65 65 66 66 64 62 61 60 59 59 59 59 59 59 57 56 53 50 44 43 43 41 42 41 40 49 53 51 50 50 52 52 56
34 35 35 36 38 41 43 55 63 64 64 64 65 65 65 65 63 62 60 59 59 58 58 59 58 56 53 50 45 44 41 40 40 41 41 42 46 49 49 48 48 45 49
43 44 42 40 39 38 42 44 53 63 64 65 65 64 64 64 64 64 62 61 60 59 58 59 58 56 56 52 48 41 38 38 39 38 40 40 41 44 46 46 44 42 43
45 46 46 45 43 41 39 41 43 45 55 62 62 62 63 64 64 64 64 63 62 60 60 59 59 58 57 54 50 45 42 40 39 39 37 38 39 42 42 43 41 40 39
45 46 46 46 45 43 42 40 39 41 42 49 56 62 63 63 63 63 63 63 62 62 61 61 59 59 56 54 53 49 50 45 40 38 36 38 40 40 42 41 39 37 37
46 46 46 46 44 44 44 44 41 40 42 44 44 45 51 61 63 63 63 62 61 61 61 61 61 60 59 58 54 51 50 49 45 40 37 40 41 42 43 42 40 37 34
44 44 44 45 44 44 43 44 44 44 42 42 42 43 45 50 56 60 62 62 62 61 62 62 61 61 60 59 57 55 51 50 48 43 41 42 43 45 43 40 37 37 36

GFSSE_sfc_dewp_060.txt.gz
Dewpoint
70 74 76 75 74 74 74 74 74 74 73 72 72 71 70 69 68 69 69 70 69 69 69 68 68 68 67 66 65 65 65 65 65 67 66 66 66 66 65 66 66 63 65
72 74 75 75 75 75 75 74 75 74 74 73 72 70 69 68 68 67 68 69 68 68 67 67 67 67 66 64 64 64 64 65 66 67 67 67 67 65 64 65 66 64 65
73 74 74 75 75 75 74 74 74 73 73 72 71 69 67 66 67 67 68 69 69 67 67 66 66 66 65 64 64 64 64 64 65 65 64 62 64 66 63 64 64 64 63
73 73 74 75 75 75 74 73 73 71 70 69 69 67 66 69 68 68 68 70 69 67 66 65 65 65 64 64 65 65 64 63 63 65 61 60 62 65 66 64 66 65 64
72 72 73 75 75 75 74 73 72 69 68 67 67 66 69 69 68 68 70 70 67 66 66 65 65 65 64 63 63 64 64 65 67 66 63 66 66 68 68 66 66 67 67
69 71 73 75 75 74 74 73 71 69 68 66 66 68 71 70 69 71 70 69 68 67 65 65 66 66 65 64 64 64 64 66 66 66 66 67 67 68 67 68 68 68 67
70 72 72 74 74 74 74 73 71 69 68 66 65 69 70 69 70 70 69 68 67 66 65 66 66 66 65 64 64 64 64 65 63 65 64 64 65 67 66 64 65 66 67
70 72 73 73 73 73 73 73 72 71 68 66 65 69 69 69 69 69 68 67 67 66 66 66 66 66 65 64 63 64 64 63 63 64 64 64 66 64 64 64 63 63 64
71 72 72 73 72 71 71 71 71 71 70 68 67 69 70 69 69 68 67 67 66 66 65 66 67 66 65 63 62 63 64 63 62 63 63 64 66 63 62 63 62 62 62
70 71 70 70 70 69 68 70 70 70 70 68 68 68 67 68 68 68 68 67 67 66 66 67 67 65 64 63 62 64 62 62 61 62 63 64 65 63 63 62 61 60 60
68 68 68 68 68 68 68 68 69 69 69 68 67 66 65 64 65 65 65 66 67 68 67 67 66 64 65 64 63 63 61 56 60 62 64 67 65 63 62 61 60 59 58
65 65 66 66 67 67 67 68 67 67 66 65 64 63 63 62 63 64 63 65 67 68 68 68 65 65 64 60 59 61 57 53 58 62 64 67 64 63 61 60 59 58 57
63 64 64 65 66 66 66 67 67 67 65 64 63 62 61 61 61 62 62 63 64 65 66 66 64 62 59 57 56 55 54 51 60 62 64 66 64 63 62 60 59 57 56
63 63 63 64 65 65 66 66 66 66 66 64 63 62 60 59 59 60 61 62 62 63 63 63 61 59 56 56 55 53 51 49 58 61 63 65 64 62 62 60 58 57 56
62 64 64 65 63 63 65 65 64 65 66 66 64 62 61 59 58 60 61 61 61 61 62 62 61 59 56 52 50 52 49 48 51 60 61 63 64 63 61 60 58 57 56
63 63 64 65 65 61 62 62 61 62 63 66 65 63 62 59 58 59 60 60 60 61 62 62 62 61 59 54 50 48 47 47 46 58 60 61 63 63 61 59 58 57 57
63 63 62 63 65 65 62 60 59 59 62 64 65 64 63 59 59 58 58 59 59 59 60 61 61 61 59 56 50 47 45 44 43 56 58 59 61 61 62 59 58 57 57
62 63 63 64 64 64 64 65 62 61 60 62 62 62 62 61 59 59 58 58 58 58 59 59 60 60 59 56 52 47 44 43 42 49 56 58 58 58 60 61 59 58 57
47 54 63 64 64 64 64 65 65 63 64 65 63 62 60 59 58 59 59 60 59 58 57 57 57 58 57 53 49 46 43 42 42 41 54 56 56 56 56 59 60 59 58
35 36 40 47 56 64 65 64 64 64 64 64 65 65 63 61 60 60 60 59 59 59 59 58 56 56 55 54 50 45 44 42 42 42 42 54 55 55 53 53 56 56 58
41 39 37 36 37 41 52 60 62 63 64 63 64 65 65 65 63 62 61 60 60 59 59 59 58 56 56 52 50 45 42 42 40 42 42 44 53 53 52 51 52 51 52
44 44 44 42 41 38 41 43 50 61 63 64 64 64 64 64 64 64 62 61 60 59 59 58 58 56 56 54 52 47 45 43 40 41 41 40 42 51 51 50 50 48 47
45 46 46 45 44 42 40 40 42 44 50 61 62 62 63 63 63 63 63 62 61 60 59 58 58 57 57 53 52 52 42 43 40 40 38 39 40 43 48 51 48 47 44
45 46 45 45 44 44 44 42 39 40 40 45 51 56 55 61 62 63 62 62 62 61 60 60 59 58 57 57 53 53 50 46 41 41 38 38 40 40 42 45 47 47 45
45 44 44 44 44 44 43 44 43 42 41 43 43 43 44 47 53 60 62 62 60 61 61 60 59 58 58 58 55 52 53 51 48 45 45 42 46 45 47 44 43 43 43
44 44 45 44 44 44 45 45 45 45 45 44 45 46 46 47 52 52 55 59 60 60 59 59 59 59 59 59 59 57 55 52 51 49 45 44 44 47 48 46 44 41 42

GFSSE_sfc_dewp_063.txt.gz
Dewpoint
69 73 75 74 74 74 74 73 73 73 73 72 71 70 69 69 70 69 70 70 69 69 68 68 69 68 67 66 65 66 65 65 66 66 66 67 66 65 67 66 66 64 64
72 74 75 75 74 74 74 74 74 74 73 72 71 70 69 68 68 68 69 68 67 67 66 67 67 66 65 64 65 65 65 65 67 67 67 66 67 64 66 66 66 63 64
72 74 74 75 75 75 74 74 74 73 73 72 70 69 67 67 67 68 69 69 67 67 66 65 66 65 65 65 65 64 65 65 64 65 65 63 64 63 63 64 64 63 62
73 73 73 75 75 74 74 73 72 71 70 70 69 66 67 67 67 67 70 69 67 66 65 65 65 65 64 66 66 65 64 63 63 64 59 61 63 66 63 64 65 63 63
72 73 74 75 75 74 73 72 70 69 69 68 67 67 69 68 68 68 70 68 67 66 65 64 65 64 64 65 64 65 64 65 67 65 61 65 66 67 65 66 66 67 68
71 72 74 74 75 74 73 72 70 68 67 66 66 69 71 68 68 70 70 68 68 66 64 65 65 64 64 65 64 65 67 68 66 65 66 67 67 67 67 68 68 68 68
70 71 73 74 74 74 73 72 70 68 67 66 67 70 71 70 70 71 69 67 67 66 65 66 65 65 65 64 64 65 65 66 64 64 64 64 65 65 64 63 63 67 67
70 71 71 73 73 74 73 72 71 69 67 66 68 70 69 69 70 69 68 67 66 65 65 66 66 65 64 63 63 64 64 65 64 63 63 63 66 63 63 63 62 63 63
71 71 71 72 72 72 72 72 71 70 69 67 69 70 70 70 69 68 67 67 66 65 65 66 66 65 64 63 62 63 64 65 63 63 63 63 66 62 62 62 61 61 61
70 71 70 70 70 69 69 71 70 70 69 68 68 69 69 68 68 68 68 68 67 66 66 66 66 65 64 63 62 64 62 64 61 62 63 63 64 62 62 61 60 60 59
69 69 69 69 68 68 67 68 70 69 68 67 67 66 66 65 66 66 66 66 67 67 67 66 66 65 65 64 64 63 60 58 59 62 63 66 64 63 62 61 59 58 57
65 67 68 68 68 67 67 67 67 67 66 65 64 63 63 63 63 64 64 65 67 68 68 67 67 66 64 59 58 60 56 54 57 61 63 67 64 63 61 61 59 58 57
65 65 66 66 66 67 67 66 66 66 64 64 63 62 61 62 61 62 61 63 63 65 65 66 64 62 59 57 56 55 55 52 57 61 64 67 64 64 62 61 59 57 56
63 64 64 65 65 65 66 66 66 66 64 63 62 62 60 59 59 60 60 61 61 63 63 63 62 60 59 57 55 54 52 50 56 60 62 65 66 63 62 61 60 57 56
63 63 63 64 64 65 65 65 65 65 65 64 63 62 61 59 58 59 60 60 61 61 61 62 61 60 58 54 52 53 52 50 49 59 61 63 65 65 62 62 60 58 57
63 64 64 64 64 64 65 64 64 64 65 65 64 63 61 60 58 59 60 60 60 60 61 61 61 60 59 57 53 50 50 49 47 55 59 61 64 65 63 61 61 59 57
62 63 64 64 65 62 64 64 63 63 63 65 65 64 63 61 59 58 59 60 60 60 60 61 60 60 60 59 56 51 48 46 46 48 57 59 60 62 64 61 61 59 58
62 63 63 64 65 64 62 62 61 60 61 62 64 65 64 62 60 58 58 59 59 59 59 59 60 59 60 59 58 54 49 46 44 44 54 57 59 60 61 63 62 60 59
60 62 63 63 64 64 64 64 63 61 60 60 62 63 63 63 61 60 58 58 58 58 58 58 58 59 58 58 57 56 52 46 44 43 48 55 57 58 57 59 61 61 61
37 41 52 58 60 64 64 64 64 64 63 64 64 62 62 61 61 60 60 59 59 59 58 57 57 57 57 57 56 54 50 47 43 43 42 51 55 57 56 55 56 58 60
40 38 37 37 38 45 60 61 62 62 63 63 63 64 64 64 62 61 60 60 60 59 59 59 57 56 55 53 51 49 46 44 43 42 44 46 53 56 56 55 54 55 56
44 44 43 43 41 39 41 44 54 60 62 62 63 63 64 64 64 64 62 61 60 59 59 59 58 56 55 54 53 47 52 50 43 43 43 42 42 51 54 55 53 53 53
45 45 45 44 44 42 40 40 41 42 48 56 59 61 62 62 63 63 63 62 61 60 59 58 57 57 57 53 53 56 48 46 44 43 41 41 41 43 49 52 53 52 52
45 45 45 44 44 44 44 42 39 38 39 42 46 49 45 47 54 59 61 61 61 60 59 59 58 57 56 56 51 53 53 49 48 48 41 40 42 41 45 48 52 52 50
44 44 44 44 44 44 44 44 43 42 42 43 43 44 44 46 52 53 55 59 59 60 60 59 58 57 57 57 54 54 54 53 49 46 49 50 45 45 46 47 48 49 49
44 44 43 43 43 44 45 45 46 45 45 46 46 47 48 49 51 51 52 52 55 59 59 58 58 57 57 56 57 57 55 53 51 50 48 49 48 48 47 48 48 46 45

GFSSE_sfc_dewp_066.txt.gz
Dewpoint
68 72 75 75 74 74 74 73 73 73 72 71 70 70 70 70 69 70 69 70 69 69 69 69 68 67 67 67 66 66 66 66 66 67 67 68 66 67 67 67 66 63 64
70 73 75 75 74 74 74 73 74 74 73 72 70 69 69 69 68 70 68 68 67 67 67 68 67 65 65 66 66 66 66 66 66 66 66 66 66 66 66 66 65 63 64
72 73 73 75 75 75 74 74 73 73 73 71 70 69 68 67 68 69 69 68 67 66 65 66 66 65 66 65 65 66 65 64 65 66 65 64 63 63 64 64 64 63 63
72 73 73 75 75 74 74 73 73 72 71 70 68 66 66 67 67 70 69 68 67 65 65 66 65 65 66 66 66 65 65 64 63 63 61 64 64 64 64 66 65 65 64
72 73 74 75 75 74 73 72 71 70 70 69 67 68 68 67 67 70 69 68 66 65 64 65 65 64 66 65 65 65 65 66 66 63 64 65 66 66 67 67 68 68 69
72 72 74 74 75 74 73 72 70 69 68 67 66 69 68 68 68 70 69 68 66 65 64 65 64 64 65 65 65 67 68 67 65 64 65 67 66 67 66 67 66 68 68
71 72 73 74 74 73 72 71 70 68 67 67 69 70 69 68 69 70 68 67 66 65 65 65 65 65 65 65 65 66 67 67 64 64 64 64 64 64 63 63 63 64 67
70 71 73 73 74 73 72 71 70 68 66 67 69 70 71 71 71 69 67 67 66 65 65 65 65 65 64 64 64 65 66 66 63 62 62 63 66 64 63 63 63 61 63
70 70 71 72 72 72 72 71 70 69 68 68 70 70 70 70 70 69 67 67 66 65 65 65 65 65 64 64 63 63 64 65 62 63 63 63 66 62 62 62 61 61 61
69 70 69 70 71 71 70 70 70 69 68 68 69 69 69 68 69 69 68 68 67 66 65 65 65 65 64 64 63 63 62 65 61 62 62 62 64 61 62 61 60 59 59
69 70 69 69 68 68 69 69 69 69 68 67 67 67 67 65 65 65 66 67 68 67 66 66 66 65 65 63 63 63 59 59 59 61 62 64 64 62 61 60 59 58 57
66 67 68 68 67 67 67 67 67 67 66 64 64 64 64 63 63 65 64 65 67 68 68 67 67 66 63 59 58 59 57 54 56 60 62 65 65 63 62 60 59 57 56
65 66 67 67 67 66 66 66 66 66 65 63 62 62 62 62 61 62 61 62 63 64 64 65 64 62 59 57 55 55 56 54 53 59 62 65 66 63 63 61 60 58 56
64 65 66 66 66 65 66 66 65 65 64 63 62 62 60 60 59 59 60 60 61 62 62 62 62 61 59 57 55 54 53 52 51 58 61 64 66 64 63 62 61 58 57
63 64 64 64 65 65 65 65 65 64 64 63 62 62 61 59 58 58 59 59 60 60 61 61 61 60 59 57 54 54 53 52 50 56 59 62 65 66 63 62 62 60 58
63 63 64 64 64 64 64 64 64 64 65 64 63 62 61 60 58 58 59 59 59 60 60 60 60 60 59 58 58 55 51 50 50 49 57 59 63 65 65 62 62 61 60
62 64 64 64 64 63 64 64 64 64 64 64 64 63 62 61 59 58 59 59 60 60 60 59 60 60 59 59 58 58 54 50 48 47 50 57 60 63 64 63 62 62 60
62 63 64 64 64 63 63 64 64 63 63 64 64 64 63 62 61 59 58 59 59 59 59 59 59 58 59 59 58 58 57 52 48 46 47 54 58 60 62 64 64 62 61
60 62 62 63 64 64 63 62 62 62 61 62 62 63 64 64 62 60 59 59 58 58 58 58 58 58 57 57 58 58 57 55 52 48 44 48 55 58 59 60 62 63 63
39 49 57 62 63 63 64 63 63 62 61 61 61 61 62 62 63 61 61 59 58 58 57 57 57 57 58 57 57 57 55 54 52 48 47 44 52 55 58 57 58 59 61
39 38 38 44 40 54 62 61 61 61 62 62 63 63 63 62 61 60 60 60 60 59 59 58 57 56 55 54 52 53 51 49 48 47 46 45 47 53 55 56 57 56 57
42 42 42 42 40 39 44 48 57 60 61 62 62 62 62 63 63 63 61 60 59 59 59 58 57 56 55 53 55 51 54 52 47 46 45 44 43 46 53 54 54 54 54
44 44 44 43 43 43 40 40 41 41 45 52 57 59 58 57 61 62 62 62 61 60 59 58 57 56 57 53 53 56 52 50 47 47 43 43 42 42 45 51 53 53 53
45 45 44 44 43 44 44 42 38 38 38 41 44 45 44 46 50 54 56 58 60 60 59 59 58 57 56 57 52 53 52 51 51 51 46 43 42 41 43 46 51 52 53
44 44 44 44 44 45 45 44 44 42 42 43 44 46 47 49 51 51 52 53 57 58 60 60 58 57 56 56 54 52 52 52 50 50 51 51 47 46 44 46 46 50 51
44 43 43 43 43 44 45 47 46 45 45 46 47 48 49 49 50 49 50 50 51 53 57 59 60 58 56 56 56 56 55 53 52 50 49 49 49 50 46 47 47 47 46

GFSSE_sfc_dewp_069.txt.gz
Dewpoint
68 72 75 75 74 74 74 73 72 73 72 71 70 70 70 69 70 69 70 70 69 70 69 69 68 68 68 67 67 67 66 66 66 68 67 67 68 68 67 66 65 62 64
70 72 75 75 75 74 74 74 74 73 73 72 69 69 69 69 70 68 68 68 67 67 68 67 67 67 67 67 67 67 66 65 66 66 66 66 67 67 65 65 64 61 64
70 72 72 75 75 75 75 73 73 73 73 71 70 69 68 68 70 69 68 68 66 66 67 67 66 67 67 67 66 65 65 65 66 66 65 63 62 65 65 64 64 64 63
71 71 71 75 75 75 74 73 73 73 71 70 68 67 67 68 69 69 69 68 65 65 66 66 66 67 67 67 66 66 65 64 64 65 65 64 63 65 67 67 68 67 65
71 71 72 75 75 75 74 73 72 71 70 68 67 67 67 67 70 70 69 67 65 65 66 65 65 67 66 66 66 66 67 65 65 66 67 67 67 67 68 68 68 69 68
71 71 73 74 75 74 73 72 71 70 69 68 69 69 68 68 70 70 69 67 65 65 65 65 65 66 66 66 67 68 67 66 66 66 67 67 66 65 65 65 65 68 67
71 71 72 74 74 73 72 72 70 68 67 68 70 70 69 68 70 70 68 67 66 66 65 65 65 66 65 66 66 67 68 67 65 65 64 64 64 64 65 64 63 63 65
71 72 71 73 73 73 72 71 70 68 67 69 71 71 70 70 71 69 67 67 66 65 66 66 65 65 65 65 65 66 67 66 64 64 64 63 66 64 64 63 63 62 61
71 71 71 71 71 71 71 71 70 69 68 70 70 71 71 71 70 68 67 67 66 65 66 66 66 65 65 64 64 63 65 65 63 63 62 62 65 63 63 62 61 61 61
71 70 71 71 70 69 68 70 69 69 68 69 70 69 68 68 68 69 68 68 67 65 65 66 66 65 65 64 63 62 63 65 63 63 63 62 65 62 62 61 60 59 59
69 70 70 70 70 69 68 68 68 68 67 67 68 67 67 67 67 66 66 67 68 67 66 66 66 65 64 63 62 62 61 62 62 62 63 64 65 62 61 60 59 58 58
66 68 69 69 69 69 68 68 68 66 64 62 65 67 67 66 66 66 65 66 67 67 67 66 66 66 63 60 58 59 58 57 59 62 62 64 66 64 62 61 59 57 56
65 67 69 69 68 68 68 68 68 67 65 64 63 64 65 65 65 65 65 64 65 65 66 66 66 65 63 60 57 56 57 57 55 55 61 64 66 65 63 62 61 58 57
65 67 68 68 68 67 67 67 67 66 66 64 63 63 63 63 63 63 63 63 63 64 65 65 64 64 63 61 58 55 54 55 55 54 58 63 65 66 64 63 62 60 58
66 66 67 68 68 67 67 67 67 66 65 65 64 63 62 61 60 61 61 61 61 63 63 64 63 63 63 61 60 56 54 54 53 52 55 61 64 66 65 64 63 62 60
65 65 66 66 67 67 67 67 66 66 66 65 64 64 63 62 61 59 58 59 59 61 61 61 61 61 61 61 61 60 58 55 52 52 52 55 62 64 66 65 63 62 62
64 65 65 65 65 66 66 66 66 66 66 66 65 64 64 63 62 61 59 58 59 60 60 61 61 61 61 61 60 60 60 59 57 54 51 52 54 60 64 65 64 63 62
64 64 64 64 64 64 64 65 65 65 65 65 66 66 65 64 63 62 61 60 59 60 60 60 60 60 60 60 59 59 59 59 59 57 53 51 52 53 59 64 65 64 63
62 63 63 65 64 65 64 64 65 65 64 64 64 65 65 64 64 62 62 61 61 60 59 59 59 59 59 59 59 59 59 59 59 58 57 55 53 53 54 59 63 64 64
49 57 63 63 64 65 65 64 64 64 64 63 63 63 64 63 64 64 63 62 61 61 60 59 59 59 58 58 57 58 59 58 58 57 56 55 53 54 54 56 56 58 62
39 44 53 60 58 63 64 64 64 64 64 65 64 63 62 62 62 63 63 63 62 61 61 61 60 58 58 59 58 57 57 56 56 55 55 54 52 52 53 53 55 56 57
40 41 42 44 42 48 57 60 62 63 63 64 64 64 64 64 65 64 63 62 62 61 61 61 60 60 59 59 59 56 55 54 54 52 51 50 50 48 48 51 52 54 55
43 44 44 44 43 43 42 43 44 45 48 53 57 59 47 49 55 61 63 64 64 62 62 62 61 60 60 59 58 58 55 52 51 52 49 48 48 47 46 48 51 52 53
45 47 45 45 45 45 45 43 41 41 41 43 45 46 47 52 53 53 54 56 59 61 62 62 61 60 59 59 57 56 57 55 54 52 52 50 48 47 47 47 48 50 52
46 46 45 45 46 46 46 46 45 44 44 45 47 49 49 51 51 51 51 53 54 56 58 58 60 60 59 59 58 57 56 56 54 53 51 53 52 53 52 50 48 46 48
45 45 45 44 44 46 47 48 47 47 46 47 48 49 49 50 50 49 49 50 52 54 55 56 58 59 59 58 59 57 57 55 54 52 51 51 51 53 52 51 49 48 47

GFSSE_sfc_dewp_072.txt.gz
Dewpoint
66 70 75 75 74 74 73 73 72 72 72 71 71 70 70 70 70 70 70 69 70 69 69 70 69 68 68 67 67 66 66 67 67 66 67 69 68 67 65 65 66 61 65
65 69 75 75 75 74 74 73 73 73 72 71 70 69 69 70 69 68 68 67 68 68 68 68 68 68 68 67 67 66 66 66 66 66 66 67 67 65 65 65 65 62 65
65 68 72 75 75 75 74 73 73 73 72 70 69 69 69 70 69 69 68 66 66 67 67 67 68 68 67 67 66 66 66 65 65 65 65 61 64 67 67 66 65 65 63
66 69 69 75 75 75 73 73 73 72 70 70 69 68 68 70 70 69 68 65 66 66 67 67 68 68 67 67 66 65 65 66 66 66 63 62 62 68 68 68 69 68 65
67 67 70 75 75 74 73 73 73 71 69 68 67 68 68 69 70 69 67 66 66 66 66 67 67 67 67 67 67 67 66 65 65 66 64 65 64 66 66 67 68 67 66
66 66 73 74 75 74 74 73 71 70 69 68 69 68 68 69 71 69 67 66 66 66 65 66 66 66 67 68 68 67 66 66 68 63 64 63 62 65 65 65 65 67 68
64 67 70 74 74 73 73 72 70 69 68 69 70 68 68 69 71 69 67 66 66 66 65 66 66 66 66 67 67 68 68 67 62 62 61 61 63 65 65 64 63 63 64
65 67 69 73 73 73 72 71 70 68 68 70 71 69 69 71 70 68 67 66 66 66 66 65 66 65 65 65 66 67 66 65 60 60 61 61 65 64 64 63 62 63 63
66 66 70 70 70 71 71 70 70 69 70 70 72 71 71 71 70 68 67 67 66 66 66 66 65 65 65 64 64 65 66 64 60 60 58 60 65 64 63 62 61 60 61
66 66 69 68 67 67 66 70 69 68 69 70 70 69 69 68 68 69 68 68 66 66 66 66 66 65 64 63 62 62 64 65 60 61 60 61 64 62 62 61 60 59 59
66 67 67 66 66 66 65 66 67 67 68 69 68 67 66 64 65 66 66 67 67 66 65 66 66 64 63 63 62 60 61 59 60 60 59 63 65 63 62 61 59 58 58
66 67 67 66 66 66 65 65 65 62 59 58 61 63 62 63 64 65 65 66 66 66 66 66 66 65 63 57 56 59 56 57 58 59 58 63 65 65 63 62 60 58 57
65 67 66 67 67 66 65 65 65 64 63 62 61 61 60 60 62 62 62 63 64 64 63 63 63 60 59 59 57 53 54 56 55 56 58 63 65 66 64 64 62 60 58
65 66 68 67 67 66 66 65 65 64 64 63 63 62 62 60 60 57 57 58 59 58 61 62 59 58 59 59 57 55 53 53 53 54 56 62 64 66 66 64 63 62 60
65 67 67 67 67 67 67 66 65 64 64 64 64 63 62 62 60 59 57 56 56 57 59 59 59 57 56 56 57 57 55 54 53 52 52 61 62 64 66 65 64 64 63
65 65 66 67 66 66 66 66 65 65 64 65 64 64 63 62 61 60 59 55 56 57 59 59 59 59 59 58 58 57 57 57 56 56 54 54 62 63 65 65 65 63 63
66 66 65 65 65 65 66 67 65 65 64 64 65 64 64 63 63 61 61 60 57 58 58 59 59 60 60 60 60 59 59 58 59 58 58 56 55 60 62 63 64 64 63
65 65 65 64 65 65 65 65 65 65 64 65 65 65 65 64 64 63 62 62 61 60 60 60 60 60 60 59 59 59 59 59 59 59 59 58 57 55 59 61 63 64 64
64 65 65 65 64 64 64 64 65 65 64 64 65 65 65 65 64 63 62 62 62 62 62 61 61 60 60 60 59 59 59 59 59 59 59 59 59 58 57 60 61 63 65
58 63 64 65 65 64 65 65 64 65 65 64 64 64 65 64 64 64 63 63 62 62 62 62 62 61 61 60 59 58 59 60 60 59 58 58 58 58 57 58 58 57 61
41 51 59 63 64 64 65 64 65 64 65 65 65 65 64 63 63 63 63 63 64 63 62 62 62 61 61 61 60 59 59 59 58 57 57 56 56 56 55 55 55 55 55
37 42 48 55 62 62 64 64 64 65 65 65 66 65 65 65 65 65 65 65 65 64 64 63 63 62 61 62 60 60 56 52 53 55 55 54 54 53 52 52 52 53 54
40 42 44 47 48 50 55 56 56 55 56 59 62 64 54 54 57 61 63 64 65 65 64 64 64 62 61 62 61 60 56 49 53 53 53 52 52 52 50 51 51 51 52
43 47 46 46 45 45 45 45 47 49 48 47 47 48 48 51 52 52 53 54 57 60 61 62 63 63 62 61 60 59 59 58 55 53 54 53 52 52 53 52 51 51 51
47 48 47 46 46 47 46 45 45 44 45 45 46 48 49 51 51 51 51 53 53 55 57 57 57 59 61 60 60 59 58 58 57 55 52 54 55 54 52 51 51 51 50
48 48 48 46 46 47 48 47 47 47 46 47 48 49 49 51 51 49 49 50 52 53 54 56 56 57 58 59 60 59 59 56 56 54 53 53 52 53 53 52 50 48 47

GFSSE_sfc_dewp_075.txt.gz
Dewpoint
65 70 75 74 73 73 73 72 72 72 71 71 69 70 70 70 70 69 69 70 71 70 70 70 69 68 68 67 66 66 66 65 65 67 69 69 66 65 66 67 67 61 64
65 69 74 74 74 74 73 73 72 72 72 70 69 69 69 69 68 68 67 68 68 69 69 69 69 68 67 67 67 67 67 66 65 65 67 67 68 67 66 66 66 62 64
65 68 71 75 75 74 73 73 72 71 71 70 69 69 70 69 69 67 66 67 67 68 68 68 68 68 67 66 67 67 66 66 65 65 66 63 66 69 69 69 67 66 63
65 68 69 75 75 74 73 72 72 71 70 70 69 69 70 70 69 67 65 66 67 67 67 68 68 68 67 67 66 66 66 66 66 68 63 61 63 68 68 69 68 67 66
65 66 71 75 75 74 73 73 72 70 69 68 68 68 70 70 69 67 65 66 67 67 68 67 67 67 67 67 67 66 65 66 67 66 63 64 63 65 66 67 67 68 68
64 66 73 75 75 74 74 74 71 70 69 68 68 68 69 71 69 67 66 66 66 66 67 67 67 67 68 68 67 66 66 67 68 60 60 62 62 65 65 64 65 65 66
62 69 71 74 74 74 73 72 71 70 69 69 68 68 69 71 69 67 66 66 66 66 66 66 66 66 67 68 68 68 67 67 59 59 59 61 63 65 64 63 63 63 64
63 67 70 73 73 73 72 71 70 68 69 70 69 69 69 71 69 68 67 66 66 66 66 66 66 66 65 66 67 67 66 66 59 59 60 62 65 64 63 62 61 61 62
66 67 68 69 70 71 71 70 70 70 70 71 71 71 72 71 70 68 67 66 66 66 66 65 65 65 64 64 64 65 65 65 61 59 57 61 65 64 63 62 61 60 60
65 66 68 68 67 66 65 69 69 70 70 71 71 71 69 68 69 69 68 67 66 66 66 66 65 65 64 63 62 61 62 65 60 59 58 62 64 63 62 61 60 59 59
65 67 68 66 65 64 64 65 66 68 69 68 68 68 66 63 64 65 66 67 67 65 65 66 66 64 63 63 62 61 62 58 57 58 58 65 64 63 62 61 60 59 58
65 66 66 65 64 65 63 64 62 57 63 62 61 62 61 61 63 64 65 66 66 66 66 66 66 65 63 57 58 60 56 54 55 56 58 64 63 65 64 63 61 59 58
65 65 66 66 65 65 63 64 62 61 57 57 58 59 57 58 61 61 62 63 64 65 63 64 64 62 58 57 56 53 53 53 53 55 58 64 63 65 65 64 63 61 59
65 66 65 65 67 65 64 63 61 61 61 60 61 60 59 58 58 55 55 56 58 57 58 60 58 57 56 56 55 54 53 53 52 54 56 62 62 64 65 65 65 64 62
64 65 65 64 64 66 65 63 61 61 62 61 62 61 60 59 58 57 55 54 54 54 56 57 58 56 55 54 54 55 54 54 53 54 55 61 62 62 64 65 64 64 64
63 64 65 65 66 64 64 64 63 61 61 62 62 63 61 61 60 59 58 55 54 55 57 58 58 58 58 58 57 57 57 57 57 57 57 57 62 62 63 64 65 64 63
64 64 65 64 64 65 64 65 62 62 61 62 63 63 62 62 62 61 60 60 56 57 58 58 58 59 59 59 59 59 58 58 58 58 59 60 59 61 62 62 63 64 64
63 62 64 63 63 62 63 65 64 62 62 63 63 63 63 62 63 63 62 62 62 60 60 60 60 60 60 59 59 59 59 59 59 59 60 60 61 58 61 62 62 62 63
63 63 64 64 63 63 63 63 63 63 63 63 63 63 64 64 63 63 62 62 61 62 62 61 61 61 61 60 59 60 60 60 60 59 59 60 60 61 60 61 62 62 63
61 63 64 65 64 63 63 63 64 64 64 63 63 63 64 64 64 64 63 62 62 62 62 62 62 62 62 62 60 59 60 60 60 60 59 57 57 59 60 60 60 59 60
50 60 63 64 65 64 64 64 64 63 64 65 65 65 64 64 64 64 63 63 63 63 63 63 63 62 62 63 62 61 61 61 59 59 58 56 57 58 57 56 57 57 57
37 50 56 61 63 64 64 65 66 65 64 64 65 65 65 64 65 64 64 64 64 65 64 63 63 63 63 63 61 61 57 55 53 56 57 55 55 55 54 54 53 54 55
39 41 47 52 59 61 63 64 62 60 61 62 64 64 60 57 60 61 62 63 65 65 64 64 64 63 62 62 62 60 56 52 53 56 55 55 54 54 54 54 53 53 53
41 47 45 47 48 50 52 56 58 59 58 55 54 53 51 51 52 52 53 55 56 59 61 62 62 63 62 60 61 61 61 59 56 52 54 55 54 53 54 55 53 53 52
46 49 47 46 46 47 47 46 47 47 48 46 45 47 47 50 50 51 51 52 52 54 55 56 57 57 58 58 57 58 59 59 59 56 54 54 56 55 54 52 52 51 50
49 50 50 46 46 47 47 47 47 48 46 47 48 48 49 50 51 50 50 50 51 52 53 55 56 56 56 56 58 58 57 57 56 55 54 54 54 54 54 52 50 48 48

GFSSE_sfc_dewp_078.txt.gz
Dewpoint
69 72 75 75 73 73 73 72 72 72 72 70 71 69 71 70 69 70 71 71 72 71 70 69 69 68 67 66 66 66 64 66 68 68 68 68 68 68 68 68 65 62 65
69 71 74 74 74 74 73 73 72 73 72 71 70 69 69 69 68 68 69 68 70 70 69 68 68 68 67 67 67 67 66 66 65 67 68 69 69 70 69 67 67 62 64
68 70 72 74 74 74 73 72 72 72 72 71 70 69 69 68 67 67 67 68 69 69 69 68 68 67 67 67 67 67 67 66 66 67 67 66 66 70 69 68 68 67 66
68 69 70 75 75 74 73 72 72 71 70 70 70 71 70 68 66 66 66 67 68 68 67 68 68 67 67 67 66 67 67 67 68 68 63 62 62 67 68 68 69 69 69
68 68 72 74 74 74 73 73 71 70 70 69 70 71 70 68 66 66 67 67 67 67 67 68 68 68 68 68 66 66 67 68 68 65 62 63 63 64 66 66 66 67 68
65 71 74 74 74 74 74 73 71 69 68 69 70 70 71 69 66 66 67 67 68 68 67 67 67 68 68 68 67 67 68 68 67 59 61 64 63 63 63 63 64 65 66
69 71 73 74 74 74 74 72 71 69 69 69 69 69 72 69 67 66 66 67 67 67 67 67 67 67 68 68 67 67 66 67 61 59 62 63 63 64 62 62 61 61 63
69 70 72 73 73 73 72 72 71 70 70 70 70 71 71 69 68 67 67 66 66 66 66 66 66 66 66 67 67 66 66 66 61 58 62 63 66 64 63 62 61 60 61
67 69 71 71 71 71 71 70 70 71 71 71 71 71 72 70 69 68 67 67 67 66 66 66 66 65 65 64 64 64 65 65 62 59 61 63 66 64 63 62 61 60 60
67 68 68 68 68 67 67 69 70 70 71 72 71 71 69 68 68 69 68 68 67 67 67 66 65 65 64 63 62 64 63 63 61 59 61 64 65 63 63 62 61 60 59
66 67 67 67 66 65 64 66 68 69 69 69 69 68 67 65 66 66 66 67 67 67 66 66 65 64 65 63 63 62 62 58 58 58 61 66 65 63 63 62 61 60 59
66 68 68 66 64 63 63 62 62 67 66 65 66 66 65 63 65 65 65 66 67 67 67 66 67 66 65 60 59 61 57 56 55 56 62 65 63 63 64 63 62 60 58
66 68 67 66 64 64 63 63 58 59 62 62 62 62 61 63 64 64 65 64 65 65 64 66 65 65 61 59 57 56 54 53 54 55 62 65 63 63 64 65 64 63 60
65 67 67 67 65 65 64 64 62 61 59 58 60 59 58 57 58 59 61 63 63 63 62 63 62 62 58 57 56 55 54 53 53 53 60 63 63 62 63 65 64 65 64
66 66 67 67 67 66 64 64 62 61 61 61 61 61 60 59 58 57 55 55 56 55 55 58 58 57 55 54 54 54 54 54 53 54 54 61 62 63 62 63 64 64 65
64 64 66 66 66 66 65 64 63 62 61 62 62 62 61 61 59 58 58 56 54 55 56 58 58 58 58 58 57 57 57 57 57 56 56 57 62 63 63 62 63 64 64
65 65 65 66 67 65 65 65 63 63 62 62 63 62 61 62 62 59 59 58 55 56 56 58 58 59 59 59 59 59 59 58 58 58 58 59 60 61 63 62 62 63 64
64 65 65 65 65 65 65 65 64 63 62 63 63 63 62 62 63 63 62 62 62 59 60 60 60 60 60 60 59 59 59 59 59 59 59 59 60 58 61 63 64 63 63
63 63 64 64 63 63 65 65 64 63 62 63 63 63 63 63 63 63 62 62 62 62 62 61 61 61 61 60 60 60 60 60 60 60 59 59 59 60 60 62 62 62 63
62 63 65 65 63 63 64 65 64 63 64 64 64 63 64 64 64 64 63 63 62 62 62 62 62 62 61 62 61 60 61 60 60 60 59 59 58 57 58 57 59 59 61
50 62 64 64 65 64 64 63 63 63 64 65 65 65 65 64 64 64 64 63 63 62 62 63 62 62 61 62 61 60 60 61 60 60 59 58 56 56 55 54 55 55 55
40 55 61 63 64 64 65 65 65 65 65 66 66 65 63 64 65 65 65 65 65 65 65 64 64 63 63 62 61 60 55 55 55 55 57 55 54 53 53 51 52 52 53
37 44 55 57 62 64 64 63 62 61 62 62 65 64 56 57 59 59 60 62 63 64 63 63 63 62 61 62 62 60 55 51 54 54 54 54 53 53 52 52 51 52 51
40 44 44 50 52 53 55 60 59 59 60 55 56 53 51 51 52 52 53 53 53 56 58 61 61 61 59 58 58 60 59 58 53 51 53 54 53 52 53 53 52 51 50
47 47 46 47 48 48 48 51 53 48 47 46 47 48 49 51 51 51 51 51 52 54 54 55 55 56 57 55 55 56 55 57 56 53 50 52 54 54 54 52 49 48 48
49 49 48 47 47 47 47 46 46 46 46 46 48 48 49 51 51 50 50 50 50 51 51 52 54 54 54 54 55 55 55 55 55 55 54 54 53 53 53 49 48 47 48

GFSSE_sfc_dewp_081.txt.gz
Dewpoint
70 73 75 74 73 72 72 72 72 72 71 71 71 70 69 70 71 72 72 72 72 70 69 69 68 67 67 66 65 65 67 67 67 69 69 70 70 68 67 64 64 63 66
71 73 74 74 74 73 73 72 72 72 72 71 70 69 68 68 69 69 70 71 70 69 68 68 68 68 68 67 67 67 67 66 67 69 68 68 70 69 68 68 67 64 64
71 72 73 74 74 74 72 72 72 72 72 71 71 68 67 67 68 68 69 70 70 68 67 68 67 68 68 68 68 68 68 67 66 67 66 64 66 69 69 69 70 68 67
70 71 73 74 74 74 72 71 71 71 71 72 71 69 67 66 67 67 68 68 68 67 67 67 67 67 67 67 68 68 69 69 69 66 63 63 63 67 67 68 68 68 68
69 71 73 74 74 73 72 71 71 70 70 71 72 71 67 66 67 67 68 68 67 67 67 68 68 68 68 67 68 68 68 68 67 64 63 62 62 62 65 66 66 67 66
68 72 73 74 74 73 73 72 70 69 69 70 72 70 68 66 67 67 68 68 67 68 67 68 68 68 68 67 68 68 67 67 64 62 63 64 61 62 62 62 63 65 65
71 72 73 74 74 74 73 72 71 69 69 70 71 70 68 66 66 67 67 67 68 67 67 67 68 68 68 67 67 66 66 66 60 62 63 63 62 63 62 61 61 61 62
71 72 72 73 73 73 72 72 71 70 69 70 71 71 69 67 66 67 67 67 67 67 67 67 66 67 67 66 66 65 66 65 61 62 63 63 66 64 63 62 61 60 60
71 71 72 71 71 71 71 71 71 71 71 71 72 71 70 69 68 67 67 67 66 67 66 66 66 65 65 64 63 63 64 64 61 62 62 63 66 64 63 62 62 60 60
70 70 70 70 69 68 68 70 70 70 71 71 71 70 69 68 68 68 68 68 67 67 66 66 65 65 64 63 62 63 62 62 59 60 62 63 65 64 63 62 61 60 59
69 69 68 67 66 65 67 68 69 70 70 70 69 67 67 67 67 66 66 67 68 67 67 66 65 64 64 63 63 63 62 57 57 59 61 66 65 63 63 62 61 60 59
67 67 67 66 65 64 62 66 67 67 68 68 69 67 66 64 65 66 65 66 67 67 67 67 66 66 64 60 59 61 58 56 55 58 61 66 64 63 64 64 62 61 59
67 67 67 66 64 63 60 62 64 66 66 66 67 66 65 64 65 65 64 65 64 64 64 66 65 65 62 61 59 57 56 54 53 54 61 65 64 62 63 64 65 63 61
66 67 67 65 65 63 62 61 58 64 63 62 63 62 60 62 63 63 63 63 63 64 63 63 63 62 62 60 57 56 54 53 53 53 59 64 65 62 62 63 65 65 65
65 67 67 66 66 65 63 63 59 58 59 59 60 60 58 58 57 57 60 62 62 61 61 62 61 60 57 55 55 55 54 54 53 53 54 62 63 64 62 61 63 64 64
65 66 67 67 66 66 64 64 64 61 61 61 61 61 60 59 58 58 56 55 54 54 54 56 58 58 57 58 57 57 56 56 56 56 56 57 62 63 64 62 62 62 64
66 66 66 66 67 66 66 64 64 63 62 62 62 61 61 61 60 58 58 58 54 55 55 57 58 58 58 59 59 59 59 58 58 58 58 57 59 62 63 63 63 63 63
65 66 66 67 67 67 66 65 64 64 62 63 63 62 61 62 62 60 60 61 59 56 58 59 59 59 59 59 59 59 59 60 59 59 59 59 60 59 61 64 65 64 63
64 65 65 66 66 66 66 66 65 64 62 63 63 63 62 62 63 63 62 62 62 62 60 60 60 61 60 60 60 60 60 60 60 60 59 59 59 60 59 61 62 62 63
64 64 65 65 65 65 66 66 66 64 63 63 63 63 63 62 62 63 63 62 62 61 62 62 61 62 61 61 61 61 61 61 60 60 60 59 59 58 58 58 59 58 60
60 63 64 64 64 64 64 64 64 63 63 64 66 65 64 64 64 64 64 63 64 63 62 63 63 62 61 61 61 60 60 60 60 60 60 59 58 56 54 54 53 53 55
49 60 63 64 64 65 65 65 64 65 65 65 65 62 63 64 64 64 64 65 65 64 64 64 64 63 62 62 60 59 56 55 55 55 56 57 54 53 52 52 52 52 54
38 54 59 63 64 65 65 64 62 63 62 63 64 61 55 58 58 58 59 61 62 63 63 63 63 62 61 61 62 59 55 51 53 54 54 54 53 52 52 52 52 52 52
37 45 54 57 60 62 63 62 61 61 60 59 60 53 53 52 52 52 53 53 53 54 54 56 57 58 57 57 57 59 57 58 55 52 53 54 53 53 52 52 50 50 48
39 42 47 50 51 56 55 60 60 54 51 47 49 49 50 51 51 51 51 51 52 53 53 54 54 55 55 54 54 53 53 53 54 54 50 51 54 53 51 49 48 48 47
46 46 46 47 47 48 51 50 54 46 45 46 47 48 50 51 50 49 50 49 49 50 49 50 51 52 53 53 53 53 53 52 52 52 51 51 51 53 49 49 47 48 47

GFSSE_sfc_dewp_084.txt.gz
Dewpoint
70 72 74 74 72 72 72 72 70 71 71 71 70 71 71 72 72 72 72 71 71 69 69 67 66 67 65 66 68 68 68 69 69 69 70 70 68 68 66 65 64 63 66
71 72 74 74 73 73 72 72 71 71 72 70 69 69 70 71 71 71 71 70 69 68 68 67 68 68 68 68 68 67 68 69 68 68 68 69 69 69 69 68 67 63 64
71 72 72 74 73 73 72 71 72 71 71 70 68 67 69 70 70 70 70 68 67 68 67 68 68 68 68 68 68 68 68 67 65 67 66 64 66 69 70 69 68 68 68
71 72 72 74 73 73 72 71 72 72 71 71 67 66 67 68 69 68 67 67 66 67 67 68 68 68 68 69 69 69 68 67 67 66 63 62 63 66 67 68 68 67 68
71 72 72 73 73 72 71 71 71 71 71 71 68 66 67 67 68 67 67 66 67 67 67 67 68 68 68 68 69 68 68 67 66 63 62 61 60 62 64 66 66 65 66
71 72 73 73 73 72 72 71 70 71 71 70 68 66 67 67 67 67 67 68 67 68 68 68 68 67 68 69 67 67 66 66 64 62 63 63 60 61 62 62 63 64 64
71 72 72 73 73 72 71 71 71 70 71 71 69 66 67 67 67 68 68 68 67 67 68 68 68 68 68 67 66 66 66 65 61 62 62 62 61 63 62 61 61 61 62
71 72 72 72 72 72 71 70 70 71 71 72 70 67 66 67 67 67 68 68 67 67 67 68 68 67 66 66 65 65 65 64 62 62 63 63 65 63 63 62 60 60 60
71 71 71 72 71 71 71 71 70 70 71 72 71 70 68 68 67 67 67 67 67 67 67 66 66 66 65 63 62 63 63 64 60 62 62 63 66 64 63 62 61 60 59
71 70 70 69 69 69 69 70 70 70 71 71 71 69 68 67 67 68 68 68 67 66 66 66 65 64 63 62 63 63 62 61 59 60 61 63 65 64 63 62 61 60 59
69 69 69 67 66 66 67 69 70 70 69 69 69 67 67 66 66 66 66 67 68 67 66 66 65 64 64 63 63 62 62 56 56 59 61 66 65 64 64 63 61 60 59
67 68 68 66 65 65 67 67 67 69 68 68 68 66 66 65 65 65 65 66 68 68 67 66 66 66 63 59 59 60 58 55 54 59 61 66 64 63 64 64 63 61 59
67 67 67 65 64 62 65 65 66 66 67 67 67 66 65 64 64 65 64 64 64 64 64 65 64 64 61 60 60 58 56 55 53 54 61 65 64 62 62 64 66 64 61
66 67 66 65 64 61 62 64 65 65 65 65 66 66 64 63 63 63 62 63 62 63 62 62 62 62 62 61 60 57 56 54 53 53 56 64 65 63 62 63 64 65 66
60 62 66 65 64 61 60 60 61 63 64 64 63 63 61 63 63 62 62 62 61 62 62 61 62 61 61 61 57 56 55 54 54 53 53 61 64 65 63 62 62 63 65
58 63 67 65 64 63 62 62 57 59 61 61 61 62 58 60 59 58 57 60 61 59 61 57 61 59 57 57 56 56 55 55 55 55 55 55 62 64 65 63 62 63 63
63 65 67 67 66 65 64 63 63 60 59 60 60 61 60 59 58 58 57 56 54 54 53 56 57 58 58 58 58 59 59 59 58 58 57 57 58 62 64 63 64 64 64
65 66 67 68 67 66 65 65 64 63 62 61 61 61 61 61 60 59 59 60 57 54 56 57 58 58 59 59 59 59 59 60 60 59 59 59 59 59 61 64 65 64 63
64 64 66 67 67 67 67 66 65 64 62 62 63 62 61 61 62 61 60 61 61 60 58 59 59 60 60 60 60 60 60 61 60 60 60 59 59 60 60 60 62 62 62
64 65 66 66 66 67 67 67 66 65 62 63 64 62 62 62 62 63 62 62 62 61 62 61 61 61 61 61 61 61 61 61 61 60 60 60 59 59 59 60 58 58 61
62 63 64 65 65 66 65 64 64 63 64 65 66 65 63 63 63 62 63 62 63 62 62 62 63 62 62 62 61 59 59 59 59 59 59 59 59 57 56 55 53 55 58
60 62 63 64 64 65 65 65 64 64 64 65 65 64 65 65 65 64 63 64 64 64 64 64 63 62 62 62 58 58 54 54 54 54 55 56 56 54 52 52 52 53 54
51 59 63 63 64 64 65 64 63 63 63 63 62 60 61 61 61 61 61 61 61 62 61 60 61 61 59 59 59 57 53 51 53 54 53 53 52 52 52 52 52 51 49
37 53 61 63 64 64 64 63 62 62 61 62 63 57 57 57 55 54 54 53 53 54 54 55 56 57 57 56 56 57 56 58 53 50 53 53 53 52 52 51 50 48 47
38 40 55 59 61 61 62 62 62 60 59 55 55 54 53 53 51 51 51 52 52 52 52 53 53 53 54 54 53 52 51 51 52 51 50 51 52 51 49 48 48 47 47
39 42 49 53 55 58 58 61 60 58 53 54 54 53 53 53 50 50 50 49 49 49 49 49 50 50 52 52 52 52 51 50 50 50 52 51 49 49 48 48 48 48 46

GFSSE_sfc_dewp_087.txt.gz
Dewpoint
70 71 73 73 72 72 72 70 69 71 71 71 72 72 72 73 72 72 71 70 70 68 67 66 65 67 68 69 69 69 69 69 70 69 69 69 68 68 67 64 65 62 65
70 71 73 73 72 72 71 70 71 70 71 70 72 72 72 72 72 71 71 69 69 67 67 68 67 68 68 68 68 69 69 67 68 68 68 68 69 69 68 67 67 66 67
71 71 72 73 73 72 71 71 71 71 70 69 70 71 72 72 72 70 69 68 68 67 68 68 68 68 68 69 68 68 67 66 66 66 66 64 65 69 68 69 68 68 69
71 71 71 73 72 72 71 70 70 70 68 68 69 70 70 70 70 68 67 67 67 67 68 69 69 69 69 69 68 68 68 68 66 65 62 61 63 66 67 67 67 67 68
71 72 71 73 72 72 71 71 70 70 68 67 68 69 69 69 68 67 67 66 67 67 68 68 68 69 69 68 68 68 67 65 65 62 60 59 59 61 64 66 64 63 65
71 71 72 72 72 72 72 71 71 71 69 66 67 67 68 67 66 67 67 67 67 68 68 68 68 68 69 68 67 67 67 65 64 62 62 62 59 62 61 61 63 64 64
71 71 71 72 72 71 71 71 72 71 69 67 66 67 67 67 67 67 68 67 67 68 68 68 68 68 68 67 66 66 65 64 61 62 62 61 61 63 62 61 61 61 63
70 71 71 71 71 71 70 70 71 72 71 68 66 67 67 68 67 67 67 67 67 67 68 67 67 67 66 65 65 65 65 64 61 62 62 62 65 63 63 61 61 60 60
71 71 71 70 71 71 70 70 70 71 71 70 68 67 68 68 68 67 67 67 67 67 67 67 67 66 64 63 62 63 64 63 61 62 62 63 66 63 63 62 61 60 59
69 70 70 69 70 69 69 70 70 70 71 70 69 68 67 67 67 68 68 68 67 67 66 66 65 64 63 62 62 62 62 62 59 61 61 62 65 63 63 62 61 60 59
69 69 69 68 68 67 68 69 69 70 70 70 68 67 66 65 66 66 66 67 68 67 66 65 64 63 64 62 62 62 61 55 56 58 61 63 65 63 63 62 61 60 59
67 68 68 66 65 66 68 67 67 68 68 69 67 65 65 64 64 65 65 66 68 67 67 66 65 65 63 59 58 59 56 55 54 57 61 64 65 63 64 64 63 61 59
67 68 67 65 64 64 66 66 66 67 67 67 66 65 64 64 63 63 63 64 63 64 63 64 63 63 60 60 59 58 57 55 54 53 60 64 65 63 62 64 66 64 62
63 62 64 64 63 62 66 65 66 66 65 66 66 65 63 63 62 63 62 62 62 62 61 61 61 61 61 60 59 59 57 55 53 53 54 62 66 64 63 63 64 65 66
61 62 63 61 65 60 64 64 65 65 65 65 66 65 64 63 62 62 62 61 61 61 61 60 61 61 60 60 61 58 56 55 54 54 53 58 64 65 64 63 63 63 65
57 59 62 61 65 62 61 62 63 63 64 64 64 65 63 63 63 62 61 61 61 61 61 60 59 61 60 57 56 55 55 55 55 55 55 55 59 64 65 63 63 64 64
59 60 60 60 65 65 62 60 60 62 62 62 62 62 61 60 61 61 59 57 60 59 56 56 56 58 58 58 58 58 59 59 59 58 58 58 58 61 63 64 64 64 64
58 58 58 62 67 67 66 64 62 59 59 60 61 61 61 59 59 58 57 57 56 54 54 55 57 57 58 58 59 59 59 60 60 60 59 59 59 59 61 63 65 64 61
58 59 60 62 66 66 67 67 66 65 61 60 62 61 61 61 60 59 59 59 60 57 56 57 58 59 59 60 60 60 60 60 60 60 60 60 60 60 60 61 62 62 62
63 64 64 66 66 66 66 67 67 66 65 63 62 62 61 61 62 61 61 60 61 61 61 61 60 61 60 61 61 61 61 61 61 61 60 60 60 59 58 60 58 60 62
63 64 65 65 65 65 65 65 65 65 65 64 64 63 62 62 62 62 62 62 62 61 61 62 62 62 62 62 60 57 57 58 58 58 56 56 57 59 58 57 56 59 60
61 63 63 63 64 65 66 65 65 65 65 65 65 65 65 64 63 63 63 63 63 63 64 63 62 62 61 60 57 56 53 54 54 54 54 53 54 54 53 53 53 54 53
53 60 62 64 64 65 65 64 63 63 63 63 63 63 63 64 64 64 63 63 62 62 62 60 59 59 58 57 57 56 53 50 52 54 53 52 52 52 52 52 51 50 50
39 52 61 63 64 64 64 63 62 62 61 62 61 60 60 59 60 60 59 58 57 56 55 55 55 56 57 56 55 56 55 56 53 48 52 53 53 52 51 51 48 47 49
39 38 55 61 62 63 64 63 63 61 60 60 58 56 55 57 57 57 56 55 54 54 53 53 52 52 53 53 53 52 50 50 51 52 49 49 51 48 48 48 47 47 48
41 39 45 55 59 60 62 62 62 61 58 57 55 55 54 54 55 55 54 52 50 50 49 49 49 49 50 51 51 51 51 49 48 48 49 49 48 48 48 48 48 46 47

GFSSE_sfc_dewp_090.txt.gz
Dewpoint
69 71 73 72 71 71 70 70 70 71 72 72 72 72 71 72 72 71 71 70 68 67 66 68 68 68 69 69 69 68 69 69 69 69 69 70 68 67 65 65 65 62 64
70 71 73 73 72 72 70 70 71 71 71 72 73 72 72 72 72 71 70 69 67 67 66 67 68 69 68 69 69 68 67 69 69 68 68 67 69 68 69 69 70 68 67
70 71 71 73 73 71 70 70 70 70 70 72 72 72 73 72 71 70 69 68 67 68 68 68 68 68 68 68 68 68 67 66 67 67 66 64 65 69 66 67 68 69 67
70 71 71 73 72 71 70 70 70 69 69 71 72 72 72 72 70 69 68 68 68 68 68 69 68 69 69 68 68 68 67 65 65 64 60 60 62 66 66 65 64 64 65
70 71 71 73 72 71 71 70 70 68 68 70 71 71 71 71 69 68 68 67 68 68 68 69 69 69 68 68 68 67 65 64 64 61 59 59 59 61 64 65 64 64 64
70 70 72 72 72 72 71 70 69 67 67 68 69 70 70 69 67 67 67 67 68 68 68 69 69 69 68 69 68 67 65 65 63 61 61 62 60 62 62 62 62 64 63
70 71 71 72 72 72 71 71 71 68 66 67 67 68 68 67 67 68 67 67 68 68 69 69 69 68 67 67 67 66 65 64 61 61 61 61 61 63 63 61 61 61 63
70 70 70 71 71 72 71 71 72 69 67 66 67 67 66 67 67 66 67 67 68 68 68 68 68 67 66 66 66 65 65 63 61 61 61 62 65 63 63 62 61 61 60
70 70 70 70 70 70 70 71 71 71 69 68 68 68 69 66 66 66 67 67 67 68 67 67 67 66 64 63 64 64 64 64 60 61 62 63 66 63 63 62 62 61 60
69 69 69 69 68 68 68 69 70 70 69 68 68 68 67 67 65 66 68 68 67 67 67 66 65 64 63 62 62 63 63 62 59 61 61 62 65 62 62 62 61 61 60
67 68 69 68 67 67 67 68 69 70 69 68 67 66 66 65 65 65 66 67 68 67 66 65 64 63 62 61 62 62 59 55 55 57 61 62 65 63 63 62 61 60 59
67 67 68 67 66 66 68 67 66 68 69 68 66 64 64 64 64 65 64 66 67 67 67 65 64 64 62 59 58 59 56 55 54 56 60 63 65 64 63 64 63 61 60
67 65 64 64 65 66 66 66 66 66 67 68 65 64 64 63 63 62 62 63 63 64 63 63 62 62 59 59 59 58 57 56 55 53 56 63 65 65 63 63 65 65 64
63 62 62 61 63 63 65 65 65 66 65 67 65 64 63 62 62 62 61 61 61 61 60 60 60 60 59 59 58 59 57 56 55 53 53 58 63 65 64 63 63 65 66
62 62 63 63 62 64 63 64 65 65 65 66 66 65 64 63 62 62 62 61 60 60 60 59 60 60 60 60 60 59 58 56 55 54 54 58 59 65 65 64 63 64 65
60 59 61 62 62 62 61 63 64 65 65 65 66 65 64 63 63 62 62 61 60 60 60 60 59 59 60 58 56 56 55 55 55 56 56 56 60 61 64 64 63 64 64
58 56 59 62 63 63 63 62 62 64 64 64 64 65 65 63 63 63 62 61 61 61 60 58 57 58 58 58 58 58 59 59 59 59 59 59 59 60 62 64 64 64 64
58 58 58 61 62 64 64 64 64 62 63 63 63 63 64 62 62 61 61 59 57 57 56 54 55 57 57 58 58 59 59 59 60 60 60 59 59 60 61 63 64 65 62
59 58 58 60 62 64 66 66 65 65 64 63 63 61 61 61 60 60 59 58 57 55 54 55 56 58 59 59 60 60 61 60 61 60 60 60 60 60 60 61 62 62 63
59 59 59 59 62 64 66 65 66 66 66 65 63 61 61 61 60 59 59 59 60 59 58 58 58 59 60 60 61 61 61 60 60 59 59 59 59 59 59 58 59 60 62
58 59 59 59 63 63 64 64 65 64 65 65 65 63 61 61 61 60 60 60 61 61 61 61 61 60 61 61 59 57 56 57 56 56 55 55 56 57 57 57 58 58 58
61 60 60 60 63 65 64 63 63 64 65 65 65 65 65 64 64 63 62 62 62 61 61 63 63 60 59 59 56 54 51 53 53 54 54 53 53 54 53 54 54 53 53
61 63 63 62 63 63 64 64 63 63 63 63 64 64 65 65 65 64 63 63 62 62 62 60 59 59 57 56 56 56 53 50 51 53 52 52 52 52 52 52 50 50 51
48 59 62 62 62 63 64 63 61 60 61 63 63 62 61 61 61 62 63 62 60 59 59 58 57 56 56 55 54 54 54 56 52 48 51 52 50 50 50 49 48 49 50
40 40 53 60 61 62 63 63 63 62 61 61 60 60 58 59 59 59 59 58 57 57 56 56 54 53 53 52 52 51 50 49 49 52 48 48 49 48 48 47 47 48 49
42 40 39 49 58 61 61 62 62 61 60 59 58 58 57 57 56 56 55 55 53 51 50 49 50 50 51 50 50 50 50 49 47 47 49 49 47 47 47 48 48 47 48

GFSSE_sfc_dewp_093.txt.gz
Dewpoint
69 71 73 72 70 70 70 70 71 72 72 72 72 71 72 72 72 71 70 69 68 69 70 69 68 69 69 68 68 68 68 69 70 69 70 69 68 69 69 67 67 63 65
69 70 73 72 71 70 70 70 71 72 72 73 72 72 72 72 72 71 69 68 67 67 68 68 69 69 68 68 67 67 68 69 68 68 68 69 69 68 68 69 69 66 66
70 70 70 72 73 71 71 71 71 71 72 73 73 73 72 72 71 70 69 68 67 68 68 69 68 68 68 68 68 67 66 68 67 66 66 66 66 67 66 68 68 67 68
70 70 69 72 73 71 70 70 70 70 71 72 73 73 73 72 71 69 68 68 69 68 69 68 68 69 69 69 68 67 64 65 64 63 59 60 62 65 65 64 65 64 65
70 70 70 72 72 71 70 70 70 70 71 72 72 72 72 72 69 68 67 69 67 68 69 69 69 69 69 68 67 64 64 64 63 61 60 61 60 61 64 65 65 64 65
70 70 71 72 72 72 72 71 69 69 70 71 71 71 71 70 68 67 68 69 69 70 69 69 69 69 70 68 67 65 65 64 63 61 62 62 61 63 62 62 64 64 64
69 70 70 72 72 71 71 70 68 68 69 69 70 70 69 67 67 67 67 68 68 69 69 69 68 68 68 68 67 65 65 64 61 62 62 63 62 63 63 62 61 62 63
69 70 69 70 71 71 71 71 69 67 67 68 69 68 67 68 67 66 67 67 67 68 69 68 68 67 67 66 66 65 64 63 61 61 63 63 65 63 63 62 61 61 61
69 69 69 69 70 70 71 70 70 68 68 68 68 66 67 68 65 66 66 67 67 68 69 69 67 66 65 64 65 65 65 63 61 61 61 63 66 63 63 62 62 61 61
69 69 69 68 68 68 68 70 70 68 68 68 66 68 66 65 64 65 67 67 67 68 68 67 66 64 63 63 62 63 64 62 61 62 62 62 65 63 62 62 61 61 60
67 68 68 67 67 67 67 68 69 69 68 67 67 66 65 64 64 64 66 67 68 67 66 66 65 63 62 62 62 62 60 57 57 58 61 62 65 63 63 62 61 60 59
66 67 67 67 67 66 66 68 69 69 66 65 65 65 65 65 65 65 65 66 67 67 66 65 64 64 61 59 59 59 56 56 56 56 60 63 64 65 63 64 63 62 61
66 65 66 66 67 67 67 67 68 69 69 66 64 64 64 65 65 65 65 65 65 64 64 64 63 62 60 60 60 60 59 58 56 55 56 61 64 65 64 63 65 66 65
63 63 64 65 64 65 67 67 67 68 69 67 65 64 64 63 64 63 63 64 63 63 62 62 61 61 61 61 61 60 59 58 57 57 56 58 59 64 65 64 64 65 66
63 63 63 63 63 63 65 66 66 66 68 68 66 65 64 64 63 63 63 63 63 63 63 61 61 62 62 61 60 60 59 57 56 57 57 58 59 61 64 65 64 65 65
63 63 63 63 62 63 63 65 66 66 66 68 67 66 65 64 63 63 64 63 63 62 62 62 61 61 61 61 58 58 58 57 58 58 59 59 60 61 62 64 64 64 64
62 62 62 62 62 63 64 63 64 66 66 65 67 67 65 64 64 64 64 63 63 62 61 61 61 59 59 59 59 59 59 59 60 60 60 60 61 61 62 63 65 65 64
62 59 58 59 63 64 65 64 63 63 65 65 64 66 67 65 64 64 63 63 63 62 61 60 56 57 58 59 58 59 60 60 60 60 61 60 61 60 62 63 64 64 64
59 57 58 60 63 64 65 65 65 64 64 65 65 63 64 65 64 63 63 63 61 58 58 56 55 57 58 60 60 61 62 61 61 60 59 60 61 61 61 62 62 63 64
59 59 59 60 61 63 66 66 66 66 66 65 64 62 62 63 63 62 61 61 59 57 56 56 56 58 60 60 60 61 62 61 59 58 58 58 58 59 60 61 61 61 62
60 58 58 59 61 64 64 64 64 63 65 66 66 64 62 61 61 61 61 60 60 59 59 58 60 60 61 63 62 59 58 58 57 56 56 55 57 58 60 60 60 61 60
59 59 59 58 60 63 63 63 63 64 65 66 66 66 65 63 63 62 61 61 60 61 62 62 62 62 61 61 59 58 55 54 55 55 55 54 54 56 56 57 57 56 56
59 59 59 59 60 62 64 63 64 64 64 64 65 65 65 65 65 65 64 64 64 64 63 63 62 61 61 60 60 59 54 52 54 55 54 53 53 53 54 54 53 53 52
61 61 60 60 60 61 64 63 62 61 61 62 63 63 62 63 63 64 64 63 62 61 60 59 59 59 60 59 59 57 58 58 52 50 53 54 51 51 52 51 51 51 51
52 58 62 63 62 62 63 63 63 62 62 62 62 60 60 60 61 62 62 61 60 58 57 57 56 55 56 55 55 55 54 54 55 53 48 51 52 50 50 49 49 49 49
46 46 47 58 61 62 63 63 62 62 61 61 61 60 59 57 58 58 58 59 58 56 55 54 53 53 53 53 53 53 53 51 50 51 50 50 51 51 50 49 49 49 49

GFSSE_sfc_dewp_096.txt.gz
Dewpoint
66 69 73 73 71 71 70 72 72 73 72 74 73 72 72 72 72 71 70 69 72 72 68 69 70 69 69 68 68 69 69 70 70 69 69 70 70 70 69 68 68 62 68
66 69 73 72 71 70 70 72 72 73 72 73 73 72 72 72 71 70 69 69 70 70 68 70 69 67 67 67 68 68 69 69 69 68 69 69 69 68 69 68 69 66 68
66 68 69 72 72 72 72 72 72 72 73 73 73 73 72 72 71 69 68 68 68 68 69 70 69 67 68 68 67 67 68 67 66 66 67 61 62 66 65 67 69 68 68
66 68 67 72 72 72 71 71 72 72 73 72 73 73 72 71 70 69 68 68 69 70 69 68 67 69 69 68 66 64 65 64 63 62 54 54 55 65 65 65 65 66 68
66 67 68 72 72 72 71 71 71 71 73 72 72 72 72 71 70 68 69 70 68 70 69 69 69 68 68 66 64 63 63 63 62 60 58 58 57 61 64 64 63 65 67
66 66 71 72 72 72 72 71 71 71 72 72 72 72 72 71 68 68 70 69 69 70 70 69 69 69 68 66 65 64 64 63 63 59 59 60 60 62 62 62 64 64 65
66 66 69 72 72 72 72 71 70 71 71 71 71 71 70 70 68 68 69 69 70 70 69 68 69 69 68 67 66 64 64 62 58 58 59 60 61 63 62 62 62 62 63
66 67 68 70 72 72 70 70 70 70 71 71 71 70 69 69 68 68 68 69 69 70 69 68 68 68 67 67 66 65 64 64 59 59 60 60 64 63 63 62 62 61 61
66 66 68 68 69 70 70 69 69 70 70 70 70 69 70 69 66 68 69 69 69 69 69 68 67 66 66 66 65 65 64 62 59 59 58 60 65 63 62 62 62 61 61
67 65 68 66 64 64 68 69 68 69 69 69 68 68 66 65 66 68 68 69 69 69 69 68 66 64 63 63 63 63 64 63 59 61 60 60 65 62 62 62 61 61 61
67 66 67 64 62 61 65 67 68 68 67 67 66 65 65 61 62 64 65 67 69 68 67 66 65 63 63 63 61 61 61 57 55 57 59 62 64 63 63 62 61 61 60
66 67 66 63 61 63 64 67 64 62 62 61 63 61 60 61 60 61 65 67 68 68 67 65 64 63 60 54 57 59 56 55 55 55 57 62 64 65 64 65 64 63 62
66 66 65 61 61 61 64 67 67 62 59 58 61 61 60 61 63 62 63 63 62 64 59 61 60 56 55 57 58 56 56 56 56 56 55 59 64 65 66 64 65 66 65
60 66 66 63 60 59 64 65 67 67 62 60 58 58 59 59 59 59 58 59 59 58 57 57 55 55 56 58 57 56 57 57 56 57 57 59 60 62 65 65 65 65 66
60 65 66 65 63 63 61 61 65 66 65 63 63 60 58 57 57 58 57 58 58 59 58 57 58 58 58 58 58 57 57 57 57 57 58 59 60 61 62 65 65 65 65
60 63 65 66 65 63 62 62 60 64 66 66 65 64 62 61 59 60 60 61 60 60 59 59 59 60 59 59 58 58 58 58 58 59 59 59 61 62 63 64 65 65 65
61 63 64 64 65 63 62 62 63 61 63 66 66 66 64 63 62 62 63 63 61 60 59 59 59 58 58 59 58 59 59 58 59 57 58 58 60 62 62 64 65 66 66
62 63 63 63 64 64 63 62 63 64 63 63 64 66 66 64 64 64 64 63 61 61 60 58 57 56 56 58 58 58 59 59 58 57 57 56 57 57 61 63 64 64 65
61 62 61 61 60 61 64 64 63 64 64 64 62 63 65 66 65 64 63 63 62 61 60 59 56 55 56 59 60 60 59 58 57 57 57 57 58 59 58 62 62 62 63
61 60 59 60 59 62 64 65 63 63 63 64 65 63 63 64 66 65 63 62 62 60 57 57 55 56 59 60 58 57 58 57 56 55 56 55 56 58 58 59 60 60 62
61 59 58 59 61 63 65 63 63 63 65 64 63 63 63 63 63 64 63 62 61 59 58 57 57 59 59 60 59 56 56 56 56 56 56 55 56 57 58 59 59 60 60
59 59 60 58 59 62 63 62 61 62 65 65 66 65 64 63 63 63 63 62 61 60 60 60 61 61 59 61 57 58 52 50 53 55 55 54 55 56 56 58 59 59 59
59 59 60 59 60 60 63 64 63 64 65 64 65 65 66 65 65 65 64 64 64 63 63 64 63 62 61 62 61 57 51 47 52 51 54 54 54 54 55 56 56 55 55
59 60 60 60 59 60 65 63 61 61 60 62 63 64 63 65 65 64 65 64 63 63 63 62 61 61 61 59 61 59 59 55 47 45 51 54 53 52 54 53 54 53 53
60 60 60 60 60 61 62 63 63 62 62 63 63 62 61 61 62 63 64 62 61 60 60 59 58 58 57 55 53 52 50 51 52 50 44 46 51 52 52 52 52 51 51
53 56 62 61 61 61 60 61 62 61 62 62 62 62 61 60 60 60 61 61 60 59 58 58 58 56 54 55 54 53 50 48 47 48 47 48 48 49 51 51 51 51 51

GFSSE_sfc_dewp_099.txt.gz
Dewpoint
65 70 74 73 72 71 70 70 71 71 74 74 73 73 72 72 71 71 71 71 71 70 70 70 70 69 67 69 70 69 69 69 69 69 70 70 70 69 68 68 69 66 69
65 69 73 73 71 71 70 72 73 72 74 74 73 72 72 72 71 70 70 72 71 69 71 69 68 68 68 68 69 68 69 69 69 69 69 68 69 69 67 69 70 67 69
67 69 70 72 72 72 71 72 73 73 74 73 73 73 72 72 71 70 70 71 70 69 70 68 67 67 67 67 68 68 68 67 66 66 67 59 64 67 66 68 70 69 69
68 68 67 72 72 72 72 72 72 73 73 73 73 73 73 71 70 69 69 70 70 71 70 68 68 68 68 65 65 65 64 62 60 62 54 53 55 65 66 66 67 69 69
68 67 68 72 72 72 72 72 72 72 73 72 73 73 72 71 69 68 69 70 71 69 68 69 69 68 66 64 63 63 62 61 62 61 58 59 58 62 64 65 65 67 68
68 67 71 72 72 72 72 71 72 72 72 72 72 72 72 71 70 70 69 70 69 70 70 69 69 68 66 65 64 64 63 62 65 58 58 60 60 63 63 63 64 65 66
66 68 69 72 72 72 71 71 72 73 72 72 72 71 71 71 69 70 69 69 70 70 69 69 69 68 67 66 65 64 62 63 57 58 59 60 62 63 63 62 62 61 61
66 68 67 70 71 72 71 71 72 72 72 71 71 71 71 70 69 67 67 69 70 70 68 69 69 68 67 66 65 64 62 63 58 58 59 61 65 63 63 62 62 62 62
66 67 67 68 69 70 70 71 71 71 71 71 71 71 70 69 69 69 69 69 70 70 69 68 68 67 67 66 65 64 63 64 60 58 57 60 65 63 63 62 62 62 62
64 67 67 67 66 66 66 69 69 70 70 70 70 68 67 66 68 69 68 69 69 70 69 68 67 66 65 65 64 63 64 64 58 59 58 62 64 62 62 61 61 61 61
62 63 68 67 64 61 60 65 68 68 68 68 67 66 64 62 65 65 66 67 69 70 69 67 65 64 64 63 63 62 62 57 53 55 58 65 65 63 63 62 61 61 60
59 60 61 67 60 59 59 62 60 63 63 62 62 61 59 60 61 62 65 67 68 68 68 66 64 63 61 54 56 59 56 54 53 54 59 64 63 65 64 65 64 63 62
60 61 60 66 61 59 62 61 57 58 58 58 60 60 58 57 61 62 64 64 65 65 62 63 61 57 54 54 55 54 54 54 54 55 58 64 63 64 65 65 65 66 66
61 60 62 67 61 64 63 62 57 54 56 58 60 57 57 58 59 59 60 60 60 59 56 57 56 54 54 55 55 54 55 57 56 56 57 61 61 61 63 65 66 66 66
60 61 60 66 60 62 66 67 60 56 55 55 58 58 58 58 57 57 57 57 58 56 55 55 54 53 52 54 56 56 56 56 55 56 58 61 61 62 62 63 65 66 66
59 60 61 66 60 59 63 65 66 60 57 58 57 56 56 56 57 57 56 57 57 58 57 56 55 56 56 56 56 56 56 56 56 57 58 59 63 63 63 64 65 65 65
58 61 61 63 65 60 59 61 65 66 63 61 62 60 59 59 58 59 59 61 60 59 57 59 56 57 56 56 57 57 57 57 57 56 57 58 60 62 64 64 64 65 66
59 60 63 64 64 64 61 61 59 61 64 65 63 63 62 61 61 61 63 62 61 60 60 58 56 56 55 56 57 57 57 58 57 55 56 56 58 57 62 64 65 63 64
59 61 62 64 62 63 63 61 61 61 61 63 65 65 65 63 63 64 63 63 61 61 60 58 56 54 54 57 57 58 60 58 56 54 55 56 57 58 58 62 63 62 62
60 60 62 62 62 62 63 64 62 63 63 62 62 62 64 64 64 64 63 62 62 62 60 58 56 54 56 57 58 56 57 57 58 56 54 53 55 57 58 60 61 61 63
62 60 59 58 60 62 63 64 62 61 63 64 64 63 61 63 64 64 64 63 63 62 60 57 57 56 59 59 59 57 57 56 55 56 56 54 54 56 57 58 59 61 60
60 59 58 58 61 61 63 64 64 65 65 64 65 64 64 63 64 64 64 64 63 63 61 59 59 61 62 61 57 58 54 51 54 54 55 53 53 56 55 56 58 59 61
59 59 59 60 61 61 61 62 63 64 64 64 65 64 65 65 65 65 64 64 65 64 63 64 64 63 62 63 62 56 52 49 51 52 53 52 52 54 55 56 56 57 56
59 61 61 61 61 61 62 61 61 61 61 62 64 65 65 65 65 65 65 64 64 65 63 63 63 63 62 60 61 59 57 53 49 46 52 53 53 51 53 54 54 54 54
58 59 60 61 61 61 61 61 62 61 61 62 63 63 63 63 64 64 64 64 64 62 61 60 59 59 58 55 54 53 51 52 52 50 47 49 52 52 53 53 53 53 52
59 60 60 60 59 60 61 61 62 60 60 60 62 62 62 62 63 63 64 63 62 61 60 59 59 59 58 57 55 54 52 50 49 50 48 47 48 50 52 52 52 52 52

GFSSE_sfc_dewp_102.txt.gz
Dewpoint
67 71 74 73 72 71 71 71 71 73 75 74 73 73 72 72 72 72 70 70 71 71 71 71 69 68 70 70 69 69 69 69 70 69 70 70 69 68 69 69 70 68 69
68 70 73 73 72 71 71 71 72 73 74 74 74 72 72 72 71 71 71 71 70 71 70 70 67 68 69 69 68 68 69 69 69 69 68 67 68 69 69 70 70 68 70
68 70 71 73 73 72 72 73 73 73 74 74 73 73 72 72 71 71 72 71 70 70 68 68 67 67 68 68 68 68 68 67 66 68 68 64 65 68 67 69 70 69 70
68 69 69 73 72 72 72 73 73 72 74 74 73 73 73 72 70 71 71 71 71 71 68 68 67 67 66 67 66 65 63 60 63 65 57 57 61 66 66 68 69 68 69
68 68 69 73 72 72 72 72 73 73 73 73 73 73 73 72 70 70 71 71 72 71 70 69 68 67 64 64 63 61 61 63 65 61 60 59 59 63 66 67 67 68 67
68 67 71 72 72 72 73 72 73 73 72 73 72 72 72 72 70 71 71 71 69 70 70 69 67 65 65 64 63 62 63 64 65 58 60 63 61 63 63 63 64 65 66
67 69 70 72 72 72 72 72 73 73 73 72 72 72 71 71 71 70 70 68 70 70 69 68 67 66 66 65 64 62 63 65 59 59 60 61 61 63 63 63 62 62 62
67 69 69 71 72 72 72 72 72 72 72 72 72 72 71 71 70 67 66 65 70 69 69 69 68 67 66 66 64 63 64 64 60 59 61 62 66 64 64 63 63 63 63
67 69 69 69 70 71 71 71 71 72 72 71 71 71 70 68 66 66 66 69 69 69 69 69 68 68 67 66 65 64 64 64 61 59 61 62 66 63 63 63 63 63 63
65 64 63 64 68 68 69 70 70 71 71 70 70 69 68 66 67 67 67 69 69 70 69 69 67 67 66 66 65 65 64 64 59 58 61 64 65 63 62 62 62 62 62
62 62 61 62 61 65 65 68 69 69 69 69 68 66 65 63 65 65 66 67 68 70 69 68 66 65 65 64 64 63 63 59 56 57 61 67 65 63 63 62 62 61 61
60 60 61 61 61 60 63 66 67 68 68 67 65 62 62 62 63 63 66 67 68 69 68 67 66 65 63 58 58 60 57 57 54 55 61 65 64 65 64 64 64 63 62
59 60 60 60 61 60 60 63 64 67 67 67 63 61 60 62 63 65 66 66 66 65 65 65 63 60 56 55 56 54 55 54 55 55 62 65 64 64 65 66 65 66 66
59 59 60 61 61 60 61 59 58 62 66 64 62 60 58 60 62 63 63 64 63 63 62 61 60 58 56 54 55 55 54 55 56 57 60 63 64 63 64 65 66 66 66
59 60 61 63 63 64 65 58 57 56 56 59 59 59 58 60 59 61 61 61 60 59 58 58 56 54 53 53 55 56 55 56 56 57 56 61 62 64 63 63 64 65 65
60 60 61 65 65 65 66 64 57 54 55 58 58 59 58 59 58 58 57 58 57 57 56 55 54 55 54 56 56 56 56 56 56 57 58 59 63 64 65 65 65 65 65
60 60 61 64 65 65 65 64 65 60 55 56 57 56 56 57 57 57 57 58 58 58 57 57 56 57 57 57 57 57 57 57 57 57 57 59 61 63 64 65 65 64 64
60 60 61 62 62 63 64 64 65 64 61 60 58 58 58 58 58 60 62 61 61 60 59 58 58 57 56 56 57 57 57 58 57 56 55 56 58 59 62 64 65 64 63
59 59 61 61 59 60 62 65 64 64 65 61 63 61 61 61 61 62 63 63 61 61 59 59 57 55 54 55 57 57 58 58 57 54 54 54 56 57 57 62 63 62 62
60 60 61 60 58 60 62 63 62 63 64 64 65 65 64 62 63 63 63 63 62 61 60 59 57 56 55 56 57 57 57 57 56 56 55 53 55 57 58 58 60 61 62
60 60 60 61 61 61 62 62 62 62 62 62 62 63 65 64 64 64 63 62 63 62 60 58 57 56 55 59 58 58 56 55 55 54 54 53 55 56 56 57 60 60 59
59 60 60 60 61 62 62 62 63 63 64 64 64 63 63 63 65 65 64 63 63 62 61 59 57 58 60 61 58 56 53 52 54 53 54 53 52 55 55 56 58 60 58
59 59 58 59 61 61 61 61 62 62 63 63 64 63 63 63 64 64 64 64 63 63 62 62 62 61 60 61 60 57 51 48 50 54 53 52 51 52 55 56 56 55 54
59 60 60 58 60 61 62 61 60 59 59 61 63 64 64 64 64 64 63 63 63 63 62 62 62 60 60 59 60 58 55 53 48 43 51 52 52 51 52 52 54 54 53
58 59 60 60 61 61 61 61 60 58 60 61 61 61 62 63 63 64 63 63 63 62 61 61 60 59 59 57 56 54 50 50 52 50 46 49 52 51 52 51 52 52 51
58 59 59 59 59 61 61 61 60 59 59 59 60 60 61 61 61 61 62 62 62 61 60 60 58 58 58 57 56 53 51 49 49 49 48 48 47 49 51 51 51 51 51

GFSSE_sfc_dewp_105.txt.gz
Dewpoint
69 71 74 73 72 71 71 71 74 75 74 74 73 73 73 73 71 70 69 70 71 71 71 69 70 71 70 68 68 69 70 69 70 69 69 70 70 70 70 70 70 68 69
70 71 73 73 72 71 71 72 73 75 74 74 74 72 72 73 71 71 70 71 71 71 70 68 70 69 69 67 69 69 69 68 68 69 68 68 69 69 70 70 70 68 70
70 71 72 73 73 72 72 72 73 74 74 73 73 72 72 72 71 71 70 71 71 69 68 68 68 68 67 67 69 69 68 67 66 67 67 64 66 69 70 69 70 70 70
70 71 71 73 73 72 72 72 72 73 74 74 73 73 73 71 72 72 71 71 70 68 68 67 67 68 68 68 67 65 62 64 67 64 59 61 63 67 68 69 69 68 69
70 70 71 73 73 72 72 73 72 72 74 74 73 73 73 72 72 71 72 72 71 70 69 67 66 65 65 64 62 62 64 66 65 62 59 60 61 65 67 67 67 67 67
69 69 72 73 73 73 73 73 73 72 73 74 73 73 72 72 72 71 72 71 71 70 69 68 65 65 64 63 63 64 64 65 63 60 61 63 61 63 63 63 63 64 63
68 69 71 72 73 73 73 73 73 73 72 73 73 72 72 72 71 72 71 70 71 70 68 66 65 65 65 64 63 63 64 65 59 61 61 61 61 64 64 63 63 62 62
69 69 70 71 72 72 73 72 73 72 73 72 72 72 72 71 71 71 70 70 70 69 68 67 67 66 65 64 63 63 64 64 60 61 62 63 66 64 64 64 63 63 63
67 67 65 67 70 71 72 72 72 72 72 72 71 71 71 70 70 69 67 70 70 70 70 69 68 67 66 65 64 64 64 64 59 61 61 62 66 64 64 64 63 63 63
63 62 63 62 61 63 69 70 70 70 71 71 70 69 69 67 67 66 66 68 70 70 70 69 68 68 67 66 65 65 64 63 59 61 62 63 65 63 63 62 62 62 62
62 62 62 62 61 61 61 68 69 69 70 69 69 67 66 64 64 64 64 67 68 69 69 68 67 67 66 65 64 63 63 59 58 61 62 66 65 63 63 62 62 61 61
59 61 62 62 61 61 59 61 67 68 68 68 67 65 63 64 63 62 65 66 68 69 68 68 66 66 63 59 59 61 57 56 54 60 62 67 66 65 65 65 64 63 62
58 60 61 61 62 61 61 60 62 67 68 67 65 63 63 63 63 65 66 66 67 65 66 66 65 61 59 57 56 54 53 54 54 59 62 65 65 64 65 66 66 66 66
58 59 60 61 61 61 61 59 59 66 67 66 64 62 62 62 64 64 64 65 65 64 63 63 62 59 57 55 55 55 54 54 56 57 61 64 66 64 64 65 65 66 66
58 59 59 60 60 61 60 60 62 65 67 66 65 63 61 62 63 63 63 63 63 63 62 61 60 58 56 54 54 55 55 55 55 57 57 62 64 65 64 64 64 65 65
58 59 60 61 60 61 61 62 62 62 66 66 65 64 59 61 62 62 62 62 62 61 61 59 57 54 53 52 54 56 56 56 56 56 56 58 63 64 66 65 65 65 64
59 59 59 61 63 63 63 65 64 58 61 62 61 61 60 60 60 60 61 60 60 58 56 56 54 55 56 56 56 56 56 56 57 56 58 57 60 62 64 65 65 64 64
60 60 60 62 64 63 64 64 64 61 57 59 58 58 59 58 57 58 58 58 58 58 58 57 57 56 57 56 57 57 57 57 57 57 56 58 60 59 62 64 65 64 63
59 60 60 62 62 62 62 64 64 63 61 57 58 57 57 57 57 60 60 61 60 59 59 58 57 56 55 55 56 57 58 58 58 54 54 56 57 57 58 62 62 62 62
59 60 61 61 60 61 61 62 64 63 63 64 60 59 59 60 60 62 62 62 61 60 59 59 57 56 54 54 56 56 58 58 56 55 53 55 56 57 57 58 60 61 62
59 59 59 60 59 60 60 61 62 62 62 63 64 62 62 62 62 63 63 63 62 61 60 59 58 56 55 58 58 58 57 56 55 54 53 54 56 56 56 59 60 59 59
59 59 59 59 60 60 60 62 62 62 62 63 63 64 65 63 64 64 63 63 62 62 60 59 57 57 57 60 57 55 53 52 54 54 53 52 54 55 56 57 59 58 57
58 59 60 60 61 61 61 62 62 61 62 62 63 62 63 64 65 64 64 64 63 63 62 61 60 59 59 59 59 57 52 49 52 54 53 52 52 54 55 56 56 55 55
58 60 60 61 60 61 61 61 60 59 59 60 61 62 63 63 64 64 64 63 63 62 61 62 62 61 60 58 59 58 56 53 47 48 52 52 51 53 53 54 55 53 52
59 59 60 60 61 61 61 61 60 58 60 60 61 61 61 62 62 62 63 62 62 62 61 61 60 59 59 59 57 56 53 52 53 49 46 50 52 52 52 51 53 52 52
59 59 59 59 60 60 61 61 60 59 59 59 60 60 61 60 61 61 62 62 61 61 60 59 59 58 58 57 55 54 52 49 48 49 48 47 49 49 51 51 51 51 50

GFSSE_sfc_dewp_108.txt.gz
Dewpoint
69 71 74 72 72 73 74 74 75 75 74 73 73 72 72 71 69 69 71 71 71 70 68 70 70 67 68 68 70 69 70 69 69 69 70 70 70 70 70 70 70 68 69
69 72 73 73 72 72 73 74 75 75 74 74 72 72 72 71 69 70 71 71 72 69 70 70 69 68 68 69 69 68 68 68 68 68 68 68 70 70 70 69 70 68 70
69 71 72 73 73 73 72 73 74 74 74 74 73 72 72 71 71 71 72 71 71 69 69 68 68 66 69 69 69 68 67 67 67 67 67 64 67 70 69 69 70 70 69
70 71 71 73 73 72 72 71 73 74 74 73 73 73 73 71 71 71 71 71 69 68 68 68 67 66 69 69 67 64 65 65 66 64 61 63 65 68 68 69 68 67 68
70 70 71 73 73 72 72 71 71 74 74 74 73 73 73 72 72 71 71 71 70 69 68 68 68 68 67 65 63 65 65 65 65 61 60 60 62 66 67 66 66 66 65
70 71 72 73 73 73 73 73 71 73 74 74 73 73 73 72 72 72 72 70 70 69 68 66 66 65 63 65 65 65 65 65 63 61 62 62 60 63 63 63 63 63 62
69 71 72 73 73 73 73 73 73 72 74 73 73 72 72 72 72 71 72 71 71 70 67 65 65 64 64 65 64 65 65 65 60 61 61 61 62 64 64 63 63 63 63
69 70 71 72 72 73 73 73 73 73 73 73 73 72 72 72 71 72 71 71 70 68 66 66 65 65 64 64 64 64 65 63 61 61 62 63 66 64 64 64 64 64 64
68 67 68 70 70 71 72 72 73 73 72 72 72 72 71 71 71 71 71 71 69 68 67 67 66 66 65 64 63 64 65 63 60 61 62 63 66 64 64 64 64 64 63
64 64 63 63 63 64 68 70 70 71 71 71 71 70 69 69 69 70 69 70 70 70 70 69 67 67 66 65 64 64 63 62 59 61 62 63 65 64 63 63 63 62 62
62 62 62 61 62 61 60 65 69 69 69 70 69 68 67 67 66 64 65 68 70 70 70 69 68 68 67 65 64 63 62 58 59 61 62 66 65 63 63 63 62 62 61
61 61 61 61 61 61 61 60 62 67 68 68 68 68 66 63 63 62 64 66 68 69 69 68 68 67 64 60 59 61 57 56 54 60 62 67 66 65 65 64 64 63 63
60 61 61 61 61 61 61 60 61 65 67 67 67 66 64 64 63 62 65 64 66 65 66 66 65 63 59 57 55 54 53 53 54 60 61 67 67 66 66 66 66 66 66
58 59 60 61 61 62 63 61 60 62 65 67 66 64 65 65 63 64 65 65 65 64 64 63 62 60 58 56 55 55 53 54 55 58 60 64 67 65 65 66 66 66 67
57 58 59 60 60 61 61 61 59 61 64 67 65 64 64 64 64 62 63 64 64 63 63 62 61 59 57 56 55 55 55 54 56 56 58 62 65 66 66 65 64 64 65
57 58 59 59 60 60 60 59 58 61 64 67 66 64 63 63 63 63 62 62 63 62 62 61 60 59 56 55 53 55 55 55 55 56 56 57 63 65 66 65 64 64 64
58 58 59 59 60 60 60 60 60 59 64 65 66 65 63 63 63 62 62 62 62 61 61 60 59 56 54 53 53 54 56 56 56 56 57 56 59 63 64 65 65 65 64
58 58 59 61 62 61 60 60 60 61 63 65 66 65 63 62 62 62 62 62 62 60 59 57 56 55 56 56 56 56 57 57 57 57 56 58 59 59 62 64 65 64 63
59 59 59 60 62 63 62 63 63 62 62 63 65 65 64 63 62 61 61 60 59 59 58 57 57 56 56 56 56 57 57 57 58 56 55 57 58 58 58 61 62 62 62
59 59 59 61 62 62 62 64 63 62 62 62 62 61 60 60 59 59 58 59 59 58 58 58 56 57 56 55 54 55 57 58 56 54 54 56 57 58 57 59 59 60 63
58 58 59 60 60 61 61 61 62 61 62 62 61 59 59 58 59 59 59 60 60 59 58 58 58 56 55 55 56 57 57 56 55 55 54 55 56 56 58 59 59 58 59
57 58 59 60 59 60 61 61 62 62 62 62 62 62 61 60 61 62 61 62 61 60 60 59 58 57 56 58 57 55 54 53 54 54 53 54 55 56 57 59 58 57 56
57 57 58 59 59 59 60 61 62 62 61 61 61 61 61 62 62 63 63 63 62 62 61 60 59 58 58 59 59 57 53 51 52 53 53 52 54 55 56 57 57 56 55
57 59 59 59 60 60 61 60 59 57 57 59 61 61 62 63 63 63 63 63 63 62 61 61 61 59 60 58 59 59 58 53 49 49 52 52 51 54 55 55 55 53 53
57 58 60 60 60 59 61 61 59 58 60 61 61 60 61 61 62 63 63 62 62 61 60 60 60 60 60 59 58 57 56 56 55 49 49 51 52 52 53 54 54 52 52
58 58 59 60 59 60 61 61 60 59 59 59 60 60 60 60 61 61 61 61 61 61 60 60 60 60 59 59 60 57 54 52 50 50 47 48 50 51 51 52 52 51 51

GFSSE_sfc_dewp_111.txt.gz
Dewpoint
68 71 74 73 74 74 74 74 74 74 74 73 72 72 72 70 69 70 70 70 69 68 67 67 67 67 68 70 70 70 69 69 69 70 70 70 70 70 70 70 70 68 69
69 72 73 73 73 74 74 74 75 74 74 73 71 71 72 70 70 71 71 70 69 69 71 69 67 67 67 68 68 69 68 68 68 69 69 69 70 70 70 69 70 68 69
70 71 72 73 73 74 74 75 74 74 74 73 72 71 71 69 70 72 72 71 70 70 70 69 67 67 68 68 68 68 67 67 67 67 67 66 68 69 69 69 69 69 68
70 71 71 73 73 73 73 74 74 74 73 73 73 72 72 70 71 72 72 71 70 69 68 67 68 68 69 67 64 64 64 65 65 65 63 64 66 67 67 66 67 66 66
70 71 71 73 73 72 72 73 74 74 74 73 73 73 73 72 71 72 71 71 70 70 66 68 68 69 68 65 66 65 66 65 64 61 61 62 64 64 66 66 65 64 63
70 70 72 73 73 73 73 72 73 73 73 73 73 72 73 72 72 71 72 70 70 70 68 68 68 67 65 66 66 65 65 64 63 61 62 62 61 63 64 63 63 63 63
70 71 72 73 73 73 73 72 72 73 73 73 73 72 72 72 72 72 71 70 70 68 67 66 65 64 65 66 66 65 65 64 60 61 61 61 61 63 63 64 64 64 64
70 71 71 72 73 73 73 73 72 73 74 73 72 73 72 72 71 72 70 70 69 68 65 65 64 64 65 65 65 65 65 63 61 61 61 62 66 64 64 64 64 64 64
69 69 70 71 71 72 72 73 73 72 73 72 72 72 71 71 71 71 70 70 69 67 66 66 65 65 65 65 64 65 65 64 60 61 62 63 66 64 64 64 64 63 63
66 66 66 65 67 68 69 70 71 72 71 72 71 71 69 69 69 71 70 70 69 68 68 68 66 66 66 65 65 65 64 64 60 61 62 62 65 64 64 63 63 63 62
64 64 63 63 62 62 65 65 68 69 70 70 69 68 67 68 68 68 68 69 69 69 69 68 67 67 67 65 64 63 62 59 59 60 61 64 65 64 63 63 63 62 62
62 62 61 61 61 61 60 60 62 68 67 68 68 68 68 67 66 65 66 67 70 69 69 69 69 68 65 61 59 61 57 57 57 60 61 66 65 64 64 64 63 63 63
60 62 61 61 60 60 60 60 62 64 67 67 66 67 67 65 63 61 65 66 67 66 67 67 66 63 60 57 56 54 54 54 55 59 61 65 66 65 66 66 66 66 66
60 60 61 60 60 60 61 60 59 63 64 66 67 66 65 64 62 61 63 64 64 66 65 63 62 61 58 57 55 55 53 53 54 58 60 64 67 66 66 66 67 67 67
58 60 60 60 61 61 60 60 58 59 63 64 66 66 65 63 63 62 64 64 64 65 64 63 61 60 58 56 55 54 54 55 54 56 59 61 65 67 66 65 65 65 65
57 57 59 60 60 60 60 60 59 59 62 65 66 65 64 64 63 63 63 64 64 64 63 63 60 59 58 55 55 54 55 55 54 56 56 57 63 65 67 66 64 64 65
56 57 58 59 60 59 59 59 59 58 62 65 65 65 64 64 64 62 62 63 63 63 62 62 60 59 57 56 54 53 55 56 56 56 56 56 57 62 64 65 65 65 65
54 57 58 59 59 59 59 59 59 59 59 64 65 65 65 65 64 63 62 62 62 62 62 61 59 58 56 55 53 54 55 56 56 56 57 57 57 58 62 64 65 64 64
55 57 58 59 60 59 60 60 60 60 60 61 65 65 64 65 65 63 63 62 61 61 60 60 58 57 56 55 56 56 57 57 57 57 56 57 58 59 59 60 62 62 62
54 58 58 59 59 61 62 62 62 62 62 62 64 64 64 64 64 64 63 61 61 60 59 58 57 57 56 56 55 55 56 57 58 56 55 57 57 57 58 59 59 60 63
54 57 58 59 60 61 61 60 60 62 61 61 64 63 64 64 64 63 62 61 60 59 59 58 57 56 56 55 55 55 57 56 55 55 55 55 57 57 57 58 58 58 58
54 57 58 59 60 61 60 59 60 61 62 61 62 63 63 63 62 61 61 60 59 59 58 58 57 57 56 57 56 55 54 54 54 54 53 55 56 56 58 58 57 56 56
54 56 57 59 59 59 60 60 60 61 61 61 61 61 61 62 62 62 62 61 60 60 59 59 59 58 56 57 58 56 53 52 53 54 53 53 54 55 56 57 57 56 55
55 56 57 59 58 58 59 59 59 58 58 59 60 61 61 61 62 62 62 62 61 61 60 60 60 58 59 57 58 59 57 53 51 50 52 52 53 54 55 56 56 55 54
55 56 57 58 58 59 59 59 59 57 59 60 60 60 60 61 62 61 62 62 62 62 61 60 60 59 59 58 58 56 56 56 55 51 51 51 52 53 55 55 55 53 52
54 55 57 58 58 60 60 60 60 58 59 59 59 59 59 60 60 61 61 60 60 60 60 60 59 59 59 59 59 58 57 55 54 53 50 49 51 52 52 53 53 52 52

GFSSE_sfc_dewp_114.txt.gz
Dewpoint
67 71 74 74 74 74 74 73 74 74 74 73 73 72 72 71 69 69 69 68 69 68 67 67 66 68 70 70 69 69 69 69 70 70 70 71 70 69 70 70 69 68 69
69 72 74 74 75 75 74 74 74 74 74 73 72 71 71 70 70 70 69 68 68 68 68 67 67 69 68 68 68 68 68 69 69 70 70 69 70 70 70 69 70 68 69
70 72 72 74 74 74 74 74 74 74 74 72 71 70 71 70 71 71 69 69 70 71 68 67 67 65 68 67 67 67 68 68 68 68 67 67 68 70 69 69 69 67 66
71 71 71 73 74 74 74 74 73 74 74 73 70 72 70 70 71 72 71 70 70 70 69 67 67 68 68 67 66 66 66 66 66 66 64 65 65 67 66 66 65 66 64
70 71 71 73 73 74 74 74 73 73 73 73 73 73 72 71 72 72 72 71 71 69 68 69 69 69 66 66 65 66 65 65 65 62 62 63 64 65 66 65 63 63 63
69 70 72 73 73 73 74 74 74 73 72 72 72 72 72 72 72 72 71 71 70 69 68 69 69 67 66 66 66 66 65 64 63 61 61 63 61 64 64 63 63 64 63
70 69 72 73 73 73 73 73 74 74 74 73 72 72 72 72 72 71 71 71 70 69 68 68 68 65 66 66 66 65 65 64 60 60 60 61 61 63 63 64 64 64 64
70 71 71 72 73 73 73 72 73 74 74 73 73 72 72 72 71 71 70 70 69 68 68 67 66 65 66 66 66 66 64 63 61 60 60 61 66 64 64 64 64 64 64
69 69 69 71 71 72 72 73 72 73 73 73 73 72 71 70 71 71 70 69 68 67 66 66 64 66 66 66 66 66 65 63 60 61 62 62 67 64 64 64 64 63 63
66 67 67 68 69 69 69 71 71 71 72 72 72 71 70 69 69 70 69 69 69 68 67 67 66 66 66 66 66 66 65 64 59 61 62 62 65 64 64 63 63 62 62
64 64 65 66 67 67 67 68 69 70 70 70 70 68 68 69 69 68 68 68 68 68 68 67 67 67 67 65 65 64 64 60 59 60 61 63 65 64 63 63 63 62 62
61 63 63 63 63 64 62 64 66 68 68 68 68 68 68 68 68 68 67 67 68 68 68 68 68 68 65 61 60 61 58 57 58 60 60 63 66 64 64 64 63 63 63
59 62 62 62 61 61 61 60 64 66 67 67 67 67 67 68 67 67 67 67 68 66 67 67 67 64 61 59 57 56 56 55 55 58 61 64 66 65 65 65 65 65 65
56 60 62 62 61 60 61 59 60 64 67 67 67 67 65 65 65 63 65 65 66 67 66 64 65 61 59 57 54 53 52 52 54 55 60 63 65 66 66 66 67 67 67
55 59 61 61 60 61 60 60 58 59 62 65 67 67 65 64 64 62 63 64 64 65 65 64 62 60 58 56 55 54 54 54 54 55 58 61 64 66 66 66 66 65 65
53 57 60 60 60 61 60 59 59 58 60 63 65 66 66 65 63 62 63 64 64 64 64 63 61 59 58 56 54 54 54 55 55 54 56 57 62 65 65 66 66 64 64
46 56 58 60 60 60 60 60 59 59 60 63 64 66 65 65 64 63 63 64 64 64 63 62 61 59 57 56 55 54 54 54 55 55 55 56 57 61 63 64 65 65 65
46 53 57 59 60 60 60 59 59 59 58 62 65 64 65 65 64 64 63 64 64 64 62 62 61 59 57 56 55 54 53 54 56 56 56 56 56 56 61 64 66 65 65
43 47 55 58 58 59 59 58 58 58 58 58 64 65 65 65 65 64 64 64 64 63 62 61 60 59 57 56 55 55 55 56 56 57 57 57 57 57 58 60 63 62 62
41 48 54 57 58 58 59 59 59 60 59 59 60 64 64 65 65 65 64 64 63 63 61 60 59 58 57 56 55 55 56 57 57 58 57 56 58 58 58 59 60 60 62
45 49 55 56 58 60 59 59 59 59 60 61 61 63 63 64 64 64 64 63 63 62 61 59 58 57 56 56 55 55 56 57 56 56 55 56 56 57 57 58 58 59 58
44 49 54 57 58 59 60 60 60 61 61 61 61 62 64 63 64 63 63 61 62 62 61 59 58 57 57 56 55 54 52 54 55 55 54 55 56 56 57 57 57 57 56
47 50 54 57 58 59 60 60 61 61 61 60 61 61 62 63 63 62 61 61 61 61 60 60 59 58 56 56 58 56 52 52 53 54 53 53 55 56 56 57 57 56 56
48 51 55 57 58 58 59 60 59 58 57 59 61 61 61 63 62 60 59 58 59 60 60 60 59 59 58 56 57 59 57 54 51 50 52 53 54 54 55 56 57 56 55
51 53 55 57 58 58 59 60 59 57 57 58 59 60 60 61 62 61 60 59 60 61 61 60 59 58 58 58 57 56 56 55 54 51 50 52 52 53 55 56 57 55 54
51 55 55 57 58 57 58 58 58 57 57 58 58 59 60 60 61 62 62 62 62 62 61 60 59 59 59 58 58 57 57 55 54 53 52 52 52 53 53 55 55 54 53

GFSSE_sfc_dewp_117.txt.gz
Dewpoint
68 72 75 75 74 74 73 74 74 74 74 73 73 73 72 71 70 69 68 68 69 69 68 69 70 70 69 69 70 69 69 70 70 70 71 71 70 70 70 70 70 67 69
68 72 74 75 74 74 74 74 74 74 73 73 73 72 71 70 69 69 69 68 68 67 67 66 69 70 69 68 68 69 69 70 70 70 70 70 70 70 70 69 70 67 67
69 72 71 75 74 74 74 74 74 74 73 73 73 72 71 70 70 70 69 69 70 68 67 68 68 66 68 67 68 68 69 69 69 69 69 67 68 70 69 68 68 67 65
70 71 70 75 74 74 74 74 74 74 73 72 72 71 70 70 71 70 70 70 71 70 69 69 67 66 67 67 67 67 68 68 68 67 66 65 64 67 66 66 65 64 64
71 71 71 74 74 74 74 74 73 73 73 72 71 72 72 72 71 71 71 71 71 70 69 68 66 68 66 66 66 65 66 67 66 65 65 65 64 65 65 64 63 64 63
70 71 72 73 73 74 74 74 74 73 73 73 73 73 72 72 72 72 71 71 71 70 70 69 69 66 67 67 67 66 65 65 64 63 64 64 63 64 64 64 64 64 64
70 71 71 73 73 73 74 74 74 74 73 73 73 72 72 72 71 72 72 71 70 69 70 69 68 66 67 67 66 66 64 64 60 61 61 62 62 64 64 65 65 64 64
69 70 70 71 72 73 72 73 73 74 73 73 73 73 73 72 71 71 71 70 69 69 68 68 67 66 67 66 66 66 65 63 60 61 62 63 66 64 65 65 64 64 64
69 69 71 70 70 72 72 72 72 73 73 73 72 72 72 71 71 71 71 70 69 68 68 68 66 67 67 66 67 66 65 63 60 61 61 63 67 64 64 64 64 64 63
65 67 69 70 70 71 71 71 71 71 72 72 72 71 70 69 69 70 70 69 69 69 69 68 67 67 67 67 68 66 65 63 59 62 62 63 65 64 64 64 63 63 63
64 64 65 67 69 70 70 69 69 70 70 70 70 69 69 69 69 69 67 68 69 68 68 67 67 68 67 66 66 65 64 60 59 60 61 63 66 64 64 64 63 62 62
54 62 64 64 66 68 68 69 69 70 70 71 70 70 70 69 69 68 66 67 68 68 68 68 68 68 65 61 61 63 60 60 60 60 60 63 66 65 64 64 64 63 63
48 58 63 63 63 64 65 67 68 69 69 70 70 70 70 70 69 69 68 67 67 65 65 66 65 64 63 61 60 59 59 59 58 59 61 63 65 66 65 65 65 65 65
47 50 60 63 63 63 63 63 65 67 69 69 69 69 69 69 69 69 67 67 67 66 65 66 65 65 63 60 58 57 57 56 56 56 58 63 64 66 66 66 67 67 67
45 50 58 63 63 62 62 62 60 62 67 68 68 68 68 67 67 67 67 66 67 66 65 65 66 64 61 58 56 54 54 53 53 55 56 61 63 65 66 67 66 66 65
41 48 56 61 62 62 62 62 59 58 61 64 68 68 67 67 67 66 66 65 65 67 66 65 64 63 60 58 56 55 55 55 55 56 56 57 61 63 65 65 66 66 65
40 45 53 60 62 62 62 62 61 59 59 61 63 65 66 66 65 64 64 65 65 66 65 65 64 62 60 59 57 55 55 55 56 56 56 57 58 60 63 65 64 66 66
41 43 51 57 61 62 62 62 62 61 60 61 64 63 63 66 65 64 64 64 66 65 65 63 63 62 60 59 57 56 55 55 55 55 57 57 58 57 60 63 65 66 66
40 42 47 54 58 61 62 62 61 61 60 59 61 64 63 63 65 65 65 64 65 65 64 64 61 61 60 59 57 57 57 56 55 54 56 57 58 59 59 60 62 63 64
40 43 45 50 54 59 60 61 61 61 61 60 59 61 63 64 64 66 66 65 65 65 64 63 62 61 60 59 57 56 57 57 57 58 57 58 58 59 59 59 60 61 61
42 42 43 47 53 58 59 59 59 59 60 61 61 60 61 63 64 65 66 65 64 64 63 62 61 60 60 59 58 57 56 56 56 57 58 58 58 58 59 59 60 60 61
42 43 44 49 53 57 60 60 60 60 61 61 62 61 62 62 64 64 64 64 63 63 62 61 61 59 60 59 58 56 54 54 56 57 57 56 57 58 58 59 59 59 60
45 45 45 48 54 57 59 59 60 61 62 62 61 61 62 62 63 63 63 63 63 63 62 62 61 60 58 59 59 58 55 53 55 55 55 55 55 57 58 59 58 59 59
46 47 48 51 54 58 59 59 57 58 58 59 61 61 62 63 63 63 63 63 62 62 61 61 61 60 59 58 58 59 59 56 53 52 54 55 55 56 56 57 58 58 58
48 49 51 53 56 57 58 58 58 57 58 60 61 61 62 62 62 62 62 61 60 61 60 59 59 59 59 58 58 58 58 58 55 54 53 54 54 55 56 57 57 58 57
52 53 54 55 56 57 57 57 57 57 58 59 60 60 60 61 62 62 61 60 60 60 60 61 60 60 60 59 58 58 57 57 56 54 54 55 55 56 55 56 56 57 56